<?xml version="1.0" encoding="UTF-8" standalone="no" ?>
<gpx xmlns="http://www.topografix.com/GPX/1/1" xmlns:xsi="http://www.w3.org/2001/XMLSchema-instance" xsi:schemaLocation="http://www.topografix.com/GPX/1/1 http://www.topografix.com/GPX/1/1/gpx.xsd" version="1.1" creator="VisuGPX - https://www.visugpx.com">
  <metadata>
    <name>PlCy-P141</name>
  </metadata>
  <trk>
    <name><![CDATA[PlCy-P141]]></name>
    <trkseg>
      <trkpt lat="48.02044" lon="-4.21777">
        <ele>142.73902801312</ele>
        <time>2022-01-09T13:51:13.000Z</time>
      </trkpt>
      <trkpt lat="48.02055" lon="-4.2176">
        <ele>143.14047037074</ele>
        <time>2022-01-09T13:51:13.002Z</time>
      </trkpt>
      <trkpt lat="48.02053" lon="-4.2175">
        <ele>143.78889281291</ele>
        <time>2022-01-09T13:51:13.005Z</time>
      </trkpt>
      <trkpt lat="48.0202" lon="-4.21677">
        <ele>145.68292424346</ele>
        <time>2022-01-09T13:51:13.015Z</time>
      </trkpt>
      <trkpt lat="48.01971" lon="-4.21566">
        <ele>147.41734172896</ele>
        <time>2022-01-09T13:51:13.037Z</time>
      </trkpt>
      <trkpt lat="48.0196" lon="-4.21549">
        <ele>148.73060951051</ele>
        <time>2022-01-09T13:51:13.060Z</time>
      </trkpt>
      <trkpt lat="48.01942" lon="-4.21527">
        <ele>149.69918626974</ele>
        <time>2022-01-09T13:51:13.086Z</time>
      </trkpt>
      <trkpt lat="48.01939" lon="-4.2152">
        <ele>150.55939402805</ele>
        <time>2022-01-09T13:51:13.113Z</time>
      </trkpt>
      <trkpt lat="48.01933" lon="-4.21487">
        <ele>151.4519042267</ele>
        <time>2022-01-09T13:51:13.143Z</time>
      </trkpt>
      <trkpt lat="48.01919" lon="-4.2145">
        <ele>152.32205156234</ele>
        <time>2022-01-09T13:51:13.177Z</time>
      </trkpt>
      <trkpt lat="48.01864" lon="-4.21344">
        <ele>152.68475688695</ele>
        <time>2022-01-09T13:51:13.222Z</time>
      </trkpt>
      <trkpt lat="48.01853" lon="-4.2132">
        <ele>153.24862216871</ele>
        <time>2022-01-09T13:51:13.269Z</time>
      </trkpt>
      <trkpt lat="48.01828" lon="-4.21274">
        <ele>153.92057914928</ele>
        <time>2022-01-09T13:51:13.321Z</time>
      </trkpt>
      <trkpt lat="48.01804" lon="-4.21221">
        <ele>154.51152810396</ele>
        <time>2022-01-09T13:51:13.379Z</time>
      </trkpt>
      <trkpt lat="48.01762" lon="-4.21138">
        <ele>155.34649418715</ele>
        <time>2022-01-09T13:51:13.445Z</time>
      </trkpt>
      <trkpt lat="48.01732" lon="-4.21073">
        <ele>155.60985080543</ele>
        <time>2022-01-09T13:51:13.518Z</time>
      </trkpt>
      <trkpt lat="48.01706" lon="-4.21002">
        <ele>155.68216708598</ele>
        <time>2022-01-09T13:51:13.598Z</time>
      </trkpt>
      <trkpt lat="48.01674" lon="-4.20934">
        <ele>155.51637126039</ele>
        <time>2022-01-09T13:51:13.685Z</time>
      </trkpt>
      <trkpt lat="48.0164" lon="-4.20867">
        <ele>155.39136749413</ele>
        <time>2022-01-09T13:51:13.779Z</time>
      </trkpt>
      <trkpt lat="48.01598" lon="-4.2078">
        <ele>155.36910099666</ele>
        <time>2022-01-09T13:51:13.882Z</time>
      </trkpt>
      <trkpt lat="48.01565" lon="-4.20706">
        <ele>154.94898456793</ele>
        <time>2022-01-09T13:51:13.992Z</time>
      </trkpt>
      <trkpt lat="48.01522" lon="-4.20618">
        <ele>154.34312344366</ele>
        <time>2022-01-09T13:51:14.111Z</time>
      </trkpt>
      <trkpt lat="48.01438" lon="-4.20441">
        <ele>153.3988186377</ele>
        <time>2022-01-09T13:51:14.249Z</time>
      </trkpt>
      <trkpt lat="48.01421" lon="-4.20421">
        <ele>152.47379720746</ele>
        <time>2022-01-09T13:51:14.389Z</time>
      </trkpt>
      <trkpt lat="48.01408" lon="-4.20382">
        <ele>151.67382124522</ele>
        <time>2022-01-09T13:51:14.533Z</time>
      </trkpt>
      <trkpt lat="48.01393" lon="-4.20353">
        <ele>150.75147061636</ele>
        <time>2022-01-09T13:51:14.680Z</time>
      </trkpt>
      <trkpt lat="48.01354" lon="-4.20284">
        <ele>149.67657382058</ele>
        <time>2022-01-09T13:51:14.835Z</time>
      </trkpt>
      <trkpt lat="48.01321" lon="-4.20236">
        <ele>148.66102005892</ele>
        <time>2022-01-09T13:51:14.995Z</time>
      </trkpt>
      <trkpt lat="48.01293" lon="-4.20183">
        <ele>148.01827394766</ele>
        <time>2022-01-09T13:51:15.161Z</time>
      </trkpt>
      <trkpt lat="48.0128" lon="-4.20135">
        <ele>147.45997463695</ele>
        <time>2022-01-09T13:51:15.331Z</time>
      </trkpt>
      <trkpt lat="48.01225" lon="-4.19781">
        <ele>147.12061406323</ele>
        <time>2022-01-09T13:51:15.532Z</time>
      </trkpt>
      <trkpt lat="48.01221" lon="-4.19761">
        <ele>146.56233520087</ele>
        <time>2022-01-09T13:51:15.735Z</time>
      </trkpt>
      <trkpt lat="48.01217" lon="-4.19753">
        <ele>146.15187096857</ele>
        <time>2022-01-09T13:51:15.938Z</time>
      </trkpt>
      <trkpt lat="48.01212" lon="-4.19746">
        <ele>145.83546785751</ele>
        <time>2022-01-09T13:51:16.142Z</time>
      </trkpt>
      <trkpt lat="48.01206" lon="-4.19744">
        <ele>145.60392759997</ele>
        <time>2022-01-09T13:51:16.347Z</time>
      </trkpt>
      <trkpt lat="48.01186" lon="-4.19749">
        <ele>145.37923988804</ele>
        <time>2022-01-09T13:51:16.555Z</time>
      </trkpt>
      <trkpt lat="48.01172" lon="-4.19746">
        <ele>145.38492572721</ele>
        <time>2022-01-09T13:51:16.764Z</time>
      </trkpt>
      <trkpt lat="48.01166" lon="-4.19742">
        <ele>145.58338831321</ele>
        <time>2022-01-09T13:51:16.974Z</time>
      </trkpt>
      <trkpt lat="48.01129" lon="-4.19689">
        <ele>145.82958316705</ele>
        <time>2022-01-09T13:51:17.191Z</time>
      </trkpt>
      <trkpt lat="48.01081" lon="-4.19614">
        <ele>146.16943841465</ele>
        <time>2022-01-09T13:51:17.416Z</time>
      </trkpt>
      <trkpt lat="48.01038" lon="-4.19572">
        <ele>146.90508581801</ele>
        <time>2022-01-09T13:51:17.648Z</time>
      </trkpt>
      <trkpt lat="48.01026" lon="-4.19562">
        <ele>147.75396029875</ele>
        <time>2022-01-09T13:51:17.881Z</time>
      </trkpt>
      <trkpt lat="48.00984" lon="-4.19539">
        <ele>148.85465810518</ele>
        <time>2022-01-09T13:51:18.120Z</time>
      </trkpt>
      <trkpt lat="48.00948" lon="-4.19529">
        <ele>150.0050667297</ele>
        <time>2022-01-09T13:51:18.364Z</time>
      </trkpt>
      <trkpt lat="48.00912" lon="-4.19527">
        <ele>151.02256680554</ele>
        <time>2022-01-09T13:51:18.612Z</time>
      </trkpt>
      <trkpt lat="48.00878" lon="-4.19531">
        <ele>151.99967927053</ele>
        <time>2022-01-09T13:51:18.864Z</time>
      </trkpt>
      <trkpt lat="48.00845" lon="-4.19542">
        <ele>153.04531458784</ele>
        <time>2022-01-09T13:51:19.121Z</time>
      </trkpt>
      <trkpt lat="48.00813" lon="-4.19556">
        <ele>153.77771886144</ele>
        <time>2022-01-09T13:51:19.382Z</time>
      </trkpt>
      <trkpt lat="48.0072" lon="-4.1961">
        <ele>154.74340161754</ele>
        <time>2022-01-09T13:51:19.655Z</time>
      </trkpt>
      <trkpt lat="48.00662" lon="-4.1964">
        <ele>155.49626300959</ele>
        <time>2022-01-09T13:51:19.936Z</time>
      </trkpt>
      <trkpt lat="48.00622" lon="-4.19656">
        <ele>155.48202041151</ele>
        <time>2022-01-09T13:51:20.222Z</time>
      </trkpt>
      <trkpt lat="48.00575" lon="-4.19664">
        <ele>154.90007521826</ele>
        <time>2022-01-09T13:51:20.514Z</time>
      </trkpt>
      <trkpt lat="48.00524" lon="-4.19659">
        <ele>153.64061764526</ele>
        <time>2022-01-09T13:51:20.812Z</time>
      </trkpt>
      <trkpt lat="48.00415" lon="-4.19628">
        <ele>151.48077371545</ele>
        <time>2022-01-09T13:51:21.124Z</time>
      </trkpt>
      <trkpt lat="48.00221" lon="-4.1957">
        <ele>148.76210856921</ele>
        <time>2022-01-09T13:51:21.461Z</time>
      </trkpt>
      <trkpt lat="48.0006" lon="-4.19518">
        <ele>145.67754308889</ele>
        <time>2022-01-09T13:51:21.819Z</time>
      </trkpt>
      <trkpt lat="47.99916" lon="-4.19461">
        <ele>143.02261084661</ele>
        <time>2022-01-09T13:51:22.195Z</time>
      </trkpt>
      <trkpt lat="47.99907" lon="-4.19459">
        <ele>140.46811796391</ele>
        <time>2022-01-09T13:51:22.572Z</time>
      </trkpt>
      <trkpt lat="47.99899" lon="-4.19459">
        <ele>137.89369592963</ele>
        <time>2022-01-09T13:51:22.950Z</time>
      </trkpt>
      <trkpt lat="47.99875" lon="-4.19469">
        <ele>135.28509573248</ele>
        <time>2022-01-09T13:51:23.332Z</time>
      </trkpt>
      <trkpt lat="47.9986" lon="-4.19466">
        <ele>132.60320738665</ele>
        <time>2022-01-09T13:51:23.715Z</time>
      </trkpt>
      <trkpt lat="47.99833" lon="-4.19438">
        <ele>130.01243182306</ele>
        <time>2022-01-09T13:51:24.103Z</time>
      </trkpt>
      <trkpt lat="47.99816" lon="-4.19429">
        <ele>127.56006955413</ele>
        <time>2022-01-09T13:51:24.493Z</time>
      </trkpt>
      <trkpt lat="47.99596" lon="-4.1933">
        <ele>124.38496858138</ele>
        <time>2022-01-09T13:51:24.911Z</time>
      </trkpt>
      <trkpt lat="47.99575" lon="-4.19319">
        <ele>122.28606173866</ele>
        <time>2022-01-09T13:51:25.332Z</time>
      </trkpt>
      <trkpt lat="47.99515" lon="-4.19278">
        <ele>120.29397209904</ele>
        <time>2022-01-09T13:51:25.762Z</time>
      </trkpt>
      <trkpt lat="47.99487" lon="-4.19254">
        <ele>118.73832182206</ele>
        <time>2022-01-09T13:51:26.196Z</time>
      </trkpt>
      <trkpt lat="47.99461" lon="-4.19227">
        <ele>117.46796905934</ele>
        <time>2022-01-09T13:51:26.634Z</time>
      </trkpt>
      <trkpt lat="47.99422" lon="-4.19177">
        <ele>116.52801047268</ele>
        <time>2022-01-09T13:51:27.078Z</time>
      </trkpt>
      <trkpt lat="47.99277" lon="-4.18962">
        <ele>116.17985524516</ele>
        <time>2022-01-09T13:51:27.548Z</time>
      </trkpt>
      <trkpt lat="47.99263" lon="-4.18943">
        <ele>115.48457643657</ele>
        <time>2022-01-09T13:51:28.020Z</time>
      </trkpt>
      <trkpt lat="47.99217" lon="-4.18893">
        <ele>114.97781661705</ele>
        <time>2022-01-09T13:51:28.499Z</time>
      </trkpt>
      <trkpt lat="47.992" lon="-4.18878">
        <ele>114.48876513374</ele>
        <time>2022-01-09T13:51:28.981Z</time>
      </trkpt>
      <trkpt lat="47.99149" lon="-4.18841">
        <ele>113.76698208812</ele>
        <time>2022-01-09T13:51:29.470Z</time>
      </trkpt>
      <trkpt lat="47.99105" lon="-4.18819">
        <ele>113.40744984361</ele>
        <time>2022-01-09T13:51:29.965Z</time>
      </trkpt>
      <trkpt lat="47.99087" lon="-4.18812">
        <ele>112.95185191526</ele>
        <time>2022-01-09T13:51:30.462Z</time>
      </trkpt>
      <trkpt lat="47.99051" lon="-4.18803">
        <ele>112.47258526258</ele>
        <time>2022-01-09T13:51:30.963Z</time>
      </trkpt>
      <trkpt lat="47.99023" lon="-4.188">
        <ele>111.89979323787</ele>
        <time>2022-01-09T13:51:31.468Z</time>
      </trkpt>
      <trkpt lat="47.98978" lon="-4.18798">
        <ele>111.0187758511</ele>
        <time>2022-01-09T13:51:31.979Z</time>
      </trkpt>
      <trkpt lat="47.98899" lon="-4.18803">
        <ele>109.30013509209</ele>
        <time>2022-01-09T13:51:32.499Z</time>
      </trkpt>
      <trkpt lat="47.98866" lon="-4.18812">
        <ele>107.68857831075</ele>
        <time>2022-01-09T13:51:33.024Z</time>
      </trkpt>
      <trkpt lat="47.98842" lon="-4.18807">
        <ele>106.10262707198</ele>
        <time>2022-01-09T13:51:33.552Z</time>
      </trkpt>
      <trkpt lat="47.98814" lon="-4.18807">
        <ele>104.5779905555</ele>
        <time>2022-01-09T13:51:34.083Z</time>
      </trkpt>
      <trkpt lat="47.98733" lon="-4.18812">
        <ele>103.13964079543</ele>
        <time>2022-01-09T13:51:34.624Z</time>
      </trkpt>
      <trkpt lat="47.98653" lon="-4.18815">
        <ele>101.55746081125</ele>
        <time>2022-01-09T13:51:35.175Z</time>
      </trkpt>
      <trkpt lat="47.98573" lon="-4.1881">
        <ele>99.896587337704</ele>
        <time>2022-01-09T13:51:35.736Z</time>
      </trkpt>
      <trkpt lat="47.98399" lon="-4.18791">
        <ele>98.223947573097</ele>
        <time>2022-01-09T13:51:36.319Z</time>
      </trkpt>
      <trkpt lat="47.98305" lon="-4.18783">
        <ele>95.979335611655</ele>
        <time>2022-01-09T13:51:36.914Z</time>
      </trkpt>
      <trkpt lat="47.98249" lon="-4.18782">
        <ele>94.204205024639</ele>
        <time>2022-01-09T13:51:37.516Z</time>
      </trkpt>
      <trkpt lat="47.98173" lon="-4.18783">
        <ele>92.577724605479</ele>
        <time>2022-01-09T13:51:38.127Z</time>
      </trkpt>
      <trkpt lat="47.9808" lon="-4.18791">
        <ele>90.787975283867</ele>
        <time>2022-01-09T13:51:38.750Z</time>
      </trkpt>
      <trkpt lat="47.97961" lon="-4.18809">
        <ele>89.54640383599</ele>
        <time>2022-01-09T13:51:39.388Z</time>
      </trkpt>
      <trkpt lat="47.97926" lon="-4.18818">
        <ele>88.576773257105</ele>
        <time>2022-01-09T13:51:40.031Z</time>
      </trkpt>
      <trkpt lat="47.97906" lon="-4.1884">
        <ele>87.793429749313</ele>
        <time>2022-01-09T13:51:40.677Z</time>
      </trkpt>
      <trkpt lat="47.979" lon="-4.18843">
        <ele>87.162985834984</ele>
        <time>2022-01-09T13:51:41.323Z</time>
      </trkpt>
      <trkpt lat="47.97895" lon="-4.18844">
        <ele>86.716723356229</ele>
        <time>2022-01-09T13:51:41.970Z</time>
      </trkpt>
      <trkpt lat="47.97884" lon="-4.18837">
        <ele>86.418533253372</ele>
        <time>2022-01-09T13:51:42.618Z</time>
      </trkpt>
      <trkpt lat="47.97878" lon="-4.18822">
        <ele>86.204046547043</ele>
        <time>2022-01-09T13:51:43.268Z</time>
      </trkpt>
      <trkpt lat="47.97878" lon="-4.18813">
        <ele>86.205309855952</ele>
        <time>2022-01-09T13:51:43.919Z</time>
      </trkpt>
      <trkpt lat="47.97879" lon="-4.18804">
        <ele>86.354579290523</ele>
        <time>2022-01-09T13:51:44.571Z</time>
      </trkpt>
      <trkpt lat="47.9789" lon="-4.18774">
        <ele>86.575998160925</ele>
        <time>2022-01-09T13:51:45.225Z</time>
      </trkpt>
      <trkpt lat="47.97894" lon="-4.1875">
        <ele>86.944916285543</ele>
        <time>2022-01-09T13:51:45.881Z</time>
      </trkpt>
      <trkpt lat="47.97907" lon="-4.18561">
        <ele>87.740009919716</ele>
        <time>2022-01-09T13:51:46.553Z</time>
      </trkpt>
      <trkpt lat="47.97914" lon="-4.18476">
        <ele>88.409483079488</ele>
        <time>2022-01-09T13:51:47.233Z</time>
      </trkpt>
      <trkpt lat="47.97931" lon="-4.18336">
        <ele>89.371918530149</ele>
        <time>2022-01-09T13:51:47.925Z</time>
      </trkpt>
      <trkpt lat="47.97937" lon="-4.1831">
        <ele>90.118872018074</ele>
        <time>2022-01-09T13:51:48.619Z</time>
      </trkpt>
      <trkpt lat="47.97975" lon="-4.18211">
        <ele>90.918008281936</ele>
        <time>2022-01-09T13:51:49.322Z</time>
      </trkpt>
      <trkpt lat="47.97992" lon="-4.18148">
        <ele>91.726213850586</ele>
        <time>2022-01-09T13:51:50.031Z</time>
      </trkpt>
      <trkpt lat="47.98008" lon="-4.18072">
        <ele>92.148931022042</ele>
        <time>2022-01-09T13:51:50.747Z</time>
      </trkpt>
      <trkpt lat="47.98013" lon="-4.18041">
        <ele>92.614291152549</ele>
        <time>2022-01-09T13:51:51.465Z</time>
      </trkpt>
      <trkpt lat="47.9803" lon="-4.17886">
        <ele>92.778903515847</ele>
        <time>2022-01-09T13:51:52.197Z</time>
      </trkpt>
      <trkpt lat="47.98028" lon="-4.17864">
        <ele>93.083418119001</ele>
        <time>2022-01-09T13:51:52.931Z</time>
      </trkpt>
      <trkpt lat="47.9802" lon="-4.17843">
        <ele>93.305136747423</ele>
        <time>2022-01-09T13:51:53.667Z</time>
      </trkpt>
      <trkpt lat="47.98007" lon="-4.17824">
        <ele>93.559265384458</ele>
        <time>2022-01-09T13:51:54.405Z</time>
      </trkpt>
      <trkpt lat="47.97957" lon="-4.17761">
        <ele>94.075772387837</ele>
        <time>2022-01-09T13:51:55.151Z</time>
      </trkpt>
      <trkpt lat="47.97948" lon="-4.17746">
        <ele>94.299364517804</ele>
        <time>2022-01-09T13:51:55.899Z</time>
      </trkpt>
      <trkpt lat="47.97938" lon="-4.17724">
        <ele>94.516467750862</ele>
        <time>2022-01-09T13:51:56.649Z</time>
      </trkpt>
      <trkpt lat="47.97928" lon="-4.17691">
        <ele>94.651972429282</ele>
        <time>2022-01-09T13:51:57.402Z</time>
      </trkpt>
      <trkpt lat="47.97918" lon="-4.17644">
        <ele>94.317101791044</ele>
        <time>2022-01-09T13:51:58.159Z</time>
      </trkpt>
      <trkpt lat="47.97908" lon="-4.17552">
        <ele>93.899654172854</ele>
        <time>2022-01-09T13:51:58.924Z</time>
      </trkpt>
      <trkpt lat="47.97893" lon="-4.17381">
        <ele>93.425879506095</ele>
        <time>2022-01-09T13:51:59.703Z</time>
      </trkpt>
      <trkpt lat="47.97887" lon="-4.17323">
        <ele>92.695900821344</ele>
        <time>2022-01-09T13:52:00.487Z</time>
      </trkpt>
      <trkpt lat="47.97878" lon="-4.1729">
        <ele>91.597797611537</ele>
        <time>2022-01-09T13:52:01.274Z</time>
      </trkpt>
      <trkpt lat="47.97846" lon="-4.17187">
        <ele>90.269996120001</ele>
        <time>2022-01-09T13:52:02.071Z</time>
      </trkpt>
      <trkpt lat="47.97839" lon="-4.17161">
        <ele>89.179474080159</ele>
        <time>2022-01-09T13:52:02.870Z</time>
      </trkpt>
      <trkpt lat="47.97828" lon="-4.17105">
        <ele>87.821938562967</ele>
        <time>2022-01-09T13:52:03.674Z</time>
      </trkpt>
      <trkpt lat="47.97802" lon="-4.16913">
        <ele>86.154928497233</ele>
        <time>2022-01-09T13:52:04.495Z</time>
      </trkpt>
      <trkpt lat="47.97791" lon="-4.16849">
        <ele>84.705109988592</ele>
        <time>2022-01-09T13:52:05.321Z</time>
      </trkpt>
      <trkpt lat="47.97778" lon="-4.16823">
        <ele>83.403152677915</ele>
        <time>2022-01-09T13:52:06.150Z</time>
      </trkpt>
      <trkpt lat="47.97778" lon="-4.16739">
        <ele>82.026800685734</ele>
        <time>2022-01-09T13:52:06.986Z</time>
      </trkpt>
      <trkpt lat="47.9777" lon="-4.16677">
        <ele>80.475325317748</ele>
        <time>2022-01-09T13:52:07.827Z</time>
      </trkpt>
      <trkpt lat="47.97733" lon="-4.16451">
        <ele>78.785540037248</ele>
        <time>2022-01-09T13:52:08.688Z</time>
      </trkpt>
      <trkpt lat="47.97725" lon="-4.16367">
        <ele>77.331094161806</ele>
        <time>2022-01-09T13:52:09.556Z</time>
      </trkpt>
      <trkpt lat="47.97725" lon="-4.16353">
        <ele>75.980586128547</ele>
        <time>2022-01-09T13:52:10.425Z</time>
      </trkpt>
      <trkpt lat="47.97737" lon="-4.16244">
        <ele>74.66843022651</ele>
        <time>2022-01-09T13:52:11.303Z</time>
      </trkpt>
      <trkpt lat="47.97762" lon="-4.161">
        <ele>73.203841918666</ele>
        <time>2022-01-09T13:52:12.194Z</time>
      </trkpt>
      <trkpt lat="47.97767" lon="-4.1606">
        <ele>71.693793023655</ele>
        <time>2022-01-09T13:52:13.088Z</time>
      </trkpt>
      <trkpt lat="47.97778" lon="-4.1592">
        <ele>70.15396426957</ele>
        <time>2022-01-09T13:52:13.994Z</time>
      </trkpt>
      <trkpt lat="47.97792" lon="-4.15705">
        <ele>68.591084851278</ele>
        <time>2022-01-09T13:52:14.918Z</time>
      </trkpt>
      <trkpt lat="47.97791" lon="-4.1566">
        <ele>66.830972269739</ele>
        <time>2022-01-09T13:52:15.846Z</time>
      </trkpt>
      <trkpt lat="47.97781" lon="-4.15588">
        <ele>65.084240511954</ele>
        <time>2022-01-09T13:52:16.780Z</time>
      </trkpt>
      <trkpt lat="47.97723" lon="-4.15293">
        <ele>63.408401953363</ele>
        <time>2022-01-09T13:52:17.740Z</time>
      </trkpt>
      <trkpt lat="47.97707" lon="-4.15203">
        <ele>61.826477724529</ele>
        <time>2022-01-09T13:52:18.708Z</time>
      </trkpt>
      <trkpt lat="47.97693" lon="-4.15114">
        <ele>60.503769627856</ele>
        <time>2022-01-09T13:52:19.684Z</time>
      </trkpt>
      <trkpt lat="47.97664" lon="-4.14897">
        <ele>58.820475318536</ele>
        <time>2022-01-09T13:52:20.678Z</time>
      </trkpt>
      <trkpt lat="47.97661" lon="-4.14828">
        <ele>57.601372189279</ele>
        <time>2022-01-09T13:52:21.678Z</time>
      </trkpt>
      <trkpt lat="47.97661" lon="-4.14783">
        <ele>56.067551938713</ele>
        <time>2022-01-09T13:52:22.682Z</time>
      </trkpt>
      <trkpt lat="47.97674" lon="-4.14637">
        <ele>53.577108777509</ele>
        <time>2022-01-09T13:52:23.698Z</time>
      </trkpt>
      <trkpt lat="47.97695" lon="-4.14348">
        <ele>51.061492105225</ele>
        <time>2022-01-09T13:52:24.738Z</time>
      </trkpt>
      <trkpt lat="47.97703" lon="-4.14235">
        <ele>49.538619949774</ele>
        <time>2022-01-09T13:52:25.788Z</time>
      </trkpt>
      <trkpt lat="47.97706" lon="-4.14179">
        <ele>47.803836343897</ele>
        <time>2022-01-09T13:52:26.843Z</time>
      </trkpt>
      <trkpt lat="47.97706" lon="-4.14151">
        <ele>46.223357801943</ele>
        <time>2022-01-09T13:52:27.900Z</time>
      </trkpt>
      <trkpt lat="47.97702" lon="-4.14109">
        <ele>44.706148710637</ele>
        <time>2022-01-09T13:52:28.961Z</time>
      </trkpt>
      <trkpt lat="47.97697" lon="-4.14081">
        <ele>43.512978552305</ele>
        <time>2022-01-09T13:52:30.024Z</time>
      </trkpt>
      <trkpt lat="47.97636" lon="-4.13817">
        <ele>41.92628143206</ele>
        <time>2022-01-09T13:52:31.111Z</time>
      </trkpt>
      <trkpt lat="47.9762" lon="-4.13772">
        <ele>41.111250625634</ele>
        <time>2022-01-09T13:52:32.202Z</time>
      </trkpt>
      <trkpt lat="47.97563" lon="-4.1365">
        <ele>41.338687109099</ele>
        <time>2022-01-09T13:52:33.305Z</time>
      </trkpt>
      <trkpt lat="47.97552" lon="-4.13606">
        <ele>41.238841156908</ele>
        <time>2022-01-09T13:52:34.412Z</time>
      </trkpt>
      <trkpt lat="47.97551" lon="-4.13583">
        <ele>40.839688675725</ele>
        <time>2022-01-09T13:52:35.521Z</time>
      </trkpt>
      <trkpt lat="47.9756" lon="-4.13549">
        <ele>40.273809503051</ele>
        <time>2022-01-09T13:52:36.633Z</time>
      </trkpt>
      <trkpt lat="47.97568" lon="-4.13528">
        <ele>39.653504179568</ele>
        <time>2022-01-09T13:52:37.747Z</time>
      </trkpt>
      <trkpt lat="47.97589" lon="-4.13491">
        <ele>38.766595675982</ele>
        <time>2022-01-09T13:52:38.865Z</time>
      </trkpt>
      <trkpt lat="47.97601" lon="-4.13474">
        <ele>37.729305011114</ele>
        <time>2022-01-09T13:52:39.985Z</time>
      </trkpt>
      <trkpt lat="47.97647" lon="-4.13431">
        <ele>36.038963922329</ele>
        <time>2022-01-09T13:52:41.112Z</time>
      </trkpt>
      <trkpt lat="47.97662" lon="-4.13411">
        <ele>34.730453568951</ele>
        <time>2022-01-09T13:52:42.242Z</time>
      </trkpt>
      <trkpt lat="47.97676" lon="-4.13387">
        <ele>33.398884364553</ele>
        <time>2022-01-09T13:52:43.374Z</time>
      </trkpt>
      <trkpt lat="47.97689" lon="-4.13359">
        <ele>32.028014053989</ele>
        <time>2022-01-09T13:52:44.509Z</time>
      </trkpt>
      <trkpt lat="47.97708" lon="-4.13313">
        <ele>30.502606211462</ele>
        <time>2022-01-09T13:52:45.649Z</time>
      </trkpt>
      <trkpt lat="47.9773" lon="-4.13247">
        <ele>28.646195981083</ele>
        <time>2022-01-09T13:52:46.795Z</time>
      </trkpt>
      <trkpt lat="47.97794" lon="-4.13024">
        <ele>27.216851021146</ele>
        <time>2022-01-09T13:52:47.961Z</time>
      </trkpt>
      <trkpt lat="47.97802" lon="-4.12994">
        <ele>25.305852766865</ele>
        <time>2022-01-09T13:52:49.130Z</time>
      </trkpt>
      <trkpt lat="47.97823" lon="-4.12894">
        <ele>23.100469303409</ele>
        <time>2022-01-09T13:52:50.308Z</time>
      </trkpt>
      <trkpt lat="47.97846" lon="-4.12768">
        <ele>20.887696215717</ele>
        <time>2022-01-09T13:52:51.497Z</time>
      </trkpt>
      <trkpt lat="47.97863" lon="-4.12653">
        <ele>18.220938266839</ele>
        <time>2022-01-09T13:52:52.696Z</time>
      </trkpt>
      <trkpt lat="47.979" lon="-4.12373">
        <ele>14.74738554084</ele>
        <time>2022-01-09T13:52:53.919Z</time>
      </trkpt>
      <trkpt lat="47.97911" lon="-4.12312">
        <ele>12.274172955049</ele>
        <time>2022-01-09T13:52:55.147Z</time>
      </trkpt>
      <trkpt lat="47.97945" lon="-4.1215">
        <ele>10.166613633397</ele>
        <time>2022-01-09T13:52:56.389Z</time>
      </trkpt>
      <trkpt lat="47.97962" lon="-4.1211">
        <ele>8.2487635354637</ele>
        <time>2022-01-09T13:52:57.635Z</time>
      </trkpt>
      <trkpt lat="47.97969" lon="-4.12102">
        <ele>6.6131286262397</ele>
        <time>2022-01-09T13:52:58.882Z</time>
      </trkpt>
      <trkpt lat="47.97978" lon="-4.12097">
        <ele>5.2029183498577</ele>
        <time>2022-01-09T13:53:00.131Z</time>
      </trkpt>
      <trkpt lat="47.97997" lon="-4.12091">
        <ele>4.000544399425</ele>
        <time>2022-01-09T13:53:01.382Z</time>
      </trkpt>
      <trkpt lat="47.9804" lon="-4.12082">
        <ele>3.1927759568534</ele>
        <time>2022-01-09T13:53:02.638Z</time>
      </trkpt>
      <trkpt lat="47.98071" lon="-4.12066">
        <ele>2.620855811784</ele>
        <time>2022-01-09T13:53:03.899Z</time>
      </trkpt>
      <trkpt lat="47.9816" lon="-4.12013">
        <ele>2.4463128931819</ele>
        <time>2022-01-09T13:53:05.172Z</time>
      </trkpt>
      <trkpt lat="47.98276" lon="-4.11938">
        <ele>2.4122025348712</ele>
        <time>2022-01-09T13:53:06.460Z</time>
      </trkpt>
      <trkpt lat="47.98318" lon="-4.11896">
        <ele>2.8437545326015</ele>
        <time>2022-01-09T13:53:07.755Z</time>
      </trkpt>
      <trkpt lat="47.98342" lon="-4.11858">
        <ele>3.3605518670076</ele>
        <time>2022-01-09T13:53:09.054Z</time>
      </trkpt>
      <trkpt lat="47.98346" lon="-4.11849">
        <ele>3.9947524551093</ele>
        <time>2022-01-09T13:53:10.354Z</time>
      </trkpt>
      <trkpt lat="47.98364" lon="-4.11794">
        <ele>4.7546797800618</ele>
        <time>2022-01-09T13:53:11.659Z</time>
      </trkpt>
      <trkpt lat="47.98373" lon="-4.11742">
        <ele>5.7285173920071</ele>
        <time>2022-01-09T13:53:12.969Z</time>
      </trkpt>
      <trkpt lat="47.98394" lon="-4.11566">
        <ele>6.1103596561084</ele>
        <time>2022-01-09T13:53:14.294Z</time>
      </trkpt>
      <trkpt lat="47.98406" lon="-4.11477">
        <ele>8.0474483797133</ele>
        <time>2022-01-09T13:53:15.626Z</time>
      </trkpt>
      <trkpt lat="47.98433" lon="-4.11347">
        <ele>9.7315144166901</ele>
        <time>2022-01-09T13:53:16.970Z</time>
      </trkpt>
      <trkpt lat="47.98431" lon="-4.11313">
        <ele>11.110301011099</ele>
        <time>2022-01-09T13:53:18.317Z</time>
      </trkpt>
      <trkpt lat="47.98428" lon="-4.11302">
        <ele>12.488900901435</ele>
        <time>2022-01-09T13:53:19.665Z</time>
      </trkpt>
      <trkpt lat="47.98419" lon="-4.11281">
        <ele>13.902698618898</ele>
        <time>2022-01-09T13:53:21.015Z</time>
      </trkpt>
      <trkpt lat="47.98359" lon="-4.11178">
        <ele>15.327938104104</ele>
        <time>2022-01-09T13:53:22.376Z</time>
      </trkpt>
      <trkpt lat="47.98324" lon="-4.11127">
        <ele>16.944330609093</ele>
        <time>2022-01-09T13:53:23.743Z</time>
      </trkpt>
      <trkpt lat="47.98288" lon="-4.11086">
        <ele>18.498865713866</ele>
        <time>2022-01-09T13:53:25.116Z</time>
      </trkpt>
      <trkpt lat="47.98177" lon="-4.10986">
        <ele>19.876892680438</ele>
        <time>2022-01-09T13:53:26.505Z</time>
      </trkpt>
      <trkpt lat="47.98078" lon="-4.10891">
        <ele>20.402374858432</ele>
        <time>2022-01-09T13:53:27.909Z</time>
      </trkpt>
      <trkpt lat="47.98058" lon="-4.10867">
        <ele>20.942135661168</ele>
        <time>2022-01-09T13:53:29.316Z</time>
      </trkpt>
      <trkpt lat="47.9804" lon="-4.1084">
        <ele>21.252087348398</ele>
        <time>2022-01-09T13:53:30.726Z</time>
      </trkpt>
      <trkpt lat="47.98028" lon="-4.10817">
        <ele>21.337998893327</ele>
        <time>2022-01-09T13:53:32.139Z</time>
      </trkpt>
      <trkpt lat="47.98003" lon="-4.10757">
        <ele>21.203219322259</ele>
        <time>2022-01-09T13:53:33.558Z</time>
      </trkpt>
      <trkpt lat="47.97987" lon="-4.107">
        <ele>20.78853801965</ele>
        <time>2022-01-09T13:53:34.982Z</time>
      </trkpt>
      <trkpt lat="47.9798" lon="-4.10645">
        <ele>20.222283812399</ele>
        <time>2022-01-09T13:53:36.411Z</time>
      </trkpt>
      <trkpt lat="47.97982" lon="-4.10559">
        <ele>19.133298702061</ele>
        <time>2022-01-09T13:53:37.847Z</time>
      </trkpt>
      <trkpt lat="47.98025" lon="-4.10108">
        <ele>18.81994913772</ele>
        <time>2022-01-09T13:53:39.321Z</time>
      </trkpt>
      <trkpt lat="47.98026" lon="-4.10013">
        <ele>18.165674854314</ele>
        <time>2022-01-09T13:53:40.803Z</time>
      </trkpt>
      <trkpt lat="47.98016" lon="-4.09941">
        <ele>17.801827946616</ele>
        <time>2022-01-09T13:53:42.291Z</time>
      </trkpt>
      <trkpt lat="47.97999" lon="-4.09853">
        <ele>17.034122861237</ele>
        <time>2022-01-09T13:53:43.787Z</time>
      </trkpt>
      <trkpt lat="47.97949" lon="-4.09635">
        <ele>16.744099694241</ele>
        <time>2022-01-09T13:53:45.302Z</time>
      </trkpt>
      <trkpt lat="47.97919" lon="-4.09532">
        <ele>16.478043286256</ele>
        <time>2022-01-09T13:53:46.827Z</time>
      </trkpt>
      <trkpt lat="47.97902" lon="-4.09503">
        <ele>16.628938461861</ele>
        <time>2022-01-09T13:53:48.355Z</time>
      </trkpt>
      <trkpt lat="47.97894" lon="-4.0948">
        <ele>17.008840339794</ele>
        <time>2022-01-09T13:53:49.885Z</time>
      </trkpt>
      <trkpt lat="47.97892" lon="-4.09456">
        <ele>17.808207365992</ele>
        <time>2022-01-09T13:53:51.417Z</time>
      </trkpt>
      <trkpt lat="47.97897" lon="-4.09433">
        <ele>19.104510483018</ele>
        <time>2022-01-09T13:53:52.951Z</time>
      </trkpt>
      <trkpt lat="47.97917" lon="-4.09396">
        <ele>20.954897201621</ele>
        <time>2022-01-09T13:53:54.489Z</time>
      </trkpt>
      <trkpt lat="47.97924" lon="-4.09377">
        <ele>23.104298665951</ele>
        <time>2022-01-09T13:53:56.029Z</time>
      </trkpt>
      <trkpt lat="47.97928" lon="-4.09357">
        <ele>25.548192492673</ele>
        <time>2022-01-09T13:53:57.571Z</time>
      </trkpt>
      <trkpt lat="47.97933" lon="-4.09305">
        <ele>28.572990881303</ele>
        <time>2022-01-09T13:53:59.117Z</time>
      </trkpt>
      <trkpt lat="47.97942" lon="-4.09108">
        <ele>31.897006830306</ele>
        <time>2022-01-09T13:54:00.680Z</time>
      </trkpt>
      <trkpt lat="47.97981" lon="-4.08772">
        <ele>35.54641937616</ele>
        <time>2022-01-09T13:54:02.271Z</time>
      </trkpt>
      <trkpt lat="47.97991" lon="-4.08644">
        <ele>37.821589880669</ele>
        <time>2022-01-09T13:54:03.873Z</time>
      </trkpt>
      <trkpt lat="47.97994" lon="-4.08507">
        <ele>41.11744315402</ele>
        <time>2022-01-09T13:54:05.487Z</time>
      </trkpt>
      <trkpt lat="47.97993" lon="-4.08439">
        <ele>43.671654221703</ele>
        <time>2022-01-09T13:54:07.106Z</time>
      </trkpt>
      <trkpt lat="47.97999" lon="-4.08295">
        <ele>45.045697911296</ele>
        <time>2022-01-09T13:54:08.737Z</time>
      </trkpt>
      <trkpt lat="47.97999" lon="-4.08162">
        <ele>46.905330290362</ele>
        <time>2022-01-09T13:54:10.380Z</time>
      </trkpt>
      <trkpt lat="47.97996" lon="-4.08092">
        <ele>48.942726278634</ele>
        <time>2022-01-09T13:54:12.028Z</time>
      </trkpt>
      <trkpt lat="47.9799" lon="-4.0807">
        <ele>50.380297211527</ele>
        <time>2022-01-09T13:54:13.678Z</time>
      </trkpt>
      <trkpt lat="47.97981" lon="-4.08057">
        <ele>51.551870599954</ele>
        <time>2022-01-09T13:54:15.330Z</time>
      </trkpt>
      <trkpt lat="47.9796" lon="-4.08033">
        <ele>52.57039285543</ele>
        <time>2022-01-09T13:54:16.985Z</time>
      </trkpt>
      <trkpt lat="47.97955" lon="-4.08025">
        <ele>53.321525730304</ele>
        <time>2022-01-09T13:54:18.641Z</time>
      </trkpt>
      <trkpt lat="47.97947" lon="-4.08008">
        <ele>53.979342372386</ele>
        <time>2022-01-09T13:54:20.299Z</time>
      </trkpt>
      <trkpt lat="47.97944" lon="-4.07988">
        <ele>54.384542707303</ele>
        <time>2022-01-09T13:54:21.959Z</time>
      </trkpt>
      <trkpt lat="47.97947" lon="-4.07959">
        <ele>54.541910085222</ele>
        <time>2022-01-09T13:54:23.621Z</time>
      </trkpt>
      <trkpt lat="47.97949" lon="-4.07951">
        <ele>54.603142787615</ele>
        <time>2022-01-09T13:54:25.284Z</time>
      </trkpt>
      <trkpt lat="47.97957" lon="-4.07935">
        <ele>54.51519985799</ele>
        <time>2022-01-09T13:54:26.949Z</time>
      </trkpt>
      <trkpt lat="47.97967" lon="-4.07924">
        <ele>54.552934283733</ele>
        <time>2022-01-09T13:54:28.615Z</time>
      </trkpt>
      <trkpt lat="47.97973" lon="-4.0792">
        <ele>54.635486866094</ele>
        <time>2022-01-09T13:54:30.282Z</time>
      </trkpt>
      <trkpt lat="47.97985" lon="-4.07916">
        <ele>54.762680996479</ele>
        <time>2022-01-09T13:54:31.950Z</time>
      </trkpt>
      <trkpt lat="47.97997" lon="-4.07916">
        <ele>55.044287182099</ele>
        <time>2022-01-09T13:54:33.620Z</time>
      </trkpt>
      <trkpt lat="47.98022" lon="-4.07918">
        <ele>55.496580042283</ele>
        <time>2022-01-09T13:54:35.293Z</time>
      </trkpt>
      <trkpt lat="47.98035" lon="-4.07913">
        <ele>56.050213397014</ele>
        <time>2022-01-09T13:54:36.968Z</time>
      </trkpt>
      <trkpt lat="47.98045" lon="-4.07902">
        <ele>56.71835183163</ele>
        <time>2022-01-09T13:54:38.644Z</time>
      </trkpt>
      <trkpt lat="47.98062" lon="-4.07878">
        <ele>57.525613405052</ele>
        <time>2022-01-09T13:54:40.323Z</time>
      </trkpt>
      <trkpt lat="47.98085" lon="-4.0784">
        <ele>58.383223088009</ele>
        <time>2022-01-09T13:54:42.007Z</time>
      </trkpt>
      <trkpt lat="47.98135" lon="-4.07733">
        <ele>59.331501428569</ele>
        <time>2022-01-09T13:54:43.702Z</time>
      </trkpt>
      <trkpt lat="47.98164" lon="-4.07679">
        <ele>60.421038730842</ele>
        <time>2022-01-09T13:54:45.402Z</time>
      </trkpt>
      <trkpt lat="47.98179" lon="-4.07653">
        <ele>61.449285808044</ele>
        <time>2022-01-09T13:54:47.105Z</time>
      </trkpt>
      <trkpt lat="47.98217" lon="-4.07597">
        <ele>62.402508838916</ele>
        <time>2022-01-09T13:54:48.815Z</time>
      </trkpt>
      <trkpt lat="47.98268" lon="-4.07528">
        <ele>63.28275503426</ele>
        <time>2022-01-09T13:54:50.534Z</time>
      </trkpt>
      <trkpt lat="47.98275" lon="-4.07511">
        <ele>64.18376721824</ele>
        <time>2022-01-09T13:54:52.254Z</time>
      </trkpt>
      <trkpt lat="47.98281" lon="-4.07455">
        <ele>65.020249685583</ele>
        <time>2022-01-09T13:54:53.979Z</time>
      </trkpt>
      <trkpt lat="47.98287" lon="-4.07438">
        <ele>65.836352209576</ele>
        <time>2022-01-09T13:54:55.706Z</time>
      </trkpt>
      <trkpt lat="47.98311" lon="-4.07405">
        <ele>66.632711282559</ele>
        <time>2022-01-09T13:54:57.437Z</time>
      </trkpt>
      <trkpt lat="47.98347" lon="-4.07348">
        <ele>67.326944825839</ele>
        <time>2022-01-09T13:54:59.174Z</time>
      </trkpt>
      <trkpt lat="47.98372" lon="-4.07323">
        <ele>67.848719076034</ele>
        <time>2022-01-09T13:55:00.915Z</time>
      </trkpt>
      <trkpt lat="47.9839" lon="-4.073">
        <ele>68.337890890631</ele>
        <time>2022-01-09T13:55:02.659Z</time>
      </trkpt>
      <trkpt lat="47.98405" lon="-4.07288">
        <ele>68.739848999005</ele>
        <time>2022-01-09T13:55:04.405Z</time>
      </trkpt>
      <trkpt lat="47.98414" lon="-4.07274">
        <ele>69.025606807659</ele>
        <time>2022-01-09T13:55:06.153Z</time>
      </trkpt>
      <trkpt lat="47.98419" lon="-4.07254">
        <ele>69.283713094076</ele>
        <time>2022-01-09T13:55:07.903Z</time>
      </trkpt>
      <trkpt lat="47.98429" lon="-4.07163">
        <ele>69.649912872819</ele>
        <time>2022-01-09T13:55:09.660Z</time>
      </trkpt>
      <trkpt lat="47.98435" lon="-4.07132">
        <ele>69.822128658607</ele>
        <time>2022-01-09T13:55:11.420Z</time>
      </trkpt>
      <trkpt lat="47.98452" lon="-4.07055">
        <ele>69.952743181019</ele>
        <time>2022-01-09T13:55:13.187Z</time>
      </trkpt>
      <trkpt lat="47.98484" lon="-4.06937">
        <ele>69.814203793581</ele>
        <time>2022-01-09T13:55:14.964Z</time>
      </trkpt>
      <trkpt lat="47.98503" lon="-4.06884">
        <ele>69.754986775699</ele>
        <time>2022-01-09T13:55:16.747Z</time>
      </trkpt>
      <trkpt lat="47.98538" lon="-4.06812">
        <ele>69.545376460809</ele>
        <time>2022-01-09T13:55:18.537Z</time>
      </trkpt>
      <trkpt lat="47.98563" lon="-4.06763">
        <ele>69.99649412789</ele>
        <time>2022-01-09T13:55:20.332Z</time>
      </trkpt>
      <trkpt lat="47.98573" lon="-4.0673">
        <ele>70.282468314223</ele>
        <time>2022-01-09T13:55:22.130Z</time>
      </trkpt>
      <trkpt lat="47.98584" lon="-4.06663">
        <ele>70.647738310493</ele>
        <time>2022-01-09T13:55:23.934Z</time>
      </trkpt>
      <trkpt lat="47.98587" lon="-4.0663">
        <ele>71.250310206677</ele>
        <time>2022-01-09T13:55:25.741Z</time>
      </trkpt>
      <trkpt lat="47.98587" lon="-4.06577">
        <ele>72.163832005172</ele>
        <time>2022-01-09T13:55:27.552Z</time>
      </trkpt>
      <trkpt lat="47.98585" lon="-4.06537">
        <ele>73.13909981254</ele>
        <time>2022-01-09T13:55:29.367Z</time>
      </trkpt>
      <trkpt lat="47.98574" lon="-4.06449">
        <ele>74.103125293264</ele>
        <time>2022-01-09T13:55:31.189Z</time>
      </trkpt>
      <trkpt lat="47.98556" lon="-4.06241">
        <ele>75.316762438251</ele>
        <time>2022-01-09T13:55:33.029Z</time>
      </trkpt>
      <trkpt lat="47.98543" lon="-4.06172">
        <ele>76.505647812191</ele>
        <time>2022-01-09T13:55:34.875Z</time>
      </trkpt>
      <trkpt lat="47.98534" lon="-4.06131">
        <ele>77.561921941695</ele>
        <time>2022-01-09T13:55:36.724Z</time>
      </trkpt>
      <trkpt lat="47.98524" lon="-4.06099">
        <ele>78.527079668193</ele>
        <time>2022-01-09T13:55:38.576Z</time>
      </trkpt>
      <trkpt lat="47.98485" lon="-4.05985">
        <ele>79.398897384949</ele>
        <time>2022-01-09T13:55:40.439Z</time>
      </trkpt>
      <trkpt lat="47.98456" lon="-4.05908">
        <ele>79.944069970477</ele>
        <time>2022-01-09T13:55:42.310Z</time>
      </trkpt>
      <trkpt lat="47.98438" lon="-4.05852">
        <ele>80.397514517367</ele>
        <time>2022-01-09T13:55:44.186Z</time>
      </trkpt>
      <trkpt lat="47.98372" lon="-4.05605">
        <ele>80.54944238401</ele>
        <time>2022-01-09T13:55:46.084Z</time>
      </trkpt>
      <trkpt lat="47.98362" lon="-4.0556">
        <ele>80.84942805914</ele>
        <time>2022-01-09T13:55:47.986Z</time>
      </trkpt>
      <trkpt lat="47.98355" lon="-4.05519">
        <ele>81.012606011477</ele>
        <time>2022-01-09T13:55:49.892Z</time>
      </trkpt>
      <trkpt lat="47.98347" lon="-4.05439">
        <ele>81.100654047477</ele>
        <time>2022-01-09T13:55:51.804Z</time>
      </trkpt>
      <trkpt lat="47.98341" lon="-4.05053">
        <ele>81.050936768141</ele>
        <time>2022-01-09T13:55:53.749Z</time>
      </trkpt>
      <trkpt lat="47.98338" lon="-4.04971">
        <ele>80.60478140105</ele>
        <time>2022-01-09T13:55:55.701Z</time>
      </trkpt>
      <trkpt lat="47.98334" lon="-4.04931">
        <ele>79.844655246663</ele>
        <time>2022-01-09T13:55:57.656Z</time>
      </trkpt>
      <trkpt lat="47.98335" lon="-4.04793">
        <ele>78.771587743579</ele>
        <time>2022-01-09T13:55:59.623Z</time>
      </trkpt>
      <trkpt lat="47.98347" lon="-4.04655">
        <ele>77.295166556029</ele>
        <time>2022-01-09T13:56:01.601Z</time>
      </trkpt>
      <trkpt lat="47.98348" lon="-4.04594">
        <ele>76.031278970455</ele>
        <time>2022-01-09T13:56:03.585Z</time>
      </trkpt>
      <trkpt lat="47.98344" lon="-4.04563">
        <ele>74.787923327179</ele>
        <time>2022-01-09T13:56:05.571Z</time>
      </trkpt>
      <trkpt lat="47.98311" lon="-4.04464">
        <ele>73.414370624874</ele>
        <time>2022-01-09T13:56:07.566Z</time>
      </trkpt>
      <trkpt lat="47.98297" lon="-4.04406">
        <ele>72.263933744352</ele>
        <time>2022-01-09T13:56:09.567Z</time>
      </trkpt>
      <trkpt lat="47.98286" lon="-4.04347">
        <ele>71.167801953144</ele>
        <time>2022-01-09T13:56:11.573Z</time>
      </trkpt>
      <trkpt lat="47.98276" lon="-4.04279">
        <ele>70.163739354071</ele>
        <time>2022-01-09T13:56:13.585Z</time>
      </trkpt>
      <trkpt lat="47.98242" lon="-4.04101">
        <ele>69.383652335973</ele>
        <time>2022-01-09T13:56:15.612Z</time>
      </trkpt>
      <trkpt lat="47.98233" lon="-4.04024">
        <ele>68.676600255443</ele>
        <time>2022-01-09T13:56:17.646Z</time>
      </trkpt>
      <trkpt lat="47.9822" lon="-4.03949">
        <ele>67.761143317831</ele>
        <time>2022-01-09T13:56:19.686Z</time>
      </trkpt>
      <trkpt lat="47.98216" lon="-4.03914">
        <ele>66.744475089316</ele>
        <time>2022-01-09T13:56:21.729Z</time>
      </trkpt>
      <trkpt lat="47.98209" lon="-4.03736">
        <ele>65.365496661185</ele>
        <time>2022-01-09T13:56:23.787Z</time>
      </trkpt>
      <trkpt lat="47.98201" lon="-4.03662">
        <ele>64.478591020388</ele>
        <time>2022-01-09T13:56:25.851Z</time>
      </trkpt>
      <trkpt lat="47.98182" lon="-4.03561">
        <ele>63.936700685275</ele>
        <time>2022-01-09T13:56:27.924Z</time>
      </trkpt>
      <trkpt lat="47.98167" lon="-4.03505">
        <ele>63.339453963675</ele>
        <time>2022-01-09T13:56:30.002Z</time>
      </trkpt>
      <trkpt lat="47.98156" lon="-4.03489">
        <ele>62.72176385163</ele>
        <time>2022-01-09T13:56:32.082Z</time>
      </trkpt>
      <trkpt lat="47.98139" lon="-4.03486">
        <ele>62.296111779214</ele>
        <time>2022-01-09T13:56:34.164Z</time>
      </trkpt>
      <trkpt lat="47.98122" lon="-4.03486">
        <ele>62.008168162944</ele>
        <time>2022-01-09T13:56:36.248Z</time>
      </trkpt>
      <trkpt lat="47.98106" lon="-4.03478">
        <ele>61.804447442616</ele>
        <time>2022-01-09T13:56:38.335Z</time>
      </trkpt>
      <trkpt lat="47.981" lon="-4.03471">
        <ele>61.807705716963</ele>
        <time>2022-01-09T13:56:40.423Z</time>
      </trkpt>
      <trkpt lat="47.98094" lon="-4.03462">
        <ele>61.953570041422</ele>
        <time>2022-01-09T13:56:42.512Z</time>
      </trkpt>
      <trkpt lat="47.98087" lon="-4.03442">
        <ele>62.268405169699</ele>
        <time>2022-01-09T13:56:44.603Z</time>
      </trkpt>
      <trkpt lat="47.98086" lon="-4.03419">
        <ele>62.798640196122</ele>
        <time>2022-01-09T13:56:46.695Z</time>
      </trkpt>
      <trkpt lat="47.98091" lon="-4.03398">
        <ele>63.463830406171</ele>
        <time>2022-01-09T13:56:48.789Z</time>
      </trkpt>
      <trkpt lat="47.98095" lon="-4.03388">
        <ele>64.209196345789</ele>
        <time>2022-01-09T13:56:50.884Z</time>
      </trkpt>
      <trkpt lat="47.98114" lon="-4.03356">
        <ele>65.095561790165</ele>
        <time>2022-01-09T13:56:52.983Z</time>
      </trkpt>
      <trkpt lat="47.98118" lon="-4.03336">
        <ele>66.164359067796</ele>
        <time>2022-01-09T13:56:55.084Z</time>
      </trkpt>
      <trkpt lat="47.98121" lon="-4.03198">
        <ele>67.459385347654</ele>
        <time>2022-01-09T13:56:57.196Z</time>
      </trkpt>
      <trkpt lat="47.9812" lon="-4.03066">
        <ele>68.744253990348</ele>
        <time>2022-01-09T13:56:59.319Z</time>
      </trkpt>
      <trkpt lat="47.98114" lon="-4.02951">
        <ele>69.997556498312</ele>
        <time>2022-01-09T13:57:01.452Z</time>
      </trkpt>
      <trkpt lat="47.98102" lon="-4.02793">
        <ele>72.106779781653</ele>
        <time>2022-01-09T13:57:03.598Z</time>
      </trkpt>
      <trkpt lat="47.981" lon="-4.02682">
        <ele>74.341847798072</ele>
        <time>2022-01-09T13:57:05.754Z</time>
      </trkpt>
      <trkpt lat="47.98098" lon="-4.02665">
        <ele>76.315886417149</ele>
        <time>2022-01-09T13:57:07.911Z</time>
      </trkpt>
      <trkpt lat="47.9809" lon="-4.02642">
        <ele>78.343738680387</ele>
        <time>2022-01-09T13:57:10.070Z</time>
      </trkpt>
      <trkpt lat="47.98087" lon="-4.02626">
        <ele>80.357372844068</ele>
        <time>2022-01-09T13:57:12.231Z</time>
      </trkpt>
      <trkpt lat="47.98094" lon="-4.02582">
        <ele>82.390948919627</ele>
        <time>2022-01-09T13:57:14.395Z</time>
      </trkpt>
      <trkpt lat="47.98094" lon="-4.02564">
        <ele>84.234631991963</ele>
        <time>2022-01-09T13:57:16.561Z</time>
      </trkpt>
      <trkpt lat="47.98059" lon="-4.01907">
        <ele>87.087537076062</ele>
        <time>2022-01-09T13:57:18.782Z</time>
      </trkpt>
      <trkpt lat="47.98051" lon="-4.01822">
        <ele>88.58986712819</ele>
        <time>2022-01-09T13:57:21.011Z</time>
      </trkpt>
      <trkpt lat="47.9804" lon="-4.01757">
        <ele>90.006615470974</ele>
        <time>2022-01-09T13:57:23.245Z</time>
      </trkpt>
      <trkpt lat="47.98019" lon="-4.01692">
        <ele>90.989737956806</ele>
        <time>2022-01-09T13:57:25.485Z</time>
      </trkpt>
      <trkpt lat="47.97986" lon="-4.01617">
        <ele>91.813864640266</ele>
        <time>2022-01-09T13:57:27.733Z</time>
      </trkpt>
      <trkpt lat="47.97972" lon="-4.01602">
        <ele>92.391158223756</ele>
        <time>2022-01-09T13:57:29.983Z</time>
      </trkpt>
      <trkpt lat="47.97955" lon="-4.01592">
        <ele>92.766922260991</ele>
        <time>2022-01-09T13:57:32.235Z</time>
      </trkpt>
      <trkpt lat="47.97928" lon="-4.01584">
        <ele>92.948563627298</ele>
        <time>2022-01-09T13:57:34.491Z</time>
      </trkpt>
      <trkpt lat="47.97912" lon="-4.01584">
        <ele>92.939096760937</ele>
        <time>2022-01-09T13:57:36.749Z</time>
      </trkpt>
      <trkpt lat="47.97905" lon="-4.01587">
        <ele>92.812714695068</ele>
        <time>2022-01-09T13:57:39.008Z</time>
      </trkpt>
      <trkpt lat="47.97898" lon="-4.01592">
        <ele>92.546695648637</ele>
        <time>2022-01-09T13:57:41.268Z</time>
      </trkpt>
      <trkpt lat="47.97872" lon="-4.01622">
        <ele>92.236137525016</ele>
        <time>2022-01-09T13:57:43.532Z</time>
      </trkpt>
      <trkpt lat="47.97856" lon="-4.0163">
        <ele>91.751885584806</ele>
        <time>2022-01-09T13:57:45.798Z</time>
      </trkpt>
      <trkpt lat="47.97839" lon="-4.01629">
        <ele>91.141648600097</ele>
        <time>2022-01-09T13:57:48.066Z</time>
      </trkpt>
      <trkpt lat="47.97831" lon="-4.01624">
        <ele>90.452728814048</ele>
        <time>2022-01-09T13:57:50.335Z</time>
      </trkpt>
      <trkpt lat="47.97823" lon="-4.01617">
        <ele>89.698859023501</ele>
        <time>2022-01-09T13:57:52.605Z</time>
      </trkpt>
      <trkpt lat="47.97812" lon="-4.01596">
        <ele>88.88624955647</ele>
        <time>2022-01-09T13:57:54.877Z</time>
      </trkpt>
      <trkpt lat="47.97807" lon="-4.01571">
        <ele>88.105654115781</ele>
        <time>2022-01-09T13:57:57.152Z</time>
      </trkpt>
      <trkpt lat="47.97808" lon="-4.01557">
        <ele>87.394387598177</ele>
        <time>2022-01-09T13:57:59.428Z</time>
      </trkpt>
      <trkpt lat="47.9781" lon="-4.01544">
        <ele>86.70175793867</ele>
        <time>2022-01-09T13:58:01.705Z</time>
      </trkpt>
      <trkpt lat="47.9782" lon="-4.01519">
        <ele>85.960025668738</ele>
        <time>2022-01-09T13:58:03.984Z</time>
      </trkpt>
      <trkpt lat="47.97832" lon="-4.01498">
        <ele>85.341386650333</ele>
        <time>2022-01-09T13:58:06.266Z</time>
      </trkpt>
      <trkpt lat="47.97838" lon="-4.01474">
        <ele>84.876131728406</ele>
        <time>2022-01-09T13:58:08.550Z</time>
      </trkpt>
      <trkpt lat="47.9784" lon="-4.01448">
        <ele>84.547684366841</ele>
        <time>2022-01-09T13:58:10.836Z</time>
      </trkpt>
      <trkpt lat="47.97839" lon="-4.01423">
        <ele>84.432272239994</ele>
        <time>2022-01-09T13:58:13.124Z</time>
      </trkpt>
      <trkpt lat="47.97832" lon="-4.01372">
        <ele>84.579607645246</ele>
        <time>2022-01-09T13:58:15.416Z</time>
      </trkpt>
      <trkpt lat="47.97809" lon="-4.0125">
        <ele>84.84295970029</ele>
        <time>2022-01-09T13:58:17.719Z</time>
      </trkpt>
      <trkpt lat="47.978" lon="-4.01191">
        <ele>85.201314567311</ele>
        <time>2022-01-09T13:58:20.027Z</time>
      </trkpt>
      <trkpt lat="47.97773" lon="-4.00952">
        <ele>86.466654424773</ele>
        <time>2022-01-09T13:58:22.355Z</time>
      </trkpt>
      <trkpt lat="47.97721" lon="-4.0074">
        <ele>86.955065720142</ele>
        <time>2022-01-09T13:58:24.702Z</time>
      </trkpt>
      <trkpt lat="47.97677" lon="-4.00577">
        <ele>87.611728597063</ele>
        <time>2022-01-09T13:58:27.064Z</time>
      </trkpt>
      <trkpt lat="47.97639" lon="-4.00421">
        <ele>87.997985640756</ele>
        <time>2022-01-09T13:58:29.440Z</time>
      </trkpt>
      <trkpt lat="47.97615" lon="-4.00311">
        <ele>88.895402840578</ele>
        <time>2022-01-09T13:58:31.826Z</time>
      </trkpt>
      <trkpt lat="47.97578" lon="-4.00114">
        <ele>89.715878131385</ele>
        <time>2022-01-09T13:58:34.229Z</time>
      </trkpt>
      <trkpt lat="47.97558" lon="-4.00046">
        <ele>90.252416490942</ele>
        <time>2022-01-09T13:58:36.638Z</time>
      </trkpt>
      <trkpt lat="47.97553" lon="-4.00036">
        <ele>90.702981339295</ele>
        <time>2022-01-09T13:58:39.048Z</time>
      </trkpt>
      <trkpt lat="47.9754" lon="-4.00022">
        <ele>91.073283262619</ele>
        <time>2022-01-09T13:58:41.460Z</time>
      </trkpt>
      <trkpt lat="47.97527" lon="-4.00012">
        <ele>91.407259042048</ele>
        <time>2022-01-09T13:58:43.874Z</time>
      </trkpt>
      <trkpt lat="47.97523" lon="-4.00005">
        <ele>91.61772658279</ele>
        <time>2022-01-09T13:58:46.289Z</time>
      </trkpt>
      <trkpt lat="47.97521" lon="-3.99995">
        <ele>91.633346526309</ele>
        <time>2022-01-09T13:58:48.705Z</time>
      </trkpt>
      <trkpt lat="47.97529" lon="-3.9995">
        <ele>91.439385928742</ele>
        <time>2022-01-09T13:58:51.125Z</time>
      </trkpt>
      <trkpt lat="47.97529" lon="-3.99936">
        <ele>91.273123530111</ele>
        <time>2022-01-09T13:58:53.546Z</time>
      </trkpt>
      <trkpt lat="47.97523" lon="-3.99864">
        <ele>90.85015596606</ele>
        <time>2022-01-09T13:58:55.973Z</time>
      </trkpt>
      <trkpt lat="47.97517" lon="-3.99823">
        <ele>90.497803998523</ele>
        <time>2022-01-09T13:58:58.404Z</time>
      </trkpt>
      <trkpt lat="47.97307" lon="-3.98974">
        <ele>90.152695430395</ele>
        <time>2022-01-09T13:59:00.911Z</time>
      </trkpt>
      <trkpt lat="47.97161" lon="-3.98437">
        <ele>89.992927825785</ele>
        <time>2022-01-09T13:59:03.466Z</time>
      </trkpt>
      <trkpt lat="47.97147" lon="-3.98384">
        <ele>89.703200330382</ele>
        <time>2022-01-09T13:59:06.026Z</time>
      </trkpt>
      <trkpt lat="47.97134" lon="-3.98321">
        <ele>89.185241834702</ele>
        <time>2022-01-09T13:59:08.592Z</time>
      </trkpt>
      <trkpt lat="47.97123" lon="-3.98239">
        <ele>88.435403774753</ele>
        <time>2022-01-09T13:59:11.165Z</time>
      </trkpt>
      <trkpt lat="47.97114" lon="-3.98151">
        <ele>87.58680615993</ele>
        <time>2022-01-09T13:59:13.745Z</time>
      </trkpt>
      <trkpt lat="47.97113" lon="-3.98098">
        <ele>87.010779504086</ele>
        <time>2022-01-09T13:59:16.329Z</time>
      </trkpt>
      <trkpt lat="47.97114" lon="-3.97897">
        <ele>86.629648930207</ele>
        <time>2022-01-09T13:59:18.930Z</time>
      </trkpt>
      <trkpt lat="47.97112" lon="-3.97854">
        <ele>86.388194185275</ele>
        <time>2022-01-09T13:59:21.535Z</time>
      </trkpt>
      <trkpt lat="47.9711" lon="-3.97827">
        <ele>86.254298057264</ele>
        <time>2022-01-09T13:59:24.142Z</time>
      </trkpt>
      <trkpt lat="47.97106" lon="-3.97799">
        <ele>86.222038886249</ele>
        <time>2022-01-09T13:59:26.752Z</time>
      </trkpt>
      <trkpt lat="47.97064" lon="-3.97555">
        <ele>86.645786985859</ele>
        <time>2022-01-09T13:59:29.383Z</time>
      </trkpt>
      <trkpt lat="47.9705" lon="-3.97465">
        <ele>87.288062815407</ele>
        <time>2022-01-09T13:59:32.022Z</time>
      </trkpt>
      <trkpt lat="47.97028" lon="-3.97298">
        <ele>89.190625384022</ele>
        <time>2022-01-09T13:59:34.675Z</time>
      </trkpt>
      <trkpt lat="47.9702" lon="-3.97215">
        <ele>90.697334616452</ele>
        <time>2022-01-09T13:59:37.335Z</time>
      </trkpt>
      <trkpt lat="47.97018" lon="-3.97147">
        <ele>92.313672776113</ele>
        <time>2022-01-09T13:59:40.001Z</time>
      </trkpt>
      <trkpt lat="47.97019" lon="-3.9689">
        <ele>94.194516196469</ele>
        <time>2022-01-09T13:59:42.688Z</time>
      </trkpt>
      <trkpt lat="47.97017" lon="-3.96757">
        <ele>95.799936825736</ele>
        <time>2022-01-09T13:59:45.386Z</time>
      </trkpt>
      <trkpt lat="47.97001" lon="-3.96594">
        <ele>97.891057247458</ele>
        <time>2022-01-09T13:59:48.098Z</time>
      </trkpt>
      <trkpt lat="47.96977" lon="-3.96442">
        <ele>99.891100092363</ele>
        <time>2022-01-09T13:59:50.823Z</time>
      </trkpt>
      <trkpt lat="47.96968" lon="-3.9636">
        <ele>101.77213732574</ele>
        <time>2022-01-09T13:59:53.555Z</time>
      </trkpt>
      <trkpt lat="47.96976" lon="-3.95825">
        <ele>104.69995951427</ele>
        <time>2022-01-09T13:59:56.332Z</time>
      </trkpt>
      <trkpt lat="47.96972" lon="-3.95735">
        <ele>107.02607813185</ele>
        <time>2022-01-09T13:59:59.117Z</time>
      </trkpt>
      <trkpt lat="47.96928" lon="-3.95382">
        <ele>109.5755148137</ele>
        <time>2022-01-09T14:00:01.932Z</time>
      </trkpt>
      <trkpt lat="47.96922" lon="-3.95352">
        <ele>111.65224530217</ele>
        <time>2022-01-09T14:00:04.750Z</time>
      </trkpt>
      <trkpt lat="47.96908" lon="-3.95305">
        <ele>113.72757896109</ele>
        <time>2022-01-09T14:00:07.572Z</time>
      </trkpt>
      <trkpt lat="47.96901" lon="-3.95287">
        <ele>115.54761754798</ele>
        <time>2022-01-09T14:00:10.396Z</time>
      </trkpt>
      <trkpt lat="47.96882" lon="-3.95246">
        <ele>117.15426953867</ele>
        <time>2022-01-09T14:00:13.224Z</time>
      </trkpt>
      <trkpt lat="47.96839" lon="-3.95166">
        <ele>118.59722564949</ele>
        <time>2022-01-09T14:00:16.060Z</time>
      </trkpt>
      <trkpt lat="47.96806" lon="-3.95095">
        <ele>119.75133357668</ele>
        <time>2022-01-09T14:00:18.904Z</time>
      </trkpt>
      <trkpt lat="47.96786" lon="-3.95031">
        <ele>120.80976366811</ele>
        <time>2022-01-09T14:00:21.754Z</time>
      </trkpt>
      <trkpt lat="47.96776" lon="-3.94964">
        <ele>121.72944129623</ele>
        <time>2022-01-09T14:00:24.609Z</time>
      </trkpt>
      <trkpt lat="47.96775" lon="-3.94953">
        <ele>122.28091982511</ele>
        <time>2022-01-09T14:00:27.465Z</time>
      </trkpt>
      <trkpt lat="47.96774" lon="-3.94879">
        <ele>122.79777455731</ele>
        <time>2022-01-09T14:00:30.328Z</time>
      </trkpt>
      <trkpt lat="47.96776" lon="-3.94776">
        <ele>123.13635772041</ele>
        <time>2022-01-09T14:00:33.199Z</time>
      </trkpt>
      <trkpt lat="47.96772" lon="-3.94722">
        <ele>123.07170657598</ele>
        <time>2022-01-09T14:00:36.075Z</time>
      </trkpt>
      <trkpt lat="47.96706" lon="-3.94283">
        <ele>121.81504820801</ele>
        <time>2022-01-09T14:00:38.989Z</time>
      </trkpt>
      <trkpt lat="47.96705" lon="-3.94241">
        <ele>121.7383429653</ele>
        <time>2022-01-09T14:00:41.906Z</time>
      </trkpt>
      <trkpt lat="47.96706" lon="-3.94228">
        <ele>121.57932100651</ele>
        <time>2022-01-09T14:00:44.824Z</time>
      </trkpt>
      <trkpt lat="47.96721" lon="-3.94135">
        <ele>121.74484919572</ele>
        <time>2022-01-09T14:00:47.750Z</time>
      </trkpt>
      <trkpt lat="47.96737" lon="-3.94077">
        <ele>121.49003801073</ele>
        <time>2022-01-09T14:00:50.682Z</time>
      </trkpt>
      <trkpt lat="47.96739" lon="-3.94057">
        <ele>121.24649870707</ele>
        <time>2022-01-09T14:00:53.615Z</time>
      </trkpt>
      <trkpt lat="47.96738" lon="-3.94034">
        <ele>121.03064260612</ele>
        <time>2022-01-09T14:00:56.550Z</time>
      </trkpt>
      <trkpt lat="47.96741" lon="-3.9401">
        <ele>120.78105384981</ele>
        <time>2022-01-09T14:00:59.487Z</time>
      </trkpt>
      <trkpt lat="47.96768" lon="-3.93796">
        <ele>120.4837145963</ele>
        <time>2022-01-09T14:01:02.442Z</time>
      </trkpt>
      <trkpt lat="47.96766" lon="-3.9373">
        <ele>120.42030592543</ele>
        <time>2022-01-09T14:01:05.403Z</time>
      </trkpt>
      <trkpt lat="47.9675" lon="-3.93509">
        <ele>120.50120015152</ele>
        <time>2022-01-09T14:01:08.383Z</time>
      </trkpt>
      <trkpt lat="47.96741" lon="-3.93328">
        <ele>119.94167134208</ele>
        <time>2022-01-09T14:01:11.378Z</time>
      </trkpt>
      <trkpt lat="47.96725" lon="-3.93063">
        <ele>120.22741051038</ele>
        <time>2022-01-09T14:01:14.395Z</time>
      </trkpt>
      <trkpt lat="47.96719" lon="-3.92923">
        <ele>121.08033650513</ele>
        <time>2022-01-09T14:01:17.424Z</time>
      </trkpt>
      <trkpt lat="47.96714" lon="-3.92876">
        <ele>121.23521120724</ele>
        <time>2022-01-09T14:01:20.457Z</time>
      </trkpt>
      <trkpt lat="47.967" lon="-3.92821">
        <ele>121.1902166953</ele>
        <time>2022-01-09T14:01:23.495Z</time>
      </trkpt>
      <trkpt lat="47.96593" lon="-3.9255">
        <ele>121.2285429551</ele>
        <time>2022-01-09T14:01:26.559Z</time>
      </trkpt>
      <trkpt lat="47.96569" lon="-3.92457">
        <ele>120.93443741637</ele>
        <time>2022-01-09T14:01:29.632Z</time>
      </trkpt>
      <trkpt lat="47.96563" lon="-3.92418">
        <ele>120.52949652384</ele>
        <time>2022-01-09T14:01:32.708Z</time>
      </trkpt>
      <trkpt lat="47.9656" lon="-3.92378">
        <ele>120.12598453506</ele>
        <time>2022-01-09T14:01:35.788Z</time>
      </trkpt>
      <trkpt lat="47.96561" lon="-3.92308">
        <ele>119.48126998408</ele>
        <time>2022-01-09T14:01:38.873Z</time>
      </trkpt>
      <trkpt lat="47.96604" lon="-3.91902">
        <ele>118.60485345092</ele>
        <time>2022-01-09T14:01:41.993Z</time>
      </trkpt>
      <trkpt lat="47.96622" lon="-3.91666">
        <ele>117.2803544474</ele>
        <time>2022-01-09T14:01:45.133Z</time>
      </trkpt>
      <trkpt lat="47.96627" lon="-3.91623">
        <ele>116.09976389839</ele>
        <time>2022-01-09T14:01:48.277Z</time>
      </trkpt>
      <trkpt lat="47.96644" lon="-3.91502">
        <ele>114.81068723618</ele>
        <time>2022-01-09T14:01:51.431Z</time>
      </trkpt>
      <trkpt lat="47.96658" lon="-3.91438">
        <ele>113.51798504228</ele>
        <time>2022-01-09T14:01:54.591Z</time>
      </trkpt>
      <trkpt lat="47.96674" lon="-3.91392">
        <ele>112.03621935754</ele>
        <time>2022-01-09T14:01:57.755Z</time>
      </trkpt>
      <trkpt lat="47.96763" lon="-3.91167">
        <ele>110.2784024374</ele>
        <time>2022-01-09T14:02:00.941Z</time>
      </trkpt>
      <trkpt lat="47.96781" lon="-3.91116">
        <ele>108.29092119736</ele>
        <time>2022-01-09T14:02:04.132Z</time>
      </trkpt>
      <trkpt lat="47.96798" lon="-3.9106">
        <ele>106.28274252887</ele>
        <time>2022-01-09T14:02:07.328Z</time>
      </trkpt>
      <trkpt lat="47.96809" lon="-3.90997">
        <ele>104.00114745312</ele>
        <time>2022-01-09T14:02:10.529Z</time>
      </trkpt>
      <trkpt lat="47.9686" lon="-3.90615">
        <ele>102.58562392569</ele>
        <time>2022-01-09T14:02:13.763Z</time>
      </trkpt>
      <trkpt lat="47.96883" lon="-3.90431">
        <ele>100.09471927615</ele>
        <time>2022-01-09T14:02:17.013Z</time>
      </trkpt>
      <trkpt lat="47.9692" lon="-3.90035">
        <ele>97.132855220686</ele>
        <time>2022-01-09T14:02:20.296Z</time>
      </trkpt>
      <trkpt lat="47.96925" lon="-3.89966">
        <ele>96.032369067608</ele>
        <time>2022-01-09T14:02:23.585Z</time>
      </trkpt>
      <trkpt lat="47.96925" lon="-3.89901">
        <ele>95.16981000566</ele>
        <time>2022-01-09T14:02:26.880Z</time>
      </trkpt>
      <trkpt lat="47.96915" lon="-3.89826">
        <ele>94.412737916015</ele>
        <time>2022-01-09T14:02:30.181Z</time>
      </trkpt>
      <trkpt lat="47.96899" lon="-3.89768">
        <ele>93.79710461541</ele>
        <time>2022-01-09T14:02:33.487Z</time>
      </trkpt>
      <trkpt lat="47.96879" lon="-3.89712">
        <ele>93.568747251995</ele>
        <time>2022-01-09T14:02:36.799Z</time>
      </trkpt>
      <trkpt lat="47.96834" lon="-3.89604">
        <ele>93.379801953666</ele>
        <time>2022-01-09T14:02:40.121Z</time>
      </trkpt>
      <trkpt lat="47.96822" lon="-3.89572">
        <ele>93.599204706314</ele>
        <time>2022-01-09T14:02:43.447Z</time>
      </trkpt>
      <trkpt lat="47.96799" lon="-3.89489">
        <ele>94.180298277292</ele>
        <time>2022-01-09T14:02:46.780Z</time>
      </trkpt>
      <trkpt lat="47.96788" lon="-3.89415">
        <ele>95.315903117542</ele>
        <time>2022-01-09T14:02:50.119Z</time>
      </trkpt>
      <trkpt lat="47.96764" lon="-3.89191">
        <ele>97.456352711392</ele>
        <time>2022-01-09T14:02:53.477Z</time>
      </trkpt>
      <trkpt lat="47.96761" lon="-3.89147">
        <ele>99.095227251606</ele>
        <time>2022-01-09T14:02:56.839Z</time>
      </trkpt>
      <trkpt lat="47.96763" lon="-3.89024">
        <ele>101.19579837213</ele>
        <time>2022-01-09T14:03:00.211Z</time>
      </trkpt>
      <trkpt lat="47.96773" lon="-3.88816">
        <ele>102.97352594896</ele>
        <time>2022-01-09T14:03:03.601Z</time>
      </trkpt>
      <trkpt lat="47.96779" lon="-3.88725">
        <ele>104.71489954137</ele>
        <time>2022-01-09T14:03:06.999Z</time>
      </trkpt>
      <trkpt lat="47.96792" lon="-3.88608">
        <ele>106.7465114967</ele>
        <time>2022-01-09T14:03:10.407Z</time>
      </trkpt>
      <trkpt lat="47.9681" lon="-3.88482">
        <ele>108.95339122119</ele>
        <time>2022-01-09T14:03:13.825Z</time>
      </trkpt>
      <trkpt lat="47.96815" lon="-3.88426">
        <ele>111.02785823656</ele>
        <time>2022-01-09T14:03:17.248Z</time>
      </trkpt>
      <trkpt lat="47.96819" lon="-3.88314">
        <ele>112.94153647606</ele>
        <time>2022-01-09T14:03:20.681Z</time>
      </trkpt>
      <trkpt lat="47.96824" lon="-3.88074">
        <ele>115.07574811751</ele>
        <time>2022-01-09T14:03:24.134Z</time>
      </trkpt>
      <trkpt lat="47.96824" lon="-3.88049">
        <ele>116.82755004551</ele>
        <time>2022-01-09T14:03:27.589Z</time>
      </trkpt>
      <trkpt lat="47.96818" lon="-3.87964">
        <ele>118.24583739247</ele>
        <time>2022-01-09T14:03:31.051Z</time>
      </trkpt>
      <trkpt lat="47.96788" lon="-3.87662">
        <ele>119.9341318038</ele>
        <time>2022-01-09T14:03:34.539Z</time>
      </trkpt>
      <trkpt lat="47.96758" lon="-3.87461">
        <ele>121.72353160392</ele>
        <time>2022-01-09T14:03:38.044Z</time>
      </trkpt>
      <trkpt lat="47.96713" lon="-3.87194">
        <ele>123.19970679788</ele>
        <time>2022-01-09T14:03:41.572Z</time>
      </trkpt>
      <trkpt lat="47.96695" lon="-3.87096">
        <ele>124.02686236777</ele>
        <time>2022-01-09T14:03:45.109Z</time>
      </trkpt>
      <trkpt lat="47.96619" lon="-3.86585">
        <ele>124.77163770748</ele>
        <time>2022-01-09T14:03:48.690Z</time>
      </trkpt>
      <trkpt lat="47.96591" lon="-3.86366">
        <ele>124.88195084151</ele>
        <time>2022-01-09T14:03:52.289Z</time>
      </trkpt>
      <trkpt lat="47.9658" lon="-3.86251">
        <ele>125.07666265321</ele>
        <time>2022-01-09T14:03:55.898Z</time>
      </trkpt>
      <trkpt lat="47.96549" lon="-3.85809">
        <ele>125.19448299413</ele>
        <time>2022-01-09T14:03:59.544Z</time>
      </trkpt>
      <trkpt lat="47.96543" lon="-3.85744">
        <ele>125.23825467655</ele>
        <time>2022-01-09T14:04:03.196Z</time>
      </trkpt>
      <trkpt lat="47.96539" lon="-3.85719">
        <ele>125.14840090137</ele>
        <time>2022-01-09T14:04:06.850Z</time>
      </trkpt>
      <trkpt lat="47.96519" lon="-3.85634">
        <ele>124.86613008479</ele>
        <time>2022-01-09T14:04:10.512Z</time>
      </trkpt>
      <trkpt lat="47.96494" lon="-3.85541">
        <ele>124.60882985106</ele>
        <time>2022-01-09T14:04:14.182Z</time>
      </trkpt>
      <trkpt lat="47.96474" lon="-3.85455">
        <ele>124.30908824502</ele>
        <time>2022-01-09T14:04:17.860Z</time>
      </trkpt>
      <trkpt lat="47.96461" lon="-3.85379">
        <ele>123.87510984002</ele>
        <time>2022-01-09T14:04:21.544Z</time>
      </trkpt>
      <trkpt lat="47.96423" lon="-3.85121">
        <ele>123.47311610988</ele>
        <time>2022-01-09T14:04:25.251Z</time>
      </trkpt>
      <trkpt lat="47.96412" lon="-3.85067">
        <ele>122.95342863591</ele>
        <time>2022-01-09T14:04:28.962Z</time>
      </trkpt>
      <trkpt lat="47.96413" lon="-3.8502">
        <ele>122.38231133826</ele>
        <time>2022-01-09T14:04:32.677Z</time>
      </trkpt>
      <trkpt lat="47.96409" lon="-3.84981">
        <ele>121.70698699772</ele>
        <time>2022-01-09T14:04:36.396Z</time>
      </trkpt>
      <trkpt lat="47.96375" lon="-3.84647">
        <ele>121.64321627978</ele>
        <time>2022-01-09T14:04:40.143Z</time>
      </trkpt>
      <trkpt lat="47.96354" lon="-3.8447">
        <ele>120.80989750912</ele>
        <time>2022-01-09T14:04:43.905Z</time>
      </trkpt>
      <trkpt lat="47.96348" lon="-3.84448">
        <ele>120.35803212505</ele>
        <time>2022-01-09T14:04:47.669Z</time>
      </trkpt>
      <trkpt lat="47.96339" lon="-3.84431">
        <ele>120.02050344075</ele>
        <time>2022-01-09T14:04:51.435Z</time>
      </trkpt>
      <trkpt lat="47.96325" lon="-3.84426">
        <ele>119.83895878777</ele>
        <time>2022-01-09T14:04:55.203Z</time>
      </trkpt>
      <trkpt lat="47.96304" lon="-3.84427">
        <ele>119.74605539665</ele>
        <time>2022-01-09T14:04:58.973Z</time>
      </trkpt>
      <trkpt lat="47.96297" lon="-3.84423">
        <ele>119.73484375969</ele>
        <time>2022-01-09T14:05:02.744Z</time>
      </trkpt>
      <trkpt lat="47.96293" lon="-3.84416">
        <ele>119.83050006915</ele>
        <time>2022-01-09T14:05:06.516Z</time>
      </trkpt>
      <trkpt lat="47.9629" lon="-3.84407">
        <ele>120.03372048971</ele>
        <time>2022-01-09T14:05:10.289Z</time>
      </trkpt>
      <trkpt lat="47.96301" lon="-3.84369">
        <ele>120.34237198886</ele>
        <time>2022-01-09T14:05:14.065Z</time>
      </trkpt>
      <trkpt lat="47.96299" lon="-3.84347">
        <ele>120.75120191414</ele>
        <time>2022-01-09T14:05:17.843Z</time>
      </trkpt>
      <trkpt lat="47.96289" lon="-3.84314">
        <ele>121.33861703715</ele>
        <time>2022-01-09T14:05:21.624Z</time>
      </trkpt>
      <trkpt lat="47.96196" lon="-3.84075">
        <ele>121.88293811996</ele>
        <time>2022-01-09T14:05:25.428Z</time>
      </trkpt>
      <trkpt lat="47.96184" lon="-3.84046">
        <ele>122.61451831864</ele>
        <time>2022-01-09T14:05:29.235Z</time>
      </trkpt>
      <trkpt lat="47.96171" lon="-3.84031">
        <ele>123.33578480951</ele>
        <time>2022-01-09T14:05:33.044Z</time>
      </trkpt>
      <trkpt lat="47.96164" lon="-3.84026">
        <ele>124.04185900707</ele>
        <time>2022-01-09T14:05:36.854Z</time>
      </trkpt>
      <trkpt lat="47.96121" lon="-3.83999">
        <ele>124.77334217227</ele>
        <time>2022-01-09T14:05:40.670Z</time>
      </trkpt>
      <trkpt lat="47.96073" lon="-3.83972">
        <ele>125.52959690097</ele>
        <time>2022-01-09T14:05:44.493Z</time>
      </trkpt>
      <trkpt lat="47.96039" lon="-3.83948">
        <ele>126.42151036126</ele>
        <time>2022-01-09T14:05:48.320Z</time>
      </trkpt>
      <trkpt lat="47.96033" lon="-3.83942">
        <ele>126.90833059796</ele>
        <time>2022-01-09T14:05:52.148Z</time>
      </trkpt>
      <trkpt lat="47.96019" lon="-3.83918">
        <ele>127.36424805741</ele>
        <time>2022-01-09T14:05:55.979Z</time>
      </trkpt>
      <trkpt lat="47.96009" lon="-3.83891">
        <ele>127.57859818405</ele>
        <time>2022-01-09T14:05:59.812Z</time>
      </trkpt>
      <trkpt lat="47.96003" lon="-3.8386">
        <ele>127.58758959063</ele>
        <time>2022-01-09T14:06:03.648Z</time>
      </trkpt>
      <trkpt lat="47.96" lon="-3.83817">
        <ele>127.26420138103</ele>
        <time>2022-01-09T14:06:07.488Z</time>
      </trkpt>
      <trkpt lat="47.95991" lon="-3.83566">
        <ele>126.47702043375</ele>
        <time>2022-01-09T14:06:11.349Z</time>
      </trkpt>
      <trkpt lat="47.95985" lon="-3.83514">
        <ele>126.16182717481</ele>
        <time>2022-01-09T14:06:15.214Z</time>
      </trkpt>
      <trkpt lat="47.95966" lon="-3.83384">
        <ele>125.55183140193</ele>
        <time>2022-01-09T14:06:19.090Z</time>
      </trkpt>
      <trkpt lat="47.95953" lon="-3.83276">
        <ele>124.90187069482</ele>
        <time>2022-01-09T14:06:22.976Z</time>
      </trkpt>
      <trkpt lat="47.9593" lon="-3.8305">
        <ele>123.88383150315</ele>
        <time>2022-01-09T14:06:26.881Z</time>
      </trkpt>
      <trkpt lat="47.95929" lon="-3.82995">
        <ele>123.33823381173</ele>
        <time>2022-01-09T14:06:30.790Z</time>
      </trkpt>
      <trkpt lat="47.95925" lon="-3.82976">
        <ele>122.71894039948</ele>
        <time>2022-01-09T14:06:34.701Z</time>
      </trkpt>
      <trkpt lat="47.95921" lon="-3.82968">
        <ele>122.12825564703</ele>
        <time>2022-01-09T14:06:38.613Z</time>
      </trkpt>
      <trkpt lat="47.95915" lon="-3.82962">
        <ele>121.5757458568</ele>
        <time>2022-01-09T14:06:42.526Z</time>
      </trkpt>
      <trkpt lat="47.95869" lon="-3.82928">
        <ele>121.00427320273</ele>
        <time>2022-01-09T14:06:46.445Z</time>
      </trkpt>
      <trkpt lat="47.95848" lon="-3.82909">
        <ele>120.60625961783</ele>
        <time>2022-01-09T14:06:50.367Z</time>
      </trkpt>
      <trkpt lat="47.95834" lon="-3.82893">
        <ele>120.24253961008</ele>
        <time>2022-01-09T14:06:54.292Z</time>
      </trkpt>
      <trkpt lat="47.95827" lon="-3.8288">
        <ele>119.90884927852</ele>
        <time>2022-01-09T14:06:58.218Z</time>
      </trkpt>
      <trkpt lat="47.958" lon="-3.82819">
        <ele>119.64648628464</ele>
        <time>2022-01-09T14:07:02.150Z</time>
      </trkpt>
      <trkpt lat="47.9579" lon="-3.82803">
        <ele>119.33886557539</ele>
        <time>2022-01-09T14:07:06.084Z</time>
      </trkpt>
      <trkpt lat="47.95776" lon="-3.82765">
        <ele>118.85545507581</ele>
        <time>2022-01-09T14:07:10.022Z</time>
      </trkpt>
      <trkpt lat="47.95756" lon="-3.82695">
        <ele>118.50918649444</ele>
        <time>2022-01-09T14:07:13.966Z</time>
      </trkpt>
      <trkpt lat="47.9575" lon="-3.82667">
        <ele>118.38872134518</ele>
        <time>2022-01-09T14:07:17.912Z</time>
      </trkpt>
      <trkpt lat="47.95747" lon="-3.82638">
        <ele>118.46108137893</ele>
        <time>2022-01-09T14:07:21.861Z</time>
      </trkpt>
      <trkpt lat="47.95749" lon="-3.82612">
        <ele>118.63034611798</ele>
        <time>2022-01-09T14:07:25.812Z</time>
      </trkpt>
      <trkpt lat="47.95766" lon="-3.82462">
        <ele>119.17766822376</ele>
        <time>2022-01-09T14:07:29.776Z</time>
      </trkpt>
      <trkpt lat="47.95777" lon="-3.82408">
        <ele>119.68451921174</ele>
        <time>2022-01-09T14:07:33.745Z</time>
      </trkpt>
      <trkpt lat="47.95799" lon="-3.82328">
        <ele>119.97186682813</ele>
        <time>2022-01-09T14:07:37.721Z</time>
      </trkpt>
      <trkpt lat="47.95846" lon="-3.82201">
        <ele>119.99436348617</ele>
        <time>2022-01-09T14:07:41.709Z</time>
      </trkpt>
      <trkpt lat="47.95849" lon="-3.8219">
        <ele>120.05211520257</ele>
        <time>2022-01-09T14:07:45.698Z</time>
      </trkpt>
      <trkpt lat="47.95852" lon="-3.82154">
        <ele>120.01506978412</ele>
        <time>2022-01-09T14:07:49.690Z</time>
      </trkpt>
      <trkpt lat="47.95851" lon="-3.82141">
        <ele>119.94704154473</ele>
        <time>2022-01-09T14:07:53.683Z</time>
      </trkpt>
      <trkpt lat="47.95845" lon="-3.82115">
        <ele>119.68321380601</ele>
        <time>2022-01-09T14:07:57.678Z</time>
      </trkpt>
      <trkpt lat="47.9583" lon="-3.82058">
        <ele>119.33522492204</ele>
        <time>2022-01-09T14:08:01.679Z</time>
      </trkpt>
      <trkpt lat="47.95826" lon="-3.82038">
        <ele>119.09258452821</ele>
        <time>2022-01-09T14:08:05.681Z</time>
      </trkpt>
      <trkpt lat="47.95819" lon="-3.82019">
        <ele>118.7886980477</ele>
        <time>2022-01-09T14:08:09.685Z</time>
      </trkpt>
      <trkpt lat="47.95806" lon="-3.82003">
        <ele>118.45844234616</ele>
        <time>2022-01-09T14:08:13.691Z</time>
      </trkpt>
      <trkpt lat="47.95783" lon="-3.81984">
        <ele>118.03209477016</ele>
        <time>2022-01-09T14:08:17.701Z</time>
      </trkpt>
      <trkpt lat="47.95775" lon="-3.81976">
        <ele>117.56522911093</ele>
        <time>2022-01-09T14:08:21.712Z</time>
      </trkpt>
      <trkpt lat="47.95747" lon="-3.81939">
        <ele>116.86671000803</ele>
        <time>2022-01-09T14:08:25.728Z</time>
      </trkpt>
      <trkpt lat="47.95735" lon="-3.81918">
        <ele>116.08911968836</ele>
        <time>2022-01-09T14:08:29.746Z</time>
      </trkpt>
      <trkpt lat="47.95676" lon="-3.81811">
        <ele>115.21311357909</ele>
        <time>2022-01-09T14:08:33.775Z</time>
      </trkpt>
      <trkpt lat="47.95621" lon="-3.81704">
        <ele>114.35697182167</ele>
        <time>2022-01-09T14:08:37.816Z</time>
      </trkpt>
      <trkpt lat="47.95607" lon="-3.81669">
        <ele>113.51118503488</ele>
        <time>2022-01-09T14:08:41.860Z</time>
      </trkpt>
      <trkpt lat="47.95594" lon="-3.81617">
        <ele>112.72439033342</ele>
        <time>2022-01-09T14:08:45.909Z</time>
      </trkpt>
      <trkpt lat="47.95569" lon="-3.81497">
        <ele>111.43333711065</ele>
        <time>2022-01-09T14:08:49.968Z</time>
      </trkpt>
      <trkpt lat="47.9553" lon="-3.81365">
        <ele>110.40116922998</ele>
        <time>2022-01-09T14:08:54.040Z</time>
      </trkpt>
      <trkpt lat="47.95517" lon="-3.81311">
        <ele>109.63336241187</ele>
        <time>2022-01-09T14:08:58.116Z</time>
      </trkpt>
      <trkpt lat="47.95501" lon="-3.81168">
        <ele>108.57006875187</ele>
        <time>2022-01-09T14:09:02.205Z</time>
      </trkpt>
      <trkpt lat="47.95492" lon="-3.81119">
        <ele>107.47975768481</ele>
        <time>2022-01-09T14:09:06.298Z</time>
      </trkpt>
      <trkpt lat="47.95455" lon="-3.80989">
        <ele>106.26544551024</ele>
        <time>2022-01-09T14:09:10.403Z</time>
      </trkpt>
      <trkpt lat="47.954" lon="-3.80806">
        <ele>104.8505386631</ele>
        <time>2022-01-09T14:09:14.525Z</time>
      </trkpt>
      <trkpt lat="47.9538" lon="-3.80734">
        <ele>103.95748471002</ele>
        <time>2022-01-09T14:09:18.653Z</time>
      </trkpt>
      <trkpt lat="47.95374" lon="-3.80703">
        <ele>103.4616305124</ele>
        <time>2022-01-09T14:09:22.784Z</time>
      </trkpt>
      <trkpt lat="47.95371" lon="-3.80672">
        <ele>103.14302622035</ele>
        <time>2022-01-09T14:09:26.917Z</time>
      </trkpt>
      <trkpt lat="47.95371" lon="-3.8064">
        <ele>102.98030276051</ele>
        <time>2022-01-09T14:09:31.053Z</time>
      </trkpt>
      <trkpt lat="47.95388" lon="-3.80391">
        <ele>103.54217144035</ele>
        <time>2022-01-09T14:09:35.210Z</time>
      </trkpt>
      <trkpt lat="47.95385" lon="-3.80299">
        <ele>103.37998417177</ele>
        <time>2022-01-09T14:09:39.375Z</time>
      </trkpt>
      <trkpt lat="47.95373" lon="-3.80117">
        <ele>103.45497981331</ele>
        <time>2022-01-09T14:09:43.555Z</time>
      </trkpt>
      <trkpt lat="47.95375" lon="-3.80037">
        <ele>103.51311703917</ele>
        <time>2022-01-09T14:09:47.742Z</time>
      </trkpt>
      <trkpt lat="47.95389" lon="-3.7991">
        <ele>103.89569379027</ele>
        <time>2022-01-09T14:09:51.940Z</time>
      </trkpt>
      <trkpt lat="47.9539" lon="-3.79872">
        <ele>104.36827689859</ele>
        <time>2022-01-09T14:09:56.141Z</time>
      </trkpt>
      <trkpt lat="47.95384" lon="-3.79797">
        <ele>105.13892988091</ele>
        <time>2022-01-09T14:10:00.348Z</time>
      </trkpt>
      <trkpt lat="47.95373" lon="-3.79713">
        <ele>106.03060255802</ele>
        <time>2022-01-09T14:10:04.563Z</time>
      </trkpt>
      <trkpt lat="47.95364" lon="-3.79653">
        <ele>107.07113220331</ele>
        <time>2022-01-09T14:10:08.783Z</time>
      </trkpt>
      <trkpt lat="47.95355" lon="-3.79604">
        <ele>108.36781994689</ele>
        <time>2022-01-09T14:10:13.007Z</time>
      </trkpt>
      <trkpt lat="47.95298" lon="-3.79336">
        <ele>109.96504229546</ele>
        <time>2022-01-09T14:10:17.255Z</time>
      </trkpt>
      <trkpt lat="47.95027" lon="-3.78022">
        <ele>111.45866070429</ele>
        <time>2022-01-09T14:10:21.618Z</time>
      </trkpt>
      <trkpt lat="47.95009" lon="-3.77943">
        <ele>113.57501898409</ele>
        <time>2022-01-09T14:10:25.988Z</time>
      </trkpt>
      <trkpt lat="47.9499" lon="-3.77893">
        <ele>115.71926117455</ele>
        <time>2022-01-09T14:10:30.363Z</time>
      </trkpt>
      <trkpt lat="47.94952" lon="-3.77817">
        <ele>117.94476160731</ele>
        <time>2022-01-09T14:10:34.746Z</time>
      </trkpt>
      <trkpt lat="47.94854" lon="-3.7764">
        <ele>120.28658276691</ele>
        <time>2022-01-09T14:10:39.148Z</time>
      </trkpt>
      <trkpt lat="47.9471" lon="-3.77369">
        <ele>123.32457110219</ele>
        <time>2022-01-09T14:10:43.579Z</time>
      </trkpt>
      <trkpt lat="47.94676" lon="-3.7731">
        <ele>125.56825261113</ele>
        <time>2022-01-09T14:10:48.017Z</time>
      </trkpt>
      <trkpt lat="47.9466" lon="-3.77286">
        <ele>127.5204088771</ele>
        <time>2022-01-09T14:10:52.458Z</time>
      </trkpt>
      <trkpt lat="47.94642" lon="-3.77265">
        <ele>129.22668647745</ele>
        <time>2022-01-09T14:10:56.901Z</time>
      </trkpt>
      <trkpt lat="47.94582" lon="-3.772">
        <ele>130.70344661507</ele>
        <time>2022-01-09T14:11:01.354Z</time>
      </trkpt>
      <trkpt lat="47.94463" lon="-3.77076">
        <ele>131.61758088363</ele>
        <time>2022-01-09T14:11:05.825Z</time>
      </trkpt>
      <trkpt lat="47.94427" lon="-3.77036">
        <ele>132.07846365012</ele>
        <time>2022-01-09T14:11:10.301Z</time>
      </trkpt>
      <trkpt lat="47.94406" lon="-3.77007">
        <ele>132.02395360306</ele>
        <time>2022-01-09T14:11:14.781Z</time>
      </trkpt>
      <trkpt lat="47.94391" lon="-3.76981">
        <ele>131.58712982406</ele>
        <time>2022-01-09T14:11:19.264Z</time>
      </trkpt>
      <trkpt lat="47.94365" lon="-3.76918">
        <ele>130.61908469634</ele>
        <time>2022-01-09T14:11:23.753Z</time>
      </trkpt>
      <trkpt lat="47.94343" lon="-3.76842">
        <ele>129.16027603443</ele>
        <time>2022-01-09T14:11:28.249Z</time>
      </trkpt>
      <trkpt lat="47.94302" lon="-3.76636">
        <ele>127.61792736007</ele>
        <time>2022-01-09T14:11:32.763Z</time>
      </trkpt>
      <trkpt lat="47.94295" lon="-3.76586">
        <ele>125.55449911717</ele>
        <time>2022-01-09T14:11:37.281Z</time>
      </trkpt>
      <trkpt lat="47.94291" lon="-3.76502">
        <ele>123.21093738888</ele>
        <time>2022-01-09T14:11:41.806Z</time>
      </trkpt>
      <trkpt lat="47.94286" lon="-3.76456">
        <ele>120.73454134318</ele>
        <time>2022-01-09T14:11:46.335Z</time>
      </trkpt>
      <trkpt lat="47.94205" lon="-3.75909">
        <ele>116.7927882319</ele>
        <time>2022-01-09T14:11:50.911Z</time>
      </trkpt>
      <trkpt lat="47.94199" lon="-3.75873">
        <ele>114.34628137054</ele>
        <time>2022-01-09T14:11:55.491Z</time>
      </trkpt>
      <trkpt lat="47.94192" lon="-3.75838">
        <ele>111.96500562093</ele>
        <time>2022-01-09T14:12:00.074Z</time>
      </trkpt>
      <trkpt lat="47.94181" lon="-3.75807">
        <ele>109.76282291315</ele>
        <time>2022-01-09T14:12:04.660Z</time>
      </trkpt>
      <trkpt lat="47.94165" lon="-3.75764">
        <ele>107.66310639714</ele>
        <time>2022-01-09T14:12:09.250Z</time>
      </trkpt>
      <trkpt lat="47.94108" lon="-3.75627">
        <ele>105.87293957161</ele>
        <time>2022-01-09T14:12:13.853Z</time>
      </trkpt>
      <trkpt lat="47.94094" lon="-3.75588">
        <ele>103.94758715747</ele>
        <time>2022-01-09T14:12:18.460Z</time>
      </trkpt>
      <trkpt lat="47.94082" lon="-3.75547">
        <ele>102.08263502044</ele>
        <time>2022-01-09T14:12:23.071Z</time>
      </trkpt>
      <trkpt lat="47.94049" lon="-3.75421">
        <ele>100.30720885729</ele>
        <time>2022-01-09T14:12:27.693Z</time>
      </trkpt>
      <trkpt lat="47.93995" lon="-3.75199">
        <ele>98.603497575204</ele>
        <time>2022-01-09T14:12:32.335Z</time>
      </trkpt>
      <trkpt lat="47.93961" lon="-3.75076">
        <ele>97.028980202367</ele>
        <time>2022-01-09T14:12:36.988Z</time>
      </trkpt>
      <trkpt lat="47.93916" lon="-3.74902">
        <ele>95.914501742677</ele>
        <time>2022-01-09T14:12:41.657Z</time>
      </trkpt>
      <trkpt lat="47.93802" lon="-3.74431">
        <ele>93.219964288263</ele>
        <time>2022-01-09T14:12:46.368Z</time>
      </trkpt>
      <trkpt lat="47.93791" lon="-3.74395">
        <ele>91.818939050986</ele>
        <time>2022-01-09T14:12:51.082Z</time>
      </trkpt>
      <trkpt lat="47.93778" lon="-3.7436">
        <ele>90.761550499802</ele>
        <time>2022-01-09T14:12:55.800Z</time>
      </trkpt>
      <trkpt lat="47.93733" lon="-3.74256">
        <ele>89.700285890411</ele>
        <time>2022-01-09T14:13:00.528Z</time>
      </trkpt>
      <trkpt lat="47.9372" lon="-3.74221">
        <ele>89.138027618438</ele>
        <time>2022-01-09T14:13:05.259Z</time>
      </trkpt>
      <trkpt lat="47.937" lon="-3.74151">
        <ele>88.785830922822</ele>
        <time>2022-01-09T14:13:09.997Z</time>
      </trkpt>
      <trkpt lat="47.93696" lon="-3.74134">
        <ele>88.458718834448</ele>
        <time>2022-01-09T14:13:14.736Z</time>
      </trkpt>
      <trkpt lat="47.9369" lon="-3.74082">
        <ele>88.262083749138</ele>
        <time>2022-01-09T14:13:19.480Z</time>
      </trkpt>
      <trkpt lat="47.93689" lon="-3.73999">
        <ele>88.137760357847</ele>
        <time>2022-01-09T14:13:24.231Z</time>
      </trkpt>
      <trkpt lat="47.93699" lon="-3.73881">
        <ele>88.06757380651</ele>
        <time>2022-01-09T14:13:28.992Z</time>
      </trkpt>
      <trkpt lat="47.93709" lon="-3.73798">
        <ele>88.259871082625</ele>
        <time>2022-01-09T14:13:33.760Z</time>
      </trkpt>
      <trkpt lat="47.93719" lon="-3.73698">
        <ele>87.782042083372</ele>
        <time>2022-01-09T14:13:38.536Z</time>
      </trkpt>
      <trkpt lat="47.93728" lon="-3.73589">
        <ele>87.049048054739</ele>
        <time>2022-01-09T14:13:43.322Z</time>
      </trkpt>
      <trkpt lat="47.93729" lon="-3.73541">
        <ele>85.911847796046</ele>
        <time>2022-01-09T14:13:48.112Z</time>
      </trkpt>
      <trkpt lat="47.93726" lon="-3.73491">
        <ele>84.276196748257</ele>
        <time>2022-01-09T14:13:52.906Z</time>
      </trkpt>
      <trkpt lat="47.93716" lon="-3.73412">
        <ele>82.403656385396</ele>
        <time>2022-01-09T14:13:57.707Z</time>
      </trkpt>
      <trkpt lat="47.93702" lon="-3.7335">
        <ele>80.648446374949</ele>
        <time>2022-01-09T14:14:02.513Z</time>
      </trkpt>
      <trkpt lat="47.93681" lon="-3.7329">
        <ele>78.711480993608</ele>
        <time>2022-01-09T14:14:07.325Z</time>
      </trkpt>
      <trkpt lat="47.93646" lon="-3.732">
        <ele>76.37391074218</ele>
        <time>2022-01-09T14:14:12.145Z</time>
      </trkpt>
      <trkpt lat="47.93626" lon="-3.73134">
        <ele>74.804473417196</ele>
        <time>2022-01-09T14:14:16.972Z</time>
      </trkpt>
      <trkpt lat="47.93614" lon="-3.73083">
        <ele>73.094798822498</ele>
        <time>2022-01-09T14:14:21.803Z</time>
      </trkpt>
      <trkpt lat="47.93598" lon="-3.72996">
        <ele>71.899936114291</ele>
        <time>2022-01-09T14:14:26.642Z</time>
      </trkpt>
      <trkpt lat="47.93564" lon="-3.72841">
        <ele>70.564273098618</ele>
        <time>2022-01-09T14:14:31.494Z</time>
      </trkpt>
      <trkpt lat="47.93558" lon="-3.72809">
        <ele>70.310442644568</ele>
        <time>2022-01-09T14:14:36.349Z</time>
      </trkpt>
      <trkpt lat="47.93555" lon="-3.72776">
        <ele>70.581277017358</ele>
        <time>2022-01-09T14:14:41.207Z</time>
      </trkpt>
      <trkpt lat="47.93555" lon="-3.72727">
        <ele>71.566989339254</ele>
        <time>2022-01-09T14:14:46.069Z</time>
      </trkpt>
      <trkpt lat="47.93557" lon="-3.72698">
        <ele>72.541964183168</ele>
        <time>2022-01-09T14:14:50.934Z</time>
      </trkpt>
      <trkpt lat="47.93563" lon="-3.7266">
        <ele>73.648430517701</ele>
        <time>2022-01-09T14:14:55.802Z</time>
      </trkpt>
      <trkpt lat="47.93569" lon="-3.72626">
        <ele>74.931533523679</ele>
        <time>2022-01-09T14:15:00.673Z</time>
      </trkpt>
      <trkpt lat="47.93577" lon="-3.72596">
        <ele>76.28686280366</ele>
        <time>2022-01-09T14:15:05.546Z</time>
      </trkpt>
      <trkpt lat="47.93608" lon="-3.72517">
        <ele>77.449219826788</ele>
        <time>2022-01-09T14:15:10.427Z</time>
      </trkpt>
      <trkpt lat="47.93634" lon="-3.72455">
        <ele>79.209906935521</ele>
        <time>2022-01-09T14:15:15.314Z</time>
      </trkpt>
      <trkpt lat="47.93701" lon="-3.72316">
        <ele>81.644513188093</ele>
        <time>2022-01-09T14:15:20.216Z</time>
      </trkpt>
      <trkpt lat="47.93715" lon="-3.7227">
        <ele>83.541874684275</ele>
        <time>2022-01-09T14:15:25.122Z</time>
      </trkpt>
      <trkpt lat="47.93722" lon="-3.72245">
        <ele>85.284567433212</ele>
        <time>2022-01-09T14:15:30.030Z</time>
      </trkpt>
      <trkpt lat="47.93731" lon="-3.72196">
        <ele>87.084099670695</ele>
        <time>2022-01-09T14:15:34.942Z</time>
      </trkpt>
      <trkpt lat="47.93733" lon="-3.72166">
        <ele>88.331735600911</ele>
        <time>2022-01-09T14:15:39.857Z</time>
      </trkpt>
      <trkpt lat="47.93733" lon="-3.72129">
        <ele>89.279917197474</ele>
        <time>2022-01-09T14:15:44.775Z</time>
      </trkpt>
      <trkpt lat="47.93729" lon="-3.72101">
        <ele>89.916299846074</ele>
        <time>2022-01-09T14:15:49.696Z</time>
      </trkpt>
      <trkpt lat="47.93719" lon="-3.72053">
        <ele>90.341298491695</ele>
        <time>2022-01-09T14:15:54.621Z</time>
      </trkpt>
      <trkpt lat="47.93707" lon="-3.7202">
        <ele>90.586314910869</ele>
        <time>2022-01-09T14:15:59.549Z</time>
      </trkpt>
      <trkpt lat="47.93685" lon="-3.71976">
        <ele>90.673118552626</ele>
        <time>2022-01-09T14:16:04.481Z</time>
      </trkpt>
      <trkpt lat="47.93633" lon="-3.71903">
        <ele>90.297328611182</ele>
        <time>2022-01-09T14:16:09.422Z</time>
      </trkpt>
      <trkpt lat="47.93345" lon="-3.71526">
        <ele>88.950023351323</ele>
        <time>2022-01-09T14:16:14.411Z</time>
      </trkpt>
      <trkpt lat="47.93318" lon="-3.71482">
        <ele>88.177858257668</ele>
        <time>2022-01-09T14:16:19.405Z</time>
      </trkpt>
      <trkpt lat="47.93313" lon="-3.7147">
        <ele>87.388773796387</ele>
        <time>2022-01-09T14:16:24.401Z</time>
      </trkpt>
      <trkpt lat="47.93303" lon="-3.71445">
        <ele>86.567626376481</ele>
        <time>2022-01-09T14:16:29.399Z</time>
      </trkpt>
      <trkpt lat="47.93292" lon="-3.71406">
        <ele>85.75424271748</ele>
        <time>2022-01-09T14:16:34.401Z</time>
      </trkpt>
      <trkpt lat="47.93281" lon="-3.71338">
        <ele>85.078769963322</ele>
        <time>2022-01-09T14:16:39.408Z</time>
      </trkpt>
      <trkpt lat="47.93272" lon="-3.71256">
        <ele>84.680021311068</ele>
        <time>2022-01-09T14:16:44.422Z</time>
      </trkpt>
      <trkpt lat="47.93247" lon="-3.70967">
        <ele>83.917377178047</ele>
        <time>2022-01-09T14:16:49.461Z</time>
      </trkpt>
      <trkpt lat="47.93244" lon="-3.70867">
        <ele>83.338809684958</ele>
        <time>2022-01-09T14:16:54.508Z</time>
      </trkpt>
      <trkpt lat="47.93235" lon="-3.70843">
        <ele>83.165048347475</ele>
        <time>2022-01-09T14:16:59.558Z</time>
      </trkpt>
      <trkpt lat="47.93233" lon="-3.7083">
        <ele>83.200344884993</ele>
        <time>2022-01-09T14:17:04.609Z</time>
      </trkpt>
      <trkpt lat="47.93236" lon="-3.70814">
        <ele>83.45570605037</ele>
        <time>2022-01-09T14:17:09.661Z</time>
      </trkpt>
      <trkpt lat="47.93244" lon="-3.70789">
        <ele>83.958210753041</ele>
        <time>2022-01-09T14:17:14.715Z</time>
      </trkpt>
      <trkpt lat="47.93288" lon="-3.7051">
        <ele>85.540275565501</ele>
        <time>2022-01-09T14:17:19.794Z</time>
      </trkpt>
      <trkpt lat="47.933" lon="-3.7043">
        <ele>86.507148091954</ele>
        <time>2022-01-09T14:17:24.880Z</time>
      </trkpt>
      <trkpt lat="47.93302" lon="-3.704">
        <ele>87.452775751748</ele>
        <time>2022-01-09T14:17:29.968Z</time>
      </trkpt>
      <trkpt lat="47.93304" lon="-3.70352">
        <ele>88.464019170683</ele>
        <time>2022-01-09T14:17:35.060Z</time>
      </trkpt>
      <trkpt lat="47.933" lon="-3.70324">
        <ele>89.38179350556</ele>
        <time>2022-01-09T14:17:40.155Z</time>
      </trkpt>
      <trkpt lat="47.93294" lon="-3.70306">
        <ele>90.40826654624</ele>
        <time>2022-01-09T14:17:45.251Z</time>
      </trkpt>
      <trkpt lat="47.93273" lon="-3.70269">
        <ele>91.273383699524</ele>
        <time>2022-01-09T14:17:50.351Z</time>
      </trkpt>
      <trkpt lat="47.93231" lon="-3.70214">
        <ele>92.145214837422</ele>
        <time>2022-01-09T14:17:55.458Z</time>
      </trkpt>
      <trkpt lat="47.93226" lon="-3.70198">
        <ele>93.011199881941</ele>
        <time>2022-01-09T14:18:00.567Z</time>
      </trkpt>
      <trkpt lat="47.93224" lon="-3.7018">
        <ele>93.866659876428</ele>
        <time>2022-01-09T14:18:05.677Z</time>
      </trkpt>
      <trkpt lat="47.93233" lon="-3.6999">
        <ele>95.291428517985</ele>
        <time>2022-01-09T14:18:10.803Z</time>
      </trkpt>
      <trkpt lat="47.93234" lon="-3.69899">
        <ele>96.028098969603</ele>
        <time>2022-01-09T14:18:15.937Z</time>
      </trkpt>
      <trkpt lat="47.9324" lon="-3.69836">
        <ele>96.445356156514</ele>
        <time>2022-01-09T14:18:21.076Z</time>
      </trkpt>
      <trkpt lat="47.93234" lon="-3.69761">
        <ele>96.741205499104</ele>
        <time>2022-01-09T14:18:26.222Z</time>
      </trkpt>
      <trkpt lat="47.93239" lon="-3.69667">
        <ele>97.042026026939</ele>
        <time>2022-01-09T14:18:31.376Z</time>
      </trkpt>
      <trkpt lat="47.93239" lon="-3.69643">
        <ele>97.239885010979</ele>
        <time>2022-01-09T14:18:36.532Z</time>
      </trkpt>
      <trkpt lat="47.93236" lon="-3.6962">
        <ele>97.31996500273</ele>
        <time>2022-01-09T14:18:41.690Z</time>
      </trkpt>
      <trkpt lat="47.9323" lon="-3.69597">
        <ele>97.349915192356</ele>
        <time>2022-01-09T14:18:46.850Z</time>
      </trkpt>
      <trkpt lat="47.93126" lon="-3.69308">
        <ele>97.266159272324</ele>
        <time>2022-01-09T14:18:52.037Z</time>
      </trkpt>
      <trkpt lat="47.93107" lon="-3.6926">
        <ele>97.003281901328</ele>
        <time>2022-01-09T14:18:57.229Z</time>
      </trkpt>
      <trkpt lat="47.93029" lon="-3.69093">
        <ele>96.26368995339</ele>
        <time>2022-01-09T14:19:02.438Z</time>
      </trkpt>
      <trkpt lat="47.9302" lon="-3.69074">
        <ele>95.668617103431</ele>
        <time>2022-01-09T14:19:07.649Z</time>
      </trkpt>
      <trkpt lat="47.93008" lon="-3.6906">
        <ele>94.94956881619</ele>
        <time>2022-01-09T14:19:12.862Z</time>
      </trkpt>
      <trkpt lat="47.93" lon="-3.69031">
        <ele>94.157713438389</ele>
        <time>2022-01-09T14:19:18.077Z</time>
      </trkpt>
      <trkpt lat="47.9297" lon="-3.68965">
        <ele>93.300234586777</ele>
        <time>2022-01-09T14:19:23.299Z</time>
      </trkpt>
      <trkpt lat="47.92937" lon="-3.68915">
        <ele>92.206075699751</ele>
        <time>2022-01-09T14:19:28.527Z</time>
      </trkpt>
      <trkpt lat="47.9283" lon="-3.68822">
        <ele>91.106107166089</ele>
        <time>2022-01-09T14:19:33.770Z</time>
      </trkpt>
      <trkpt lat="47.92799" lon="-3.688">
        <ele>90.055106804395</ele>
        <time>2022-01-09T14:19:39.018Z</time>
      </trkpt>
      <trkpt lat="47.92768" lon="-3.68772">
        <ele>88.975785688995</ele>
        <time>2022-01-09T14:19:44.270Z</time>
      </trkpt>
      <trkpt lat="47.92727" lon="-3.6873">
        <ele>87.786932667876</ele>
        <time>2022-01-09T14:19:49.528Z</time>
      </trkpt>
      <trkpt lat="47.92658" lon="-3.68663">
        <ele>86.67152824571</ele>
        <time>2022-01-09T14:19:54.797Z</time>
      </trkpt>
      <trkpt lat="47.92631" lon="-3.6863">
        <ele>85.930533603187</ele>
        <time>2022-01-09T14:20:00.070Z</time>
      </trkpt>
      <trkpt lat="47.92623" lon="-3.68617">
        <ele>85.443921327418</ele>
        <time>2022-01-09T14:20:05.345Z</time>
      </trkpt>
      <trkpt lat="47.92608" lon="-3.68591">
        <ele>85.20531756997</ele>
        <time>2022-01-09T14:20:10.623Z</time>
      </trkpt>
      <trkpt lat="47.92588" lon="-3.68549">
        <ele>85.100166002987</ele>
        <time>2022-01-09T14:20:15.905Z</time>
      </trkpt>
      <trkpt lat="47.92569" lon="-3.68496">
        <ele>85.329539458436</ele>
        <time>2022-01-09T14:20:21.192Z</time>
      </trkpt>
      <trkpt lat="47.92553" lon="-3.68431">
        <ele>85.802831096118</ele>
        <time>2022-01-09T14:20:26.485Z</time>
      </trkpt>
      <trkpt lat="47.92512" lon="-3.68084">
        <ele>88.23414195915</ele>
        <time>2022-01-09T14:20:31.807Z</time>
      </trkpt>
      <trkpt lat="47.92494" lon="-3.67986">
        <ele>89.066501731622</ele>
        <time>2022-01-09T14:20:37.138Z</time>
      </trkpt>
      <trkpt lat="47.92476" lon="-3.67925">
        <ele>90.254758067694</ele>
        <time>2022-01-09T14:20:42.475Z</time>
      </trkpt>
      <trkpt lat="47.9245" lon="-3.67851">
        <ele>91.467799301704</ele>
        <time>2022-01-09T14:20:47.819Z</time>
      </trkpt>
      <trkpt lat="47.92438" lon="-3.67818">
        <ele>92.493226550055</ele>
        <time>2022-01-09T14:20:53.166Z</time>
      </trkpt>
      <trkpt lat="47.92429" lon="-3.67804">
        <ele>93.558711207608</ele>
        <time>2022-01-09T14:20:58.514Z</time>
      </trkpt>
      <trkpt lat="47.92429" lon="-3.67792">
        <ele>94.667320625685</ele>
        <time>2022-01-09T14:21:03.863Z</time>
      </trkpt>
      <trkpt lat="47.92356" lon="-3.67567">
        <ele>95.982073803588</ele>
        <time>2022-01-09T14:21:09.233Z</time>
      </trkpt>
      <trkpt lat="47.92337" lon="-3.67501">
        <ele>97.082092257705</ele>
        <time>2022-01-09T14:21:14.609Z</time>
      </trkpt>
      <trkpt lat="47.92326" lon="-3.67453">
        <ele>98.224147264609</ele>
        <time>2022-01-09T14:21:19.990Z</time>
      </trkpt>
      <trkpt lat="47.92304" lon="-3.67321">
        <ele>99.423352730157</ele>
        <time>2022-01-09T14:21:25.382Z</time>
      </trkpt>
      <trkpt lat="47.92268" lon="-3.67067">
        <ele>100.83567586458</ele>
        <time>2022-01-09T14:21:30.796Z</time>
      </trkpt>
      <trkpt lat="47.92257" lon="-3.66961">
        <ele>101.69699745534</ele>
        <time>2022-01-09T14:21:36.219Z</time>
      </trkpt>
      <trkpt lat="47.92238" lon="-3.6671">
        <ele>102.57392401174</ele>
        <time>2022-01-09T14:21:41.663Z</time>
      </trkpt>
      <trkpt lat="47.92231" lon="-3.66644">
        <ele>103.08802962157</ele>
        <time>2022-01-09T14:21:47.113Z</time>
      </trkpt>
      <trkpt lat="47.92219" lon="-3.66578">
        <ele>103.38597470943</ele>
        <time>2022-01-09T14:21:52.569Z</time>
      </trkpt>
      <trkpt lat="47.922" lon="-3.665">
        <ele>103.59872689603</ele>
        <time>2022-01-09T14:21:58.032Z</time>
      </trkpt>
      <trkpt lat="47.92178" lon="-3.66435">
        <ele>103.6828752627</ele>
        <time>2022-01-09T14:22:03.501Z</time>
      </trkpt>
      <trkpt lat="47.92136" lon="-3.66323">
        <ele>103.62827474812</ele>
        <time>2022-01-09T14:22:08.980Z</time>
      </trkpt>
      <trkpt lat="47.92113" lon="-3.66248">
        <ele>103.62422099757</ele>
        <time>2022-01-09T14:22:14.466Z</time>
      </trkpt>
      <trkpt lat="47.92096" lon="-3.66176">
        <ele>103.38963990276</ele>
        <time>2022-01-09T14:22:19.959Z</time>
      </trkpt>
      <trkpt lat="47.92088" lon="-3.66124">
        <ele>103.21252513397</ele>
        <time>2022-01-09T14:22:25.456Z</time>
      </trkpt>
      <trkpt lat="47.92079" lon="-3.66027">
        <ele>102.80807241218</ele>
        <time>2022-01-09T14:22:30.961Z</time>
      </trkpt>
      <trkpt lat="47.92079" lon="-3.65986">
        <ele>102.73262300609</ele>
        <time>2022-01-09T14:22:36.470Z</time>
      </trkpt>
      <trkpt lat="47.92082" lon="-3.65905">
        <ele>102.74427396952</ele>
        <time>2022-01-09T14:22:41.986Z</time>
      </trkpt>
      <trkpt lat="47.92113" lon="-3.65553">
        <ele>102.64787702341</ele>
        <time>2022-01-09T14:22:47.532Z</time>
      </trkpt>
      <trkpt lat="47.92131" lon="-3.65307">
        <ele>102.37546575984</ele>
        <time>2022-01-09T14:22:53.098Z</time>
      </trkpt>
      <trkpt lat="47.9217" lon="-3.64969">
        <ele>102.15473816154</ele>
        <time>2022-01-09T14:22:58.693Z</time>
      </trkpt>
      <trkpt lat="47.92192" lon="-3.6477">
        <ele>102.13477898711</ele>
        <time>2022-01-09T14:23:04.305Z</time>
      </trkpt>
      <trkpt lat="47.92197" lon="-3.64704">
        <ele>101.65815277686</ele>
        <time>2022-01-09T14:23:09.923Z</time>
      </trkpt>
      <trkpt lat="47.922" lon="-3.64629">
        <ele>101.36328982557</ele>
        <time>2022-01-09T14:23:15.547Z</time>
      </trkpt>
      <trkpt lat="47.922" lon="-3.64578">
        <ele>101.03414206296</ele>
        <time>2022-01-09T14:23:21.175Z</time>
      </trkpt>
      <trkpt lat="47.92195" lon="-3.64474">
        <ele>100.61534265387</ele>
        <time>2022-01-09T14:23:26.812Z</time>
      </trkpt>
      <trkpt lat="47.9218" lon="-3.64347">
        <ele>100.1980880556</ele>
        <time>2022-01-09T14:23:32.460Z</time>
      </trkpt>
      <trkpt lat="47.92115" lon="-3.6382">
        <ele>99.370996676313</ele>
        <time>2022-01-09T14:23:38.153Z</time>
      </trkpt>
      <trkpt lat="47.9203" lon="-3.6316">
        <ele>98.640670472778</ele>
        <time>2022-01-09T14:23:43.903Z</time>
      </trkpt>
      <trkpt lat="47.92024" lon="-3.63101">
        <ele>98.037330410666</ele>
        <time>2022-01-09T14:23:49.658Z</time>
      </trkpt>
      <trkpt lat="47.92005" lon="-3.6285">
        <ele>97.510410181008</ele>
        <time>2022-01-09T14:23:55.434Z</time>
      </trkpt>
      <trkpt lat="47.91992" lon="-3.62732">
        <ele>96.980940641173</ele>
        <time>2022-01-09T14:24:01.220Z</time>
      </trkpt>
      <trkpt lat="47.91971" lon="-3.62621">
        <ele>96.346093522511</ele>
        <time>2022-01-09T14:24:07.016Z</time>
      </trkpt>
      <trkpt lat="47.91938" lon="-3.62471">
        <ele>95.990007821793</ele>
        <time>2022-01-09T14:24:12.825Z</time>
      </trkpt>
      <trkpt lat="47.91908" lon="-3.6234">
        <ele>95.383842224996</ele>
        <time>2022-01-09T14:24:18.646Z</time>
      </trkpt>
      <trkpt lat="47.91734" lon="-3.61539">
        <ele>94.421739677039</ele>
        <time>2022-01-09T14:24:24.537Z</time>
      </trkpt>
      <trkpt lat="47.91656" lon="-3.61201">
        <ele>94.134558728461</ele>
        <time>2022-01-09T14:24:30.458Z</time>
      </trkpt>
      <trkpt lat="47.91631" lon="-3.61107">
        <ele>93.768102515106</ele>
        <time>2022-01-09T14:24:36.388Z</time>
      </trkpt>
      <trkpt lat="47.91602" lon="-3.61027">
        <ele>93.252008212407</ele>
        <time>2022-01-09T14:24:42.325Z</time>
      </trkpt>
      <trkpt lat="47.91563" lon="-3.60945">
        <ele>92.665137489532</ele>
        <time>2022-01-09T14:24:48.271Z</time>
      </trkpt>
      <trkpt lat="47.91516" lon="-3.60851">
        <ele>92.327724630124</ele>
        <time>2022-01-09T14:24:54.227Z</time>
      </trkpt>
      <trkpt lat="47.91403" lon="-3.6064">
        <ele>92.114101291629</ele>
        <time>2022-01-09T14:25:00.205Z</time>
      </trkpt>
      <trkpt lat="47.9135" lon="-3.60545">
        <ele>91.853056498742</ele>
        <time>2022-01-09T14:25:06.194Z</time>
      </trkpt>
      <trkpt lat="47.91319" lon="-3.60495">
        <ele>91.529021081563</ele>
        <time>2022-01-09T14:25:12.189Z</time>
      </trkpt>
      <trkpt lat="47.91252" lon="-3.60388">
        <ele>91.46217952415</ele>
        <time>2022-01-09T14:25:18.196Z</time>
      </trkpt>
      <trkpt lat="47.91132" lon="-3.60206">
        <ele>91.801931299363</ele>
        <time>2022-01-09T14:25:24.224Z</time>
      </trkpt>
      <trkpt lat="47.911" lon="-3.60153">
        <ele>91.559027514786</ele>
        <time>2022-01-09T14:25:30.258Z</time>
      </trkpt>
      <trkpt lat="47.91056" lon="-3.60073">
        <ele>91.330077663438</ele>
        <time>2022-01-09T14:25:36.301Z</time>
      </trkpt>
      <trkpt lat="47.90947" lon="-3.59862">
        <ele>90.992732986539</ele>
        <time>2022-01-09T14:25:42.366Z</time>
      </trkpt>
      <trkpt lat="47.90897" lon="-3.5977">
        <ele>90.501322651024</ele>
        <time>2022-01-09T14:25:48.441Z</time>
      </trkpt>
      <trkpt lat="47.90877" lon="-3.59737">
        <ele>89.920104889212</ele>
        <time>2022-01-09T14:25:54.520Z</time>
      </trkpt>
      <trkpt lat="47.90847" lon="-3.59697">
        <ele>89.248067533839</ele>
        <time>2022-01-09T14:26:00.604Z</time>
      </trkpt>
      <trkpt lat="47.90751" lon="-3.59584">
        <ele>88.392569772581</ele>
        <time>2022-01-09T14:26:06.703Z</time>
      </trkpt>
      <trkpt lat="47.90723" lon="-3.59555">
        <ele>87.94129069494</ele>
        <time>2022-01-09T14:26:12.807Z</time>
      </trkpt>
      <trkpt lat="47.90667" lon="-3.59506">
        <ele>87.326893292148</ele>
        <time>2022-01-09T14:26:18.919Z</time>
      </trkpt>
      <trkpt lat="47.90622" lon="-3.59464">
        <ele>86.980031234437</ele>
        <time>2022-01-09T14:26:25.037Z</time>
      </trkpt>
      <trkpt lat="47.90605" lon="-3.59444">
        <ele>86.616265057519</ele>
        <time>2022-01-09T14:26:31.158Z</time>
      </trkpt>
      <trkpt lat="47.90567" lon="-3.59384">
        <ele>86.272098246739</ele>
        <time>2022-01-09T14:26:37.286Z</time>
      </trkpt>
      <trkpt lat="47.90548" lon="-3.59344">
        <ele>86.37916954514</ele>
        <time>2022-01-09T14:26:43.418Z</time>
      </trkpt>
      <trkpt lat="47.9051" lon="-3.5925">
        <ele>86.708127234919</ele>
        <time>2022-01-09T14:26:49.559Z</time>
      </trkpt>
      <trkpt lat="47.90483" lon="-3.59193">
        <ele>86.788248363975</ele>
        <time>2022-01-09T14:26:55.706Z</time>
      </trkpt>
      <trkpt lat="47.90453" lon="-3.59138">
        <ele>86.572864681862</ele>
        <time>2022-01-09T14:27:01.859Z</time>
      </trkpt>
      <trkpt lat="47.9041" lon="-3.59068">
        <ele>86.50086787116</ele>
        <time>2022-01-09T14:27:08.020Z</time>
      </trkpt>
      <trkpt lat="47.90301" lon="-3.58873">
        <ele>86.224421647149</ele>
        <time>2022-01-09T14:27:14.202Z</time>
      </trkpt>
      <trkpt lat="47.90262" lon="-3.58807">
        <ele>85.873887765856</ele>
        <time>2022-01-09T14:27:20.392Z</time>
      </trkpt>
      <trkpt lat="47.90215" lon="-3.58715">
        <ele>85.168132451026</ele>
        <time>2022-01-09T14:27:26.592Z</time>
      </trkpt>
      <trkpt lat="47.90035" lon="-3.58275">
        <ele>83.581191955315</ele>
        <time>2022-01-09T14:27:32.835Z</time>
      </trkpt>
      <trkpt lat="47.89946" lon="-3.58062">
        <ele>82.647392827407</ele>
        <time>2022-01-09T14:27:39.099Z</time>
      </trkpt>
      <trkpt lat="47.89908" lon="-3.57985">
        <ele>82.059141763025</ele>
        <time>2022-01-09T14:27:45.371Z</time>
      </trkpt>
      <trkpt lat="47.89865" lon="-3.57909">
        <ele>81.520952898398</ele>
        <time>2022-01-09T14:27:51.651Z</time>
      </trkpt>
      <trkpt lat="47.89677" lon="-3.5755">
        <ele>80.43730894295</ele>
        <time>2022-01-09T14:27:57.970Z</time>
      </trkpt>
      <trkpt lat="47.89643" lon="-3.57502">
        <ele>79.610526561676</ele>
        <time>2022-01-09T14:28:04.295Z</time>
      </trkpt>
      <trkpt lat="47.89636" lon="-3.57497">
        <ele>78.649034043465</ele>
        <time>2022-01-09T14:28:10.621Z</time>
      </trkpt>
      <trkpt lat="47.89614" lon="-3.57489">
        <ele>77.594088384705</ele>
        <time>2022-01-09T14:28:16.949Z</time>
      </trkpt>
      <trkpt lat="47.89607" lon="-3.57482">
        <ele>76.552815485238</ele>
        <time>2022-01-09T14:28:23.278Z</time>
      </trkpt>
      <trkpt lat="47.89602" lon="-3.57473">
        <ele>75.487236260148</ele>
        <time>2022-01-09T14:28:29.608Z</time>
      </trkpt>
      <trkpt lat="47.89591" lon="-3.57438">
        <ele>74.383264719697</ele>
        <time>2022-01-09T14:28:35.942Z</time>
      </trkpt>
      <trkpt lat="47.89586" lon="-3.57427">
        <ele>73.293534244535</ele>
        <time>2022-01-09T14:28:42.277Z</time>
      </trkpt>
      <trkpt lat="47.89525" lon="-3.57346">
        <ele>71.91548412502</ele>
        <time>2022-01-09T14:28:48.622Z</time>
      </trkpt>
      <trkpt lat="47.8944" lon="-3.5724">
        <ele>70.738655202555</ele>
        <time>2022-01-09T14:28:54.981Z</time>
      </trkpt>
      <trkpt lat="47.89423" lon="-3.57217">
        <ele>69.70322995609</ele>
        <time>2022-01-09T14:29:01.343Z</time>
      </trkpt>
      <trkpt lat="47.89399" lon="-3.57181">
        <ele>68.611762046289</ele>
        <time>2022-01-09T14:29:07.709Z</time>
      </trkpt>
      <trkpt lat="47.89377" lon="-3.57142">
        <ele>67.840317055507</ele>
        <time>2022-01-09T14:29:14.079Z</time>
      </trkpt>
      <trkpt lat="47.89353" lon="-3.57082">
        <ele>67.459168145522</ele>
        <time>2022-01-09T14:29:20.455Z</time>
      </trkpt>
      <trkpt lat="47.89342" lon="-3.57049">
        <ele>67.360603308436</ele>
        <time>2022-01-09T14:29:26.834Z</time>
      </trkpt>
      <trkpt lat="47.89328" lon="-3.56999">
        <ele>67.293589331207</ele>
        <time>2022-01-09T14:29:33.218Z</time>
      </trkpt>
      <trkpt lat="47.89288" lon="-3.5683">
        <ele>67.533366781559</ele>
        <time>2022-01-09T14:29:39.617Z</time>
      </trkpt>
      <trkpt lat="47.8928" lon="-3.56801">
        <ele>67.948018300117</ele>
        <time>2022-01-09T14:29:46.018Z</time>
      </trkpt>
      <trkpt lat="47.89265" lon="-3.56761">
        <ele>68.518741971878</ele>
        <time>2022-01-09T14:29:52.423Z</time>
      </trkpt>
      <trkpt lat="47.89155" lon="-3.56544">
        <ele>69.356903638539</ele>
        <time>2022-01-09T14:29:58.851Z</time>
      </trkpt>
      <trkpt lat="47.89137" lon="-3.56515">
        <ele>69.950211535778</ele>
        <time>2022-01-09T14:30:05.283Z</time>
      </trkpt>
      <trkpt lat="47.89105" lon="-3.56471">
        <ele>70.433029960973</ele>
        <time>2022-01-09T14:30:11.720Z</time>
      </trkpt>
      <trkpt lat="47.89047" lon="-3.56399">
        <ele>71.073288297408</ele>
        <time>2022-01-09T14:30:18.166Z</time>
      </trkpt>
      <trkpt lat="47.89008" lon="-3.56356">
        <ele>71.542339682051</ele>
        <time>2022-01-09T14:30:24.619Z</time>
      </trkpt>
      <trkpt lat="47.88944" lon="-3.56276">
        <ele>71.849253509745</ele>
        <time>2022-01-09T14:30:31.082Z</time>
      </trkpt>
      <trkpt lat="47.88918" lon="-3.5624">
        <ele>71.423041258659</ele>
        <time>2022-01-09T14:30:37.549Z</time>
      </trkpt>
      <trkpt lat="47.88683" lon="-3.55939">
        <ele>70.523811233999</ele>
        <time>2022-01-09T14:30:44.055Z</time>
      </trkpt>
      <trkpt lat="47.88656" lon="-3.559">
        <ele>69.467673824675</ele>
        <time>2022-01-09T14:30:50.566Z</time>
      </trkpt>
      <trkpt lat="47.88622" lon="-3.55841">
        <ele>68.186207526348</ele>
        <time>2022-01-09T14:30:57.083Z</time>
      </trkpt>
      <trkpt lat="47.88603" lon="-3.55803">
        <ele>66.657069231614</ele>
        <time>2022-01-09T14:31:03.604Z</time>
      </trkpt>
      <trkpt lat="47.88586" lon="-3.5576">
        <ele>64.759890447439</ele>
        <time>2022-01-09T14:31:10.130Z</time>
      </trkpt>
      <trkpt lat="47.88313" lon="-3.54949">
        <ele>62.429084518112</ele>
        <time>2022-01-09T14:31:16.732Z</time>
      </trkpt>
      <trkpt lat="47.88283" lon="-3.54871">
        <ele>60.620692531378</ele>
        <time>2022-01-09T14:31:23.342Z</time>
      </trkpt>
      <trkpt lat="47.88251" lon="-3.54825">
        <ele>58.562891630212</ele>
        <time>2022-01-09T14:31:29.957Z</time>
      </trkpt>
      <trkpt lat="47.88096" lon="-3.54635">
        <ele>56.040047260481</ele>
        <time>2022-01-09T14:31:36.597Z</time>
      </trkpt>
      <trkpt lat="47.88076" lon="-3.54618">
        <ele>53.758067122583</ele>
        <time>2022-01-09T14:31:43.240Z</time>
      </trkpt>
      <trkpt lat="47.88055" lon="-3.54607">
        <ele>51.497924959009</ele>
        <time>2022-01-09T14:31:49.886Z</time>
      </trkpt>
      <trkpt lat="47.88043" lon="-3.54603">
        <ele>49.440251919311</ele>
        <time>2022-01-09T14:31:56.533Z</time>
      </trkpt>
      <trkpt lat="47.8802" lon="-3.54602">
        <ele>47.399973546088</ele>
        <time>2022-01-09T14:32:03.183Z</time>
      </trkpt>
      <trkpt lat="47.88008" lon="-3.54605">
        <ele>45.559055700984</ele>
        <time>2022-01-09T14:32:09.835Z</time>
      </trkpt>
      <trkpt lat="47.87997" lon="-3.54611">
        <ele>43.887953942727</ele>
        <time>2022-01-09T14:32:16.488Z</time>
      </trkpt>
      <trkpt lat="47.87979" lon="-3.54629">
        <ele>42.237317183856</ele>
        <time>2022-01-09T14:32:23.144Z</time>
      </trkpt>
      <trkpt lat="47.87964" lon="-3.54655">
        <ele>40.636486407929</ele>
        <time>2022-01-09T14:32:29.803Z</time>
      </trkpt>
      <trkpt lat="47.87942" lon="-3.5474">
        <ele>39.439789377654</ele>
        <time>2022-01-09T14:32:36.470Z</time>
      </trkpt>
      <trkpt lat="47.8793" lon="-3.54773">
        <ele>38.454406555401</ele>
        <time>2022-01-09T14:32:43.140Z</time>
      </trkpt>
      <trkpt lat="47.87922" lon="-3.54787">
        <ele>37.545658808149</ele>
        <time>2022-01-09T14:32:49.811Z</time>
      </trkpt>
      <trkpt lat="47.87912" lon="-3.54796">
        <ele>36.701611416205</ele>
        <time>2022-01-09T14:32:56.484Z</time>
      </trkpt>
      <trkpt lat="47.87901" lon="-3.54802">
        <ele>35.907804005626</ele>
        <time>2022-01-09T14:33:03.158Z</time>
      </trkpt>
      <trkpt lat="47.87889" lon="-3.54804">
        <ele>35.244562305719</ele>
        <time>2022-01-09T14:33:09.834Z</time>
      </trkpt>
      <trkpt lat="47.87877" lon="-3.54803">
        <ele>34.600442346827</ele>
        <time>2022-01-09T14:33:16.511Z</time>
      </trkpt>
      <trkpt lat="47.87866" lon="-3.54799">
        <ele>34.00916029401</ele>
        <time>2022-01-09T14:33:23.190Z</time>
      </trkpt>
      <trkpt lat="47.87856" lon="-3.54791">
        <ele>33.393547558282</ele>
        <time>2022-01-09T14:33:29.870Z</time>
      </trkpt>
      <trkpt lat="47.87849" lon="-3.54779">
        <ele>32.631825045977</ele>
        <time>2022-01-09T14:33:36.551Z</time>
      </trkpt>
      <trkpt lat="47.87837" lon="-3.54751">
        <ele>31.739604665365</ele>
        <time>2022-01-09T14:33:43.235Z</time>
      </trkpt>
      <trkpt lat="47.87818" lon="-3.54667">
        <ele>30.16788018298</ele>
        <time>2022-01-09T14:33:49.927Z</time>
      </trkpt>
      <trkpt lat="47.87807" lon="-3.54636">
        <ele>28.990908834331</ele>
        <time>2022-01-09T14:33:56.622Z</time>
      </trkpt>
      <trkpt lat="47.87799" lon="-3.54623">
        <ele>27.993415291823</ele>
        <time>2022-01-09T14:34:03.318Z</time>
      </trkpt>
      <trkpt lat="47.87789" lon="-3.54613">
        <ele>26.937644843844</ele>
        <time>2022-01-09T14:34:10.016Z</time>
      </trkpt>
      <trkpt lat="47.87778" lon="-3.54607">
        <ele>25.844033102917</ele>
        <time>2022-01-09T14:34:16.715Z</time>
      </trkpt>
      <trkpt lat="47.87767" lon="-3.54604">
        <ele>24.764288261605</ele>
        <time>2022-01-09T14:34:23.415Z</time>
      </trkpt>
      <trkpt lat="47.87756" lon="-3.54604">
        <ele>23.626223607081</ele>
        <time>2022-01-09T14:34:30.117Z</time>
      </trkpt>
      <trkpt lat="47.87723" lon="-3.5461">
        <ele>22.196099329114</ele>
        <time>2022-01-09T14:34:36.823Z</time>
      </trkpt>
      <trkpt lat="47.87652" lon="-3.54629">
        <ele>20.857459305686</ele>
        <time>2022-01-09T14:34:43.538Z</time>
      </trkpt>
      <trkpt lat="47.87629" lon="-3.54637">
        <ele>19.828694473277</ele>
        <time>2022-01-09T14:34:50.256Z</time>
      </trkpt>
      <trkpt lat="47.87605" lon="-3.54648">
        <ele>19.150228735876</ele>
        <time>2022-01-09T14:34:56.977Z</time>
      </trkpt>
      <trkpt lat="47.87573" lon="-3.54667">
        <ele>18.898196629911</ele>
        <time>2022-01-09T14:35:03.702Z</time>
      </trkpt>
      <trkpt lat="47.87501" lon="-3.54718">
        <ele>18.303791305052</ele>
        <time>2022-01-09T14:35:10.437Z</time>
      </trkpt>
      <trkpt lat="47.87486" lon="-3.54724">
        <ele>17.367504983685</ele>
        <time>2022-01-09T14:35:17.174Z</time>
      </trkpt>
      <trkpt lat="47.87461" lon="-3.5473">
        <ele>16.292091330229</ele>
        <time>2022-01-09T14:35:23.914Z</time>
      </trkpt>
      <trkpt lat="47.87452" lon="-3.54724">
        <ele>15.271474414808</ele>
        <time>2022-01-09T14:35:30.656Z</time>
      </trkpt>
      <trkpt lat="47.87451" lon="-3.54708">
        <ele>14.292960975019</ele>
        <time>2022-01-09T14:35:37.399Z</time>
      </trkpt>
      <trkpt lat="47.87458" lon="-3.54698">
        <ele>13.455311936799</ele>
        <time>2022-01-09T14:35:44.143Z</time>
      </trkpt>
      <trkpt lat="47.87483" lon="-3.54684">
        <ele>12.835494503874</ele>
        <time>2022-01-09T14:35:50.890Z</time>
      </trkpt>
      <trkpt lat="47.8752" lon="-3.54682">
        <ele>12.593340433097</ele>
        <time>2022-01-09T14:35:57.642Z</time>
      </trkpt>
      <trkpt lat="47.87536" lon="-3.54676">
        <ele>11.924486199264</ele>
        <time>2022-01-09T14:36:04.396Z</time>
      </trkpt>
      <trkpt lat="47.87618" lon="-3.54622">
        <ele>10.605906880868</ele>
        <time>2022-01-09T14:36:11.161Z</time>
      </trkpt>
      <trkpt lat="47.87653" lon="-3.54605">
        <ele>10.049792922516</ele>
        <time>2022-01-09T14:36:17.931Z</time>
      </trkpt>
      <trkpt lat="47.87679" lon="-3.54596">
        <ele>9.6794325765436</ele>
        <time>2022-01-09T14:36:24.704Z</time>
      </trkpt>
      <trkpt lat="47.87693" lon="-3.54586">
        <ele>9.2023783356542</ele>
        <time>2022-01-09T14:36:31.479Z</time>
      </trkpt>
      <trkpt lat="47.87694" lon="-3.54581">
        <ele>8.9340214982034</ele>
        <time>2022-01-09T14:36:38.255Z</time>
      </trkpt>
      <trkpt lat="47.87685" lon="-3.54439">
        <ele>8.720399174398</ele>
        <time>2022-01-09T14:36:45.043Z</time>
      </trkpt>
      <trkpt lat="47.87686" lon="-3.54417">
        <ele>8.9611065984119</ele>
        <time>2022-01-09T14:36:51.833Z</time>
      </trkpt>
      <trkpt lat="47.87689" lon="-3.54413">
        <ele>9.3634541248534</ele>
        <time>2022-01-09T14:36:58.623Z</time>
      </trkpt>
      <trkpt lat="47.87698" lon="-3.54411">
        <ele>9.99534822586</ele>
        <time>2022-01-09T14:37:05.414Z</time>
      </trkpt>
      <trkpt lat="47.87742" lon="-3.54426">
        <ele>11.094688144154</ele>
        <time>2022-01-09T14:37:12.211Z</time>
      </trkpt>
      <trkpt lat="47.87758" lon="-3.54428">
        <ele>12.222329955484</ele>
        <time>2022-01-09T14:37:19.010Z</time>
      </trkpt>
      <trkpt lat="47.87769" lon="-3.54426">
        <ele>13.516295296249</ele>
        <time>2022-01-09T14:37:25.810Z</time>
      </trkpt>
      <trkpt lat="47.87784" lon="-3.54417">
        <ele>15.051825867409</ele>
        <time>2022-01-09T14:37:32.612Z</time>
      </trkpt>
      <trkpt lat="47.87793" lon="-3.54408">
        <ele>16.741143023019</ele>
        <time>2022-01-09T14:37:39.416Z</time>
      </trkpt>
      <trkpt lat="47.87801" lon="-3.54397">
        <ele>18.597120600619</ele>
        <time>2022-01-09T14:37:46.221Z</time>
      </trkpt>
      <trkpt lat="47.87818" lon="-3.54365">
        <ele>20.729982423597</ele>
        <time>2022-01-09T14:37:53.029Z</time>
      </trkpt>
      <trkpt lat="47.87826" lon="-3.54336">
        <ele>22.787285297698</ele>
        <time>2022-01-09T14:37:59.840Z</time>
      </trkpt>
      <trkpt lat="47.87834" lon="-3.54251">
        <ele>25.167265801561</ele>
        <time>2022-01-09T14:38:06.658Z</time>
      </trkpt>
      <trkpt lat="47.87845" lon="-3.54163">
        <ele>27.721229482436</ele>
        <time>2022-01-09T14:38:13.484Z</time>
      </trkpt>
      <trkpt lat="47.87859" lon="-3.54098">
        <ele>30.046982335614</ele>
        <time>2022-01-09T14:38:20.315Z</time>
      </trkpt>
      <trkpt lat="47.87885" lon="-3.53992">
        <ele>32.373165506509</ele>
        <time>2022-01-09T14:38:27.156Z</time>
      </trkpt>
      <trkpt lat="47.87896" lon="-3.53956">
        <ele>34.369737031597</ele>
        <time>2022-01-09T14:38:34.000Z</time>
      </trkpt>
      <trkpt lat="47.87911" lon="-3.53911">
        <ele>36.50749764216</ele>
        <time>2022-01-09T14:38:40.848Z</time>
      </trkpt>
      <trkpt lat="47.87932" lon="-3.53866">
        <ele>38.221019445326</ele>
        <time>2022-01-09T14:38:47.701Z</time>
      </trkpt>
      <trkpt lat="47.87951" lon="-3.53837">
        <ele>39.747195423764</ele>
        <time>2022-01-09T14:38:54.558Z</time>
      </trkpt>
      <trkpt lat="47.87965" lon="-3.53823">
        <ele>41.185814595527</ele>
        <time>2022-01-09T14:39:01.417Z</time>
      </trkpt>
      <trkpt lat="47.87989" lon="-3.53807">
        <ele>42.589595120033</ele>
        <time>2022-01-09T14:39:08.279Z</time>
      </trkpt>
      <trkpt lat="47.88083" lon="-3.53763">
        <ele>43.981215435621</ele>
        <time>2022-01-09T14:39:15.153Z</time>
      </trkpt>
      <trkpt lat="47.88108" lon="-3.53742">
        <ele>45.134396657361</ele>
        <time>2022-01-09T14:39:22.031Z</time>
      </trkpt>
      <trkpt lat="47.88129" lon="-3.53718">
        <ele>46.557927272263</ele>
        <time>2022-01-09T14:39:28.912Z</time>
      </trkpt>
      <trkpt lat="47.88147" lon="-3.53696">
        <ele>47.994908162358</ele>
        <time>2022-01-09T14:39:35.796Z</time>
      </trkpt>
      <trkpt lat="47.88178" lon="-3.5365">
        <ele>49.292061989558</ele>
        <time>2022-01-09T14:39:42.686Z</time>
      </trkpt>
      <trkpt lat="47.88223" lon="-3.53589">
        <ele>50.595265211744</ele>
        <time>2022-01-09T14:39:49.583Z</time>
      </trkpt>
      <trkpt lat="47.88244" lon="-3.53556">
        <ele>52.139738971898</ele>
        <time>2022-01-09T14:39:56.484Z</time>
      </trkpt>
      <trkpt lat="47.88305" lon="-3.53431">
        <ele>53.750490187023</ele>
        <time>2022-01-09T14:40:03.398Z</time>
      </trkpt>
      <trkpt lat="47.88346" lon="-3.53355">
        <ele>55.611279676869</ele>
        <time>2022-01-09T14:40:10.320Z</time>
      </trkpt>
      <trkpt lat="47.88377" lon="-3.53311">
        <ele>57.177345608036</ele>
        <time>2022-01-09T14:40:17.248Z</time>
      </trkpt>
      <trkpt lat="47.88419" lon="-3.53262">
        <ele>58.925835622732</ele>
        <time>2022-01-09T14:40:24.182Z</time>
      </trkpt>
      <trkpt lat="47.88461" lon="-3.53223">
        <ele>60.405087038489</ele>
        <time>2022-01-09T14:40:31.122Z</time>
      </trkpt>
      <trkpt lat="47.885" lon="-3.53195">
        <ele>61.548728685997</ele>
        <time>2022-01-09T14:40:38.068Z</time>
      </trkpt>
      <trkpt lat="47.88554" lon="-3.53165">
        <ele>62.567704587361</ele>
        <time>2022-01-09T14:40:45.021Z</time>
      </trkpt>
      <trkpt lat="47.88569" lon="-3.53158">
        <ele>63.758612777769</ele>
        <time>2022-01-09T14:40:51.976Z</time>
      </trkpt>
      <trkpt lat="47.88618" lon="-3.53147">
        <ele>65.150194181078</ele>
        <time>2022-01-09T14:40:58.937Z</time>
      </trkpt>
      <trkpt lat="47.88677" lon="-3.53128">
        <ele>66.574259071885</ele>
        <time>2022-01-09T14:41:05.906Z</time>
      </trkpt>
      <trkpt lat="47.88777" lon="-3.53086">
        <ele>68.203408161036</ele>
        <time>2022-01-09T14:41:12.888Z</time>
      </trkpt>
      <trkpt lat="47.88807" lon="-3.53072">
        <ele>69.743589596525</ele>
        <time>2022-01-09T14:41:19.874Z</time>
      </trkpt>
      <trkpt lat="47.88825" lon="-3.53061">
        <ele>71.330427681781</ele>
        <time>2022-01-09T14:41:26.862Z</time>
      </trkpt>
      <trkpt lat="47.88862" lon="-3.53035">
        <ele>73.191993229443</ele>
        <time>2022-01-09T14:41:33.855Z</time>
      </trkpt>
      <trkpt lat="47.88878" lon="-3.53025">
        <ele>74.898548465064</ele>
        <time>2022-01-09T14:41:40.850Z</time>
      </trkpt>
      <trkpt lat="47.88894" lon="-3.53017">
        <ele>76.569750450075</ele>
        <time>2022-01-09T14:41:47.848Z</time>
      </trkpt>
      <trkpt lat="47.88928" lon="-3.53007">
        <ele>78.182173439424</ele>
        <time>2022-01-09T14:41:54.850Z</time>
      </trkpt>
      <trkpt lat="47.89056" lon="-3.52979">
        <ele>80.860544115825</ele>
        <time>2022-01-09T14:42:01.868Z</time>
      </trkpt>
      <trkpt lat="47.89096" lon="-3.52965">
        <ele>82.571966307827</ele>
        <time>2022-01-09T14:42:08.891Z</time>
      </trkpt>
      <trkpt lat="47.89116" lon="-3.52956">
        <ele>83.984624490188</ele>
        <time>2022-01-09T14:42:15.917Z</time>
      </trkpt>
      <trkpt lat="47.89136" lon="-3.52942">
        <ele>85.219488473684</ele>
        <time>2022-01-09T14:42:22.946Z</time>
      </trkpt>
      <trkpt lat="47.89208" lon="-3.52877">
        <ele>86.21925658288</ele>
        <time>2022-01-09T14:42:29.985Z</time>
      </trkpt>
      <trkpt lat="47.89254" lon="-3.5284">
        <ele>87.142822786949</ele>
        <time>2022-01-09T14:42:37.031Z</time>
      </trkpt>
      <trkpt lat="47.89289" lon="-3.52818">
        <ele>87.958251088238</ele>
        <time>2022-01-09T14:42:44.081Z</time>
      </trkpt>
      <trkpt lat="47.89372" lon="-3.52768">
        <ele>88.480301662521</ele>
        <time>2022-01-09T14:42:51.143Z</time>
      </trkpt>
      <trkpt lat="47.89417" lon="-3.52738">
        <ele>88.635261755545</ele>
        <time>2022-01-09T14:42:58.211Z</time>
      </trkpt>
      <trkpt lat="47.89468" lon="-3.527">
        <ele>88.895324242884</ele>
        <time>2022-01-09T14:43:05.286Z</time>
      </trkpt>
      <trkpt lat="47.89501" lon="-3.52668">
        <ele>89.20439074374</ele>
        <time>2022-01-09T14:43:12.366Z</time>
      </trkpt>
      <trkpt lat="47.89597" lon="-3.52556">
        <ele>89.399726110712</ele>
        <time>2022-01-09T14:43:19.461Z</time>
      </trkpt>
      <trkpt lat="47.89642" lon="-3.52508">
        <ele>89.403213423824</ele>
        <time>2022-01-09T14:43:26.563Z</time>
      </trkpt>
      <trkpt lat="47.89664" lon="-3.52488">
        <ele>89.201929524698</ele>
        <time>2022-01-09T14:43:33.668Z</time>
      </trkpt>
      <trkpt lat="47.89687" lon="-3.52472">
        <ele>88.796307299847</ele>
        <time>2022-01-09T14:43:40.776Z</time>
      </trkpt>
      <trkpt lat="47.8976" lon="-3.52431">
        <ele>88.106646608616</ele>
        <time>2022-01-09T14:43:47.894Z</time>
      </trkpt>
      <trkpt lat="47.89782" lon="-3.52414">
        <ele>87.280587988507</ele>
        <time>2022-01-09T14:43:55.015Z</time>
      </trkpt>
      <trkpt lat="47.90018" lon="-3.52208">
        <ele>85.071812730032</ele>
        <time>2022-01-09T14:44:02.171Z</time>
      </trkpt>
      <trkpt lat="47.9006" lon="-3.52177">
        <ele>84.162999304826</ele>
        <time>2022-01-09T14:44:09.332Z</time>
      </trkpt>
      <trkpt lat="47.90152" lon="-3.52115">
        <ele>83.48708309461</ele>
        <time>2022-01-09T14:44:16.506Z</time>
      </trkpt>
      <trkpt lat="47.90201" lon="-3.52086">
        <ele>82.813897695127</ele>
        <time>2022-01-09T14:44:23.687Z</time>
      </trkpt>
      <trkpt lat="47.90221" lon="-3.52077">
        <ele>82.490016004386</ele>
        <time>2022-01-09T14:44:30.870Z</time>
      </trkpt>
      <trkpt lat="47.90251" lon="-3.52069">
        <ele>82.32696891749</ele>
        <time>2022-01-09T14:44:38.057Z</time>
      </trkpt>
      <trkpt lat="47.9033" lon="-3.52049">
        <ele>82.449486101175</ele>
        <time>2022-01-09T14:44:45.254Z</time>
      </trkpt>
      <trkpt lat="47.90435" lon="-3.52019">
        <ele>82.886375814497</ele>
        <time>2022-01-09T14:44:52.464Z</time>
      </trkpt>
      <trkpt lat="47.90513" lon="-3.51993">
        <ele>83.094935536458</ele>
        <time>2022-01-09T14:44:59.684Z</time>
      </trkpt>
      <trkpt lat="47.90549" lon="-3.51973">
        <ele>83.250690416027</ele>
        <time>2022-01-09T14:45:06.909Z</time>
      </trkpt>
      <trkpt lat="47.90587" lon="-3.51946">
        <ele>83.092621886005</ele>
        <time>2022-01-09T14:45:14.140Z</time>
      </trkpt>
      <trkpt lat="47.90613" lon="-3.51931">
        <ele>82.762854610283</ele>
        <time>2022-01-09T14:45:21.374Z</time>
      </trkpt>
      <trkpt lat="47.90626" lon="-3.51926">
        <ele>82.283601479183</ele>
        <time>2022-01-09T14:45:28.610Z</time>
      </trkpt>
      <trkpt lat="47.90668" lon="-3.51922">
        <ele>81.590264672234</ele>
        <time>2022-01-09T14:45:35.851Z</time>
      </trkpt>
      <trkpt lat="47.90728" lon="-3.51922">
        <ele>80.500426435532</ele>
        <time>2022-01-09T14:45:43.099Z</time>
      </trkpt>
      <trkpt lat="47.90797" lon="-3.51913">
        <ele>79.216608114505</ele>
        <time>2022-01-09T14:45:50.356Z</time>
      </trkpt>
      <trkpt lat="47.90851" lon="-3.5191">
        <ele>77.813821504122</ele>
        <time>2022-01-09T14:45:57.620Z</time>
      </trkpt>
      <trkpt lat="47.90873" lon="-3.5191">
        <ele>76.573568394238</ele>
        <time>2022-01-09T14:46:04.887Z</time>
      </trkpt>
      <trkpt lat="47.90918" lon="-3.51915">
        <ele>75.294960986704</ele>
        <time>2022-01-09T14:46:12.159Z</time>
      </trkpt>
      <trkpt lat="47.91029" lon="-3.51928">
        <ele>73.544558758793</ele>
        <time>2022-01-09T14:46:19.445Z</time>
      </trkpt>
      <trkpt lat="47.91083" lon="-3.51925">
        <ele>72.514691986652</ele>
        <time>2022-01-09T14:46:26.738Z</time>
      </trkpt>
      <trkpt lat="47.91251" lon="-3.51895">
        <ele>71.796853089832</ele>
        <time>2022-01-09T14:46:34.052Z</time>
      </trkpt>
      <trkpt lat="47.914" lon="-3.51871">
        <ele>70.737186917647</ele>
        <time>2022-01-09T14:46:41.385Z</time>
      </trkpt>
      <trkpt lat="47.9149" lon="-3.5186">
        <ele>71.130719377729</ele>
        <time>2022-01-09T14:46:48.729Z</time>
      </trkpt>
      <trkpt lat="47.91512" lon="-3.51859">
        <ele>71.576110964796</ele>
        <time>2022-01-09T14:46:56.076Z</time>
      </trkpt>
      <trkpt lat="47.91537" lon="-3.51862">
        <ele>72.345978913638</ele>
        <time>2022-01-09T14:47:03.426Z</time>
      </trkpt>
      <trkpt lat="47.91602" lon="-3.51875">
        <ele>73.428872702361</ele>
        <time>2022-01-09T14:47:10.784Z</time>
      </trkpt>
      <trkpt lat="47.91619" lon="-3.51876">
        <ele>74.464220668559</ele>
        <time>2022-01-09T14:47:18.144Z</time>
      </trkpt>
      <trkpt lat="47.91638" lon="-3.51873">
        <ele>75.664188997791</ele>
        <time>2022-01-09T14:47:25.507Z</time>
      </trkpt>
      <trkpt lat="47.9166" lon="-3.51862">
        <ele>76.999160668275</ele>
        <time>2022-01-09T14:47:32.873Z</time>
      </trkpt>
      <trkpt lat="47.91681" lon="-3.51847">
        <ele>78.411227346084</ele>
        <time>2022-01-09T14:47:40.242Z</time>
      </trkpt>
      <trkpt lat="47.91698" lon="-3.51829">
        <ele>79.902542576796</ele>
        <time>2022-01-09T14:47:47.613Z</time>
      </trkpt>
      <trkpt lat="47.91762" lon="-3.51723">
        <ele>81.64251436862</ele>
        <time>2022-01-09T14:47:54.996Z</time>
      </trkpt>
      <trkpt lat="47.91783" lon="-3.51692">
        <ele>83.039917947093</ele>
        <time>2022-01-09T14:48:02.383Z</time>
      </trkpt>
      <trkpt lat="47.91801" lon="-3.5167">
        <ele>84.297439084745</ele>
        <time>2022-01-09T14:48:09.773Z</time>
      </trkpt>
      <trkpt lat="47.91823" lon="-3.51654">
        <ele>85.43697709169</ele>
        <time>2022-01-09T14:48:17.166Z</time>
      </trkpt>
      <trkpt lat="47.91835" lon="-3.51649">
        <ele>86.28048444214</ele>
        <time>2022-01-09T14:48:24.560Z</time>
      </trkpt>
      <trkpt lat="47.91847" lon="-3.51646">
        <ele>86.90818400889</ele>
        <time>2022-01-09T14:48:31.956Z</time>
      </trkpt>
      <trkpt lat="47.91884" lon="-3.51643">
        <ele>87.314194992655</ele>
        <time>2022-01-09T14:48:39.357Z</time>
      </trkpt>
      <trkpt lat="47.9192" lon="-3.51643">
        <ele>87.505964472534</ele>
        <time>2022-01-09T14:48:46.762Z</time>
      </trkpt>
      <trkpt lat="47.91991" lon="-3.5165">
        <ele>87.364071865833</ele>
        <time>2022-01-09T14:48:54.176Z</time>
      </trkpt>
      <trkpt lat="47.92022" lon="-3.51657">
        <ele>87.246513627795</ele>
        <time>2022-01-09T14:49:01.594Z</time>
      </trkpt>
      <trkpt lat="47.92095" lon="-3.51677">
        <ele>86.433953634891</ele>
        <time>2022-01-09T14:49:09.021Z</time>
      </trkpt>
      <trkpt lat="47.92125" lon="-3.51682">
        <ele>86.206128437389</ele>
        <time>2022-01-09T14:49:16.452Z</time>
      </trkpt>
      <trkpt lat="47.92328" lon="-3.5166">
        <ele>85.989906650295</ele>
        <time>2022-01-09T14:49:23.908Z</time>
      </trkpt>
      <trkpt lat="47.92349" lon="-3.51655">
        <ele>85.798257062147</ele>
        <time>2022-01-09T14:49:31.367Z</time>
      </trkpt>
      <trkpt lat="47.92363" lon="-3.5165">
        <ele>85.732279803112</ele>
        <time>2022-01-09T14:49:38.828Z</time>
      </trkpt>
      <trkpt lat="47.92388" lon="-3.51632">
        <ele>85.81760050616</ele>
        <time>2022-01-09T14:49:46.292Z</time>
      </trkpt>
      <trkpt lat="47.92405" lon="-3.51616">
        <ele>85.867750475797</ele>
        <time>2022-01-09T14:49:53.759Z</time>
      </trkpt>
      <trkpt lat="47.92485" lon="-3.5153">
        <ele>86.005199291913</ele>
        <time>2022-01-09T14:50:01.238Z</time>
      </trkpt>
      <trkpt lat="47.92542" lon="-3.51473">
        <ele>85.698622322215</ele>
        <time>2022-01-09T14:50:08.726Z</time>
      </trkpt>
      <trkpt lat="47.92565" lon="-3.51451">
        <ele>85.579970725591</ele>
        <time>2022-01-09T14:50:16.217Z</time>
      </trkpt>
      <trkpt lat="47.92591" lon="-3.51434">
        <ele>85.63885146371</ele>
        <time>2022-01-09T14:50:23.712Z</time>
      </trkpt>
      <trkpt lat="47.92608" lon="-3.51425">
        <ele>85.885874262516</ele>
        <time>2022-01-09T14:50:31.209Z</time>
      </trkpt>
      <trkpt lat="47.92651" lon="-3.51407">
        <ele>86.35724670617</ele>
        <time>2022-01-09T14:50:38.712Z</time>
      </trkpt>
      <trkpt lat="47.92998" lon="-3.51281">
        <ele>86.714859737208</ele>
        <time>2022-01-09T14:50:46.259Z</time>
      </trkpt>
      <trkpt lat="47.93026" lon="-3.51268">
        <ele>87.307455367208</ele>
        <time>2022-01-09T14:50:53.810Z</time>
      </trkpt>
      <trkpt lat="47.93044" lon="-3.51257">
        <ele>88.093856831354</ele>
        <time>2022-01-09T14:51:01.363Z</time>
      </trkpt>
      <trkpt lat="47.93116" lon="-3.51205">
        <ele>89.267723143842</ele>
        <time>2022-01-09T14:51:08.926Z</time>
      </trkpt>
      <trkpt lat="47.93131" lon="-3.51196">
        <ele>90.334328625423</ele>
        <time>2022-01-09T14:51:16.491Z</time>
      </trkpt>
      <trkpt lat="47.9319" lon="-3.51167">
        <ele>91.725981047133</ele>
        <time>2022-01-09T14:51:24.064Z</time>
      </trkpt>
      <trkpt lat="47.9325" lon="-3.51144">
        <ele>93.390931806408</ele>
        <time>2022-01-09T14:51:31.645Z</time>
      </trkpt>
      <trkpt lat="47.93292" lon="-3.51133">
        <ele>94.856790998422</ele>
        <time>2022-01-09T14:51:39.231Z</time>
      </trkpt>
      <trkpt lat="47.93381" lon="-3.51117">
        <ele>96.143836387804</ele>
        <time>2022-01-09T14:51:46.828Z</time>
      </trkpt>
      <trkpt lat="47.93431" lon="-3.51114">
        <ele>97.013972303935</ele>
        <time>2022-01-09T14:51:54.432Z</time>
      </trkpt>
      <trkpt lat="47.93461" lon="-3.51109">
        <ele>97.896220265377</ele>
        <time>2022-01-09T14:52:02.040Z</time>
      </trkpt>
      <trkpt lat="47.93471" lon="-3.51106">
        <ele>98.840336220468</ele>
        <time>2022-01-09T14:52:09.649Z</time>
      </trkpt>
      <trkpt lat="47.93817" lon="-3.50932">
        <ele>100.0193857049</ele>
        <time>2022-01-09T14:52:17.304Z</time>
      </trkpt>
      <trkpt lat="47.93852" lon="-3.50918">
        <ele>101.09048836855</ele>
        <time>2022-01-09T14:52:24.963Z</time>
      </trkpt>
      <trkpt lat="47.93873" lon="-3.50911">
        <ele>101.98113098569</ele>
        <time>2022-01-09T14:52:32.625Z</time>
      </trkpt>
      <trkpt lat="47.939" lon="-3.50906">
        <ele>102.78296209169</ele>
        <time>2022-01-09T14:52:40.290Z</time>
      </trkpt>
      <trkpt lat="47.9395" lon="-3.50902">
        <ele>103.50816791084</ele>
        <time>2022-01-09T14:52:47.961Z</time>
      </trkpt>
      <trkpt lat="47.93987" lon="-3.50903">
        <ele>103.91882487211</ele>
        <time>2022-01-09T14:52:55.637Z</time>
      </trkpt>
      <trkpt lat="47.94026" lon="-3.50908">
        <ele>103.95811544911</ele>
        <time>2022-01-09T14:53:03.318Z</time>
      </trkpt>
      <trkpt lat="47.94099" lon="-3.50914">
        <ele>103.54295882663</ele>
        <time>2022-01-09T14:53:11.008Z</time>
      </trkpt>
      <trkpt lat="47.94171" lon="-3.50922">
        <ele>103.26145528179</ele>
        <time>2022-01-09T14:53:18.707Z</time>
      </trkpt>
      <trkpt lat="47.94245" lon="-3.50932">
        <ele>103.18614536431</ele>
        <time>2022-01-09T14:53:26.415Z</time>
      </trkpt>
      <trkpt lat="47.94265" lon="-3.50933">
        <ele>103.14513803406</ele>
        <time>2022-01-09T14:53:34.126Z</time>
      </trkpt>
      <trkpt lat="47.94303" lon="-3.50922">
        <ele>103.1587027084</ele>
        <time>2022-01-09T14:53:41.842Z</time>
      </trkpt>
      <trkpt lat="47.94353" lon="-3.50891">
        <ele>103.2284423117</ele>
        <time>2022-01-09T14:53:49.565Z</time>
      </trkpt>
      <trkpt lat="47.94361" lon="-3.50887">
        <ele>103.1631408797</ele>
        <time>2022-01-09T14:53:57.289Z</time>
      </trkpt>
      <trkpt lat="47.94378" lon="-3.50882">
        <ele>103.12501388379</ele>
        <time>2022-01-09T14:54:05.015Z</time>
      </trkpt>
      <trkpt lat="47.94434" lon="-3.50874">
        <ele>103.27113434724</ele>
        <time>2022-01-09T14:54:12.748Z</time>
      </trkpt>
      <trkpt lat="47.94451" lon="-3.50868">
        <ele>103.32877378054</ele>
        <time>2022-01-09T14:54:20.483Z</time>
      </trkpt>
      <trkpt lat="47.94534" lon="-3.50825">
        <ele>103.35849181005</ele>
        <time>2022-01-09T14:54:28.229Z</time>
      </trkpt>
      <trkpt lat="47.94577" lon="-3.50808">
        <ele>103.53690667536</ele>
        <time>2022-01-09T14:54:35.980Z</time>
      </trkpt>
      <trkpt lat="47.94688" lon="-3.50777">
        <ele>104.06891953143</ele>
        <time>2022-01-09T14:54:43.746Z</time>
      </trkpt>
      <trkpt lat="47.94737" lon="-3.50753">
        <ele>104.62341761539</ele>
        <time>2022-01-09T14:54:51.518Z</time>
      </trkpt>
      <trkpt lat="47.94743" lon="-3.50747">
        <ele>105.14730294557</ele>
        <time>2022-01-09T14:54:59.291Z</time>
      </trkpt>
      <trkpt lat="47.94756" lon="-3.50726">
        <ele>105.79582889967</ele>
        <time>2022-01-09T14:55:07.066Z</time>
      </trkpt>
      <trkpt lat="47.94774" lon="-3.50672">
        <ele>106.70368677075</ele>
        <time>2022-01-09T14:55:14.846Z</time>
      </trkpt>
      <trkpt lat="47.94784" lon="-3.50648">
        <ele>107.70738256606</ele>
        <time>2022-01-09T14:55:22.629Z</time>
      </trkpt>
      <trkpt lat="47.94794" lon="-3.50634">
        <ele>108.74249032778</ele>
        <time>2022-01-09T14:55:30.414Z</time>
      </trkpt>
      <trkpt lat="47.94806" lon="-3.50625">
        <ele>109.84212308492</ele>
        <time>2022-01-09T14:55:38.200Z</time>
      </trkpt>
      <trkpt lat="47.94818" lon="-3.5062">
        <ele>111.05415708741</ele>
        <time>2022-01-09T14:55:45.988Z</time>
      </trkpt>
      <trkpt lat="47.94831" lon="-3.5062">
        <ele>112.46602769728</ele>
        <time>2022-01-09T14:55:53.777Z</time>
      </trkpt>
      <trkpt lat="47.94843" lon="-3.50624">
        <ele>113.99867982615</ele>
        <time>2022-01-09T14:56:01.568Z</time>
      </trkpt>
      <trkpt lat="47.94853" lon="-3.50633">
        <ele>115.65232683974</ele>
        <time>2022-01-09T14:56:09.360Z</time>
      </trkpt>
      <trkpt lat="47.94862" lon="-3.50645">
        <ele>117.452732497</ele>
        <time>2022-01-09T14:56:17.154Z</time>
      </trkpt>
      <trkpt lat="47.949" lon="-3.50728">
        <ele>119.74359606143</ele>
        <time>2022-01-09T14:56:24.956Z</time>
      </trkpt>
      <trkpt lat="47.94976" lon="-3.509">
        <ele>122.37396431072</ele>
        <time>2022-01-09T14:56:32.776Z</time>
      </trkpt>
      <trkpt lat="47.9499" lon="-3.50928">
        <ele>124.36707377727</ele>
        <time>2022-01-09T14:56:40.599Z</time>
      </trkpt>
      <trkpt lat="47.95003" lon="-3.50945">
        <ele>126.33805156315</ele>
        <time>2022-01-09T14:56:48.424Z</time>
      </trkpt>
      <trkpt lat="47.95012" lon="-3.50952">
        <ele>128.20730925087</ele>
        <time>2022-01-09T14:56:56.250Z</time>
      </trkpt>
      <trkpt lat="47.95023" lon="-3.50957">
        <ele>129.89786343176</ele>
        <time>2022-01-09T14:57:04.077Z</time>
      </trkpt>
      <trkpt lat="47.95029" lon="-3.50958">
        <ele>131.35774507416</ele>
        <time>2022-01-09T14:57:11.905Z</time>
      </trkpt>
      <trkpt lat="47.9504" lon="-3.50957">
        <ele>132.6665014935</ele>
        <time>2022-01-09T14:57:19.735Z</time>
      </trkpt>
      <trkpt lat="47.95046" lon="-3.50955">
        <ele>133.72389571358</ele>
        <time>2022-01-09T14:57:27.565Z</time>
      </trkpt>
      <trkpt lat="47.95061" lon="-3.50943">
        <ele>134.60585916774</ele>
        <time>2022-01-09T14:57:35.398Z</time>
      </trkpt>
      <trkpt lat="47.9508" lon="-3.50922">
        <ele>135.2809622169</ele>
        <time>2022-01-09T14:57:43.233Z</time>
      </trkpt>
      <trkpt lat="47.95168" lon="-3.50805">
        <ele>135.83382586005</ele>
        <time>2022-01-09T14:57:51.083Z</time>
      </trkpt>
      <trkpt lat="47.9519" lon="-3.50779">
        <ele>136.26956550084</ele>
        <time>2022-01-09T14:57:58.937Z</time>
      </trkpt>
      <trkpt lat="47.95213" lon="-3.50756">
        <ele>136.52186929472</ele>
        <time>2022-01-09T14:58:06.794Z</time>
      </trkpt>
      <trkpt lat="47.95246" lon="-3.50732">
        <ele>136.63233113977</ele>
        <time>2022-01-09T14:58:14.656Z</time>
      </trkpt>
      <trkpt lat="47.95344" lon="-3.50664">
        <ele>137.56826202148</ele>
        <time>2022-01-09T14:58:22.531Z</time>
      </trkpt>
      <trkpt lat="47.95384" lon="-3.50638">
        <ele>137.52968680748</ele>
        <time>2022-01-09T14:58:30.412Z</time>
      </trkpt>
      <trkpt lat="47.95688" lon="-3.50419">
        <ele>136.00224102977</ele>
        <time>2022-01-09T14:58:38.335Z</time>
      </trkpt>
      <trkpt lat="47.95742" lon="-3.50391">
        <ele>135.45015364755</ele>
        <time>2022-01-09T14:58:46.265Z</time>
      </trkpt>
      <trkpt lat="47.95861" lon="-3.50353">
        <ele>134.81739364201</ele>
        <time>2022-01-09T14:58:54.210Z</time>
      </trkpt>
      <trkpt lat="47.95918" lon="-3.50337">
        <ele>134.3987329513</ele>
        <time>2022-01-09T14:59:02.163Z</time>
      </trkpt>
      <trkpt lat="47.95955" lon="-3.50332">
        <ele>134.22363902466</ele>
        <time>2022-01-09T14:59:10.120Z</time>
      </trkpt>
      <trkpt lat="47.95964" lon="-3.50333">
        <ele>133.74200621849</ele>
        <time>2022-01-09T14:59:18.078Z</time>
      </trkpt>
      <trkpt lat="47.96" lon="-3.50347">
        <ele>133.32336087423</ele>
        <time>2022-01-09T14:59:26.041Z</time>
      </trkpt>
      <trkpt lat="47.96037" lon="-3.50365">
        <ele>132.16456794923</ele>
        <time>2022-01-09T14:59:34.009Z</time>
      </trkpt>
      <trkpt lat="47.96056" lon="-3.50365">
        <ele>131.48544399658</ele>
        <time>2022-01-09T14:59:41.979Z</time>
      </trkpt>
      <trkpt lat="47.96075" lon="-3.5036">
        <ele>130.99055824876</ele>
        <time>2022-01-09T14:59:49.952Z</time>
      </trkpt>
      <trkpt lat="47.96107" lon="-3.50342">
        <ele>130.8367146229</ele>
        <time>2022-01-09T14:59:57.929Z</time>
      </trkpt>
      <trkpt lat="47.96146" lon="-3.50319">
        <ele>130.90532792624</ele>
        <time>2022-01-09T15:00:05.911Z</time>
      </trkpt>
      <trkpt lat="47.96182" lon="-3.50293">
        <ele>131.04911984746</ele>
        <time>2022-01-09T15:00:13.898Z</time>
      </trkpt>
      <trkpt lat="47.96202" lon="-3.50273">
        <ele>131.3353305564</ele>
        <time>2022-01-09T15:00:21.888Z</time>
      </trkpt>
      <trkpt lat="47.96214" lon="-3.50256">
        <ele>131.7520377405</ele>
        <time>2022-01-09T15:00:29.880Z</time>
      </trkpt>
      <trkpt lat="47.96239" lon="-3.50211">
        <ele>132.31536016921</ele>
        <time>2022-01-09T15:00:37.877Z</time>
      </trkpt>
      <trkpt lat="47.96252" lon="-3.50199">
        <ele>132.71773076444</ele>
        <time>2022-01-09T15:00:45.876Z</time>
      </trkpt>
      <trkpt lat="47.96266" lon="-3.50192">
        <ele>133.05472638932</ele>
        <time>2022-01-09T15:00:53.877Z</time>
      </trkpt>
      <trkpt lat="47.96344" lon="-3.50189">
        <ele>133.57921208588</ele>
        <time>2022-01-09T15:01:01.888Z</time>
      </trkpt>
      <trkpt lat="47.96363" lon="-3.50183">
        <ele>133.67647616071</ele>
        <time>2022-01-09T15:01:09.901Z</time>
      </trkpt>
      <trkpt lat="47.96374" lon="-3.50175">
        <ele>133.52938513421</ele>
        <time>2022-01-09T15:01:17.916Z</time>
      </trkpt>
      <trkpt lat="47.96389" lon="-3.50158">
        <ele>133.10912969829</ele>
        <time>2022-01-09T15:01:25.933Z</time>
      </trkpt>
      <trkpt lat="47.96469" lon="-3.50051">
        <ele>132.28219716627</ele>
        <time>2022-01-09T15:01:33.964Z</time>
      </trkpt>
      <trkpt lat="47.96573" lon="-3.49918">
        <ele>130.90832745641</ele>
        <time>2022-01-09T15:01:42.012Z</time>
      </trkpt>
      <trkpt lat="47.96601" lon="-3.49868">
        <ele>129.66067268543</ele>
        <time>2022-01-09T15:01:50.065Z</time>
      </trkpt>
      <trkpt lat="47.96617" lon="-3.49822">
        <ele>128.21100995043</ele>
        <time>2022-01-09T15:01:58.122Z</time>
      </trkpt>
      <trkpt lat="47.96628" lon="-3.49772">
        <ele>126.40318499649</ele>
        <time>2022-01-09T15:02:06.184Z</time>
      </trkpt>
      <trkpt lat="47.96668" lon="-3.49539">
        <ele>123.42217133953</ele>
        <time>2022-01-09T15:02:14.266Z</time>
      </trkpt>
      <trkpt lat="47.9668" lon="-3.49513">
        <ele>121.3287970118</ele>
        <time>2022-01-09T15:02:22.351Z</time>
      </trkpt>
      <trkpt lat="47.96702" lon="-3.49502">
        <ele>119.30155870349</ele>
        <time>2022-01-09T15:02:30.439Z</time>
      </trkpt>
      <trkpt lat="47.96722" lon="-3.49508">
        <ele>117.34269969718</ele>
        <time>2022-01-09T15:02:38.529Z</time>
      </trkpt>
      <trkpt lat="47.96783" lon="-3.49547">
        <ele>115.58571618023</ele>
        <time>2022-01-09T15:02:46.628Z</time>
      </trkpt>
      <trkpt lat="47.96806" lon="-3.49555">
        <ele>113.51772787849</ele>
        <time>2022-01-09T15:02:54.729Z</time>
      </trkpt>
      <trkpt lat="47.96874" lon="-3.49556">
        <ele>110.58237151773</ele>
        <time>2022-01-09T15:03:02.839Z</time>
      </trkpt>
      <trkpt lat="47.96899" lon="-3.49558">
        <ele>108.46998032058</ele>
        <time>2022-01-09T15:03:10.952Z</time>
      </trkpt>
      <trkpt lat="47.96925" lon="-3.49555">
        <ele>106.52178245549</ele>
        <time>2022-01-09T15:03:19.068Z</time>
      </trkpt>
      <trkpt lat="47.96938" lon="-3.4955">
        <ele>104.851672586</ele>
        <time>2022-01-09T15:03:27.186Z</time>
      </trkpt>
      <trkpt lat="47.9695" lon="-3.49542">
        <ele>103.33504203588</ele>
        <time>2022-01-09T15:03:35.306Z</time>
      </trkpt>
      <trkpt lat="47.96961" lon="-3.49531">
        <ele>101.92174076375</ele>
        <time>2022-01-09T15:03:43.427Z</time>
      </trkpt>
      <trkpt lat="47.96971" lon="-3.49518">
        <ele>100.6563515235</ele>
        <time>2022-01-09T15:03:51.550Z</time>
      </trkpt>
      <trkpt lat="47.96996" lon="-3.49477">
        <ele>99.56162487647</ele>
        <time>2022-01-09T15:03:59.678Z</time>
      </trkpt>
      <trkpt lat="47.97005" lon="-3.49467">
        <ele>98.56506708123</ele>
        <time>2022-01-09T15:04:07.807Z</time>
      </trkpt>
      <trkpt lat="47.97015" lon="-3.49459">
        <ele>97.59921707118</ele>
        <time>2022-01-09T15:04:15.938Z</time>
      </trkpt>
      <trkpt lat="47.97026" lon="-3.49455">
        <ele>96.609024176973</ele>
        <time>2022-01-09T15:04:24.070Z</time>
      </trkpt>
      <trkpt lat="47.97037" lon="-3.49454">
        <ele>95.609557081115</ele>
        <time>2022-01-09T15:04:32.203Z</time>
      </trkpt>
      <trkpt lat="47.9706" lon="-3.49459">
        <ele>94.426303608032</ele>
        <time>2022-01-09T15:04:40.339Z</time>
      </trkpt>
      <trkpt lat="47.97167" lon="-3.49495">
        <ele>92.258918887607</ele>
        <time>2022-01-09T15:04:48.489Z</time>
      </trkpt>
      <trkpt lat="47.97192" lon="-3.49506">
        <ele>91.051617709758</ele>
        <time>2022-01-09T15:04:56.642Z</time>
      </trkpt>
      <trkpt lat="47.97216" lon="-3.49522">
        <ele>89.886034111474</ele>
        <time>2022-01-09T15:05:04.799Z</time>
      </trkpt>
      <trkpt lat="47.9725" lon="-3.4955">
        <ele>88.693253386141</ele>
        <time>2022-01-09T15:05:12.960Z</time>
      </trkpt>
      <trkpt lat="47.97263" lon="-3.49558">
        <ele>87.521040625788</ele>
        <time>2022-01-09T15:05:21.123Z</time>
      </trkpt>
      <trkpt lat="47.97275" lon="-3.49561">
        <ele>86.429825666496</ele>
        <time>2022-01-09T15:05:29.288Z</time>
      </trkpt>
      <trkpt lat="47.97288" lon="-3.49562">
        <ele>85.344601188519</ele>
        <time>2022-01-09T15:05:37.454Z</time>
      </trkpt>
      <trkpt lat="47.97301" lon="-3.49559">
        <ele>84.254525382946</ele>
        <time>2022-01-09T15:05:45.622Z</time>
      </trkpt>
      <trkpt lat="47.97376" lon="-3.49524">
        <ele>82.880491062821</ele>
        <time>2022-01-09T15:05:53.800Z</time>
      </trkpt>
      <trkpt lat="47.97413" lon="-3.49509">
        <ele>81.835844735996</ele>
        <time>2022-01-09T15:06:01.983Z</time>
      </trkpt>
      <trkpt lat="47.97426" lon="-3.49507">
        <ele>80.747144081435</ele>
        <time>2022-01-09T15:06:10.167Z</time>
      </trkpt>
      <trkpt lat="47.97452" lon="-3.49512">
        <ele>79.570430533485</ele>
        <time>2022-01-09T15:06:18.354Z</time>
      </trkpt>
      <trkpt lat="47.97464" lon="-3.4952">
        <ele>78.406040800075</ele>
        <time>2022-01-09T15:06:26.543Z</time>
      </trkpt>
      <trkpt lat="47.97473" lon="-3.49532">
        <ele>77.229245845586</ele>
        <time>2022-01-09T15:06:34.734Z</time>
      </trkpt>
      <trkpt lat="47.97488" lon="-3.49562">
        <ele>76.10073136786</ele>
        <time>2022-01-09T15:06:42.928Z</time>
      </trkpt>
      <trkpt lat="47.97495" lon="-3.49579">
        <ele>74.850462851221</ele>
        <time>2022-01-09T15:06:51.123Z</time>
      </trkpt>
      <trkpt lat="47.97505" lon="-3.49635">
        <ele>73.400060279902</ele>
        <time>2022-01-09T15:06:59.323Z</time>
      </trkpt>
      <trkpt lat="47.97512" lon="-3.49691">
        <ele>71.851463155392</ele>
        <time>2022-01-09T15:07:07.528Z</time>
      </trkpt>
      <trkpt lat="47.97522" lon="-3.49833">
        <ele>70.087958934511</ele>
        <time>2022-01-09T15:07:15.745Z</time>
      </trkpt>
      <trkpt lat="47.97519" lon="-3.49868">
        <ele>68.673096487803</ele>
        <time>2022-01-09T15:07:23.965Z</time>
      </trkpt>
      <trkpt lat="47.97511" lon="-3.49916">
        <ele>67.272475277914</ele>
        <time>2022-01-09T15:07:32.189Z</time>
      </trkpt>
      <trkpt lat="47.97497" lon="-3.49985">
        <ele>65.610491203818</ele>
        <time>2022-01-09T15:07:40.419Z</time>
      </trkpt>
      <trkpt lat="47.97493" lon="-3.50022">
        <ele>64.21289836546</ele>
        <time>2022-01-09T15:07:48.652Z</time>
      </trkpt>
      <trkpt lat="47.97499" lon="-3.50055">
        <ele>62.901227543869</ele>
        <time>2022-01-09T15:07:56.888Z</time>
      </trkpt>
      <trkpt lat="47.97514" lon="-3.50077">
        <ele>61.805224252345</ele>
        <time>2022-01-09T15:08:05.127Z</time>
      </trkpt>
      <trkpt lat="47.97533" lon="-3.50087">
        <ele>61.026169719391</ele>
        <time>2022-01-09T15:08:13.368Z</time>
      </trkpt>
      <trkpt lat="47.97565" lon="-3.50085">
        <ele>60.589391923588</ele>
        <time>2022-01-09T15:08:21.613Z</time>
      </trkpt>
      <trkpt lat="47.97586" lon="-3.50074">
        <ele>60.51452428081</ele>
        <time>2022-01-09T15:08:29.861Z</time>
      </trkpt>
      <trkpt lat="47.97595" lon="-3.50066">
        <ele>60.473249348019</ele>
        <time>2022-01-09T15:08:38.111Z</time>
      </trkpt>
      <trkpt lat="47.97611" lon="-3.50048">
        <ele>60.638806701851</ele>
        <time>2022-01-09T15:08:46.363Z</time>
      </trkpt>
      <trkpt lat="47.97618" lon="-3.50036">
        <ele>60.769279426661</ele>
        <time>2022-01-09T15:08:54.616Z</time>
      </trkpt>
      <trkpt lat="47.97628" lon="-3.50011">
        <ele>60.911236134047</ele>
        <time>2022-01-09T15:09:02.872Z</time>
      </trkpt>
      <trkpt lat="47.97652" lon="-3.49939">
        <ele>60.897047471364</ele>
        <time>2022-01-09T15:09:11.135Z</time>
      </trkpt>
      <trkpt lat="47.97668" lon="-3.49908">
        <ele>61.009379441855</ele>
        <time>2022-01-09T15:09:19.401Z</time>
      </trkpt>
      <trkpt lat="47.97681" lon="-3.49893">
        <ele>61.202653543707</ele>
        <time>2022-01-09T15:09:27.669Z</time>
      </trkpt>
      <trkpt lat="47.97703" lon="-3.49878">
        <ele>61.422072581711</ele>
        <time>2022-01-09T15:09:35.940Z</time>
      </trkpt>
      <trkpt lat="47.97726" lon="-3.49872">
        <ele>61.69420068289</ele>
        <time>2022-01-09T15:09:44.214Z</time>
      </trkpt>
      <trkpt lat="47.97749" lon="-3.49869">
        <ele>61.941835994891</ele>
        <time>2022-01-09T15:09:52.491Z</time>
      </trkpt>
      <trkpt lat="47.9778" lon="-3.49875">
        <ele>62.256490503764</ele>
        <time>2022-01-09T15:10:00.772Z</time>
      </trkpt>
      <trkpt lat="47.97796" lon="-3.4988">
        <ele>62.547545801047</ele>
        <time>2022-01-09T15:10:09.055Z</time>
      </trkpt>
      <trkpt lat="47.97835" lon="-3.49902">
        <ele>62.94043392969</ele>
        <time>2022-01-09T15:10:17.343Z</time>
      </trkpt>
      <trkpt lat="47.97922" lon="-3.50004">
        <ele>63.309014631436</ele>
        <time>2022-01-09T15:10:25.645Z</time>
      </trkpt>
      <trkpt lat="47.97944" lon="-3.50022">
        <ele>63.630266988116</ele>
        <time>2022-01-09T15:10:33.950Z</time>
      </trkpt>
      <trkpt lat="47.97952" lon="-3.50026">
        <ele>63.942217099749</ele>
        <time>2022-01-09T15:10:42.256Z</time>
      </trkpt>
      <trkpt lat="47.97985" lon="-3.50034">
        <ele>64.266622479472</ele>
        <time>2022-01-09T15:10:50.566Z</time>
      </trkpt>
      <trkpt lat="47.98025" lon="-3.50038">
        <ele>64.662327731298</ele>
        <time>2022-01-09T15:10:58.881Z</time>
      </trkpt>
      <trkpt lat="47.9804" lon="-3.50048">
        <ele>64.902496342234</ele>
        <time>2022-01-09T15:11:07.198Z</time>
      </trkpt>
      <trkpt lat="47.98085" lon="-3.50102">
        <ele>65.226508848309</ele>
        <time>2022-01-09T15:11:15.522Z</time>
      </trkpt>
      <trkpt lat="47.98092" lon="-3.50108">
        <ele>65.177331139943</ele>
        <time>2022-01-09T15:11:23.848Z</time>
      </trkpt>
      <trkpt lat="47.98115" lon="-3.50121">
        <ele>64.844373896839</ele>
        <time>2022-01-09T15:11:32.177Z</time>
      </trkpt>
      <trkpt lat="47.98123" lon="-3.50123">
        <ele>64.538934435792</ele>
        <time>2022-01-09T15:11:40.507Z</time>
      </trkpt>
      <trkpt lat="47.98165" lon="-3.50123">
        <ele>64.177402974535</ele>
        <time>2022-01-09T15:11:48.842Z</time>
      </trkpt>
      <trkpt lat="47.98172" lon="-3.5012">
        <ele>63.768351142333</ele>
        <time>2022-01-09T15:11:57.178Z</time>
      </trkpt>
      <trkpt lat="47.98202" lon="-3.50104">
        <ele>63.081245897997</ele>
        <time>2022-01-09T15:12:05.518Z</time>
      </trkpt>
      <trkpt lat="47.98381" lon="-3.49989">
        <ele>62.457708532193</ele>
        <time>2022-01-09T15:12:13.882Z</time>
      </trkpt>
      <trkpt lat="47.98404" lon="-3.49977">
        <ele>62.0362343874</ele>
        <time>2022-01-09T15:12:22.249Z</time>
      </trkpt>
      <trkpt lat="47.98467" lon="-3.49948">
        <ele>61.506317240634</ele>
        <time>2022-01-09T15:12:30.624Z</time>
      </trkpt>
      <trkpt lat="47.98506" lon="-3.49926">
        <ele>61.09876649265</ele>
        <time>2022-01-09T15:12:39.005Z</time>
      </trkpt>
      <trkpt lat="47.98513" lon="-3.4992">
        <ele>60.760380819562</ele>
        <time>2022-01-09T15:12:47.387Z</time>
      </trkpt>
      <trkpt lat="47.98544" lon="-3.49881">
        <ele>60.650100860426</ele>
        <time>2022-01-09T15:12:55.774Z</time>
      </trkpt>
      <trkpt lat="47.98569" lon="-3.49832">
        <ele>60.364098573787</ele>
        <time>2022-01-09T15:13:04.166Z</time>
      </trkpt>
      <trkpt lat="47.98572" lon="-3.49821">
        <ele>60.219151542182</ele>
        <time>2022-01-09T15:13:12.559Z</time>
      </trkpt>
      <trkpt lat="47.98595" lon="-3.49743">
        <ele>60.247555118797</ele>
        <time>2022-01-09T15:13:20.959Z</time>
      </trkpt>
      <trkpt lat="47.98614" lon="-3.49664">
        <ele>60.261921248256</ele>
        <time>2022-01-09T15:13:29.366Z</time>
      </trkpt>
      <trkpt lat="47.98639" lon="-3.49571">
        <ele>60.414484930127</ele>
        <time>2022-01-09T15:13:37.782Z</time>
      </trkpt>
      <trkpt lat="47.98658" lon="-3.49512">
        <ele>60.565102426174</ele>
        <time>2022-01-09T15:13:46.203Z</time>
      </trkpt>
      <trkpt lat="47.98666" lon="-3.49493">
        <ele>60.902016138973</ele>
        <time>2022-01-09T15:13:54.626Z</time>
      </trkpt>
      <trkpt lat="47.98696" lon="-3.49429">
        <ele>61.313470265879</ele>
        <time>2022-01-09T15:14:03.055Z</time>
      </trkpt>
      <trkpt lat="47.98728" lon="-3.49367">
        <ele>61.930589359262</ele>
        <time>2022-01-09T15:14:11.491Z</time>
      </trkpt>
      <trkpt lat="47.98816" lon="-3.49229">
        <ele>62.471999109955</ele>
        <time>2022-01-09T15:14:19.943Z</time>
      </trkpt>
      <trkpt lat="47.98836" lon="-3.49177">
        <ele>63.037111734056</ele>
        <time>2022-01-09T15:14:28.400Z</time>
      </trkpt>
      <trkpt lat="47.98854" lon="-3.49099">
        <ele>63.882622797294</ele>
        <time>2022-01-09T15:14:36.864Z</time>
      </trkpt>
      <trkpt lat="47.98864" lon="-3.49068">
        <ele>64.805835843186</ele>
        <time>2022-01-09T15:14:45.331Z</time>
      </trkpt>
      <trkpt lat="47.98881" lon="-3.49029">
        <ele>65.850654310955</ele>
        <time>2022-01-09T15:14:53.802Z</time>
      </trkpt>
      <trkpt lat="47.98924" lon="-3.48963">
        <ele>66.979732374996</ele>
        <time>2022-01-09T15:15:02.280Z</time>
      </trkpt>
      <trkpt lat="47.98979" lon="-3.48879">
        <ele>68.518571624938</ele>
        <time>2022-01-09T15:15:10.768Z</time>
      </trkpt>
      <trkpt lat="47.99002" lon="-3.48846">
        <ele>69.586521855764</ele>
        <time>2022-01-09T15:15:19.260Z</time>
      </trkpt>
      <trkpt lat="47.99027" lon="-3.48814">
        <ele>70.682162433415</ele>
        <time>2022-01-09T15:15:27.756Z</time>
      </trkpt>
      <trkpt lat="47.99068" lon="-3.48772">
        <ele>72.024718252827</ele>
        <time>2022-01-09T15:15:36.259Z</time>
      </trkpt>
      <trkpt lat="47.99101" lon="-3.48741">
        <ele>73.416179923976</ele>
        <time>2022-01-09T15:15:44.767Z</time>
      </trkpt>
      <trkpt lat="47.99115" lon="-3.4873">
        <ele>74.762734542672</ele>
        <time>2022-01-09T15:15:53.276Z</time>
      </trkpt>
      <trkpt lat="47.99145" lon="-3.48712">
        <ele>76.184316007746</ele>
        <time>2022-01-09T15:16:01.790Z</time>
      </trkpt>
      <trkpt lat="47.99229" lon="-3.48683">
        <ele>77.567743168907</ele>
        <time>2022-01-09T15:16:10.314Z</time>
      </trkpt>
      <trkpt lat="47.99263" lon="-3.48674">
        <ele>78.798959432328</ele>
        <time>2022-01-09T15:16:18.843Z</time>
      </trkpt>
      <trkpt lat="47.99287" lon="-3.48666">
        <ele>79.869868303235</ele>
        <time>2022-01-09T15:16:27.375Z</time>
      </trkpt>
      <trkpt lat="47.99343" lon="-3.4865">
        <ele>81.113092903306</ele>
        <time>2022-01-09T15:16:35.914Z</time>
      </trkpt>
      <trkpt lat="47.99442" lon="-3.48611">
        <ele>81.893230494455</ele>
        <time>2022-01-09T15:16:44.466Z</time>
      </trkpt>
      <trkpt lat="47.99484" lon="-3.48602">
        <ele>82.623137892324</ele>
        <time>2022-01-09T15:16:53.023Z</time>
      </trkpt>
      <trkpt lat="47.99497" lon="-3.48601">
        <ele>83.105249581953</ele>
        <time>2022-01-09T15:17:01.582Z</time>
      </trkpt>
      <trkpt lat="47.99517" lon="-3.48602">
        <ele>83.363367523685</ele>
        <time>2022-01-09T15:17:10.143Z</time>
      </trkpt>
      <trkpt lat="47.99657" lon="-3.48626">
        <ele>83.746128196105</ele>
        <time>2022-01-09T15:17:18.722Z</time>
      </trkpt>
      <trkpt lat="47.99763" lon="-3.48647">
        <ele>83.604885847821</ele>
        <time>2022-01-09T15:17:27.314Z</time>
      </trkpt>
      <trkpt lat="47.99801" lon="-3.48656">
        <ele>82.67067378986</ele>
        <time>2022-01-09T15:17:35.911Z</time>
      </trkpt>
      <trkpt lat="47.99845" lon="-3.48675">
        <ele>81.22951548012</ele>
        <time>2022-01-09T15:17:44.514Z</time>
      </trkpt>
      <trkpt lat="47.99891" lon="-3.487">
        <ele>79.824785858175</ele>
        <time>2022-01-09T15:17:53.123Z</time>
      </trkpt>
      <trkpt lat="47.99958" lon="-3.48746">
        <ele>77.994496895338</ele>
        <time>2022-01-09T15:18:01.741Z</time>
      </trkpt>
      <trkpt lat="47.99984" lon="-3.4877">
        <ele>76.091854014992</ele>
        <time>2022-01-09T15:18:10.363Z</time>
      </trkpt>
      <trkpt lat="48.0001" lon="-3.48797">
        <ele>74.199539908995</ele>
        <time>2022-01-09T15:18:18.989Z</time>
      </trkpt>
      <trkpt lat="48.00035" lon="-3.4883">
        <ele>72.04490059743</ele>
        <time>2022-01-09T15:18:27.619Z</time>
      </trkpt>
      <trkpt lat="48.00059" lon="-3.48866">
        <ele>70.078545224915</ele>
        <time>2022-01-09T15:18:36.253Z</time>
      </trkpt>
      <trkpt lat="48.00083" lon="-3.48905">
        <ele>68.14321984648</ele>
        <time>2022-01-09T15:18:44.892Z</time>
      </trkpt>
      <trkpt lat="48.00098" lon="-3.48933">
        <ele>66.277221872128</ele>
        <time>2022-01-09T15:18:53.534Z</time>
      </trkpt>
      <trkpt lat="48.00171" lon="-3.4908">
        <ele>63.6928511755</ele>
        <time>2022-01-09T15:19:02.191Z</time>
      </trkpt>
      <trkpt lat="48.00209" lon="-3.49148">
        <ele>62.302507849552</ele>
        <time>2022-01-09T15:19:10.855Z</time>
      </trkpt>
      <trkpt lat="48.00225" lon="-3.4917">
        <ele>61.425437378511</ele>
        <time>2022-01-09T15:19:19.522Z</time>
      </trkpt>
      <trkpt lat="48.00249" lon="-3.492">
        <ele>60.938411934918</ele>
        <time>2022-01-09T15:19:28.193Z</time>
      </trkpt>
      <trkpt lat="48.00272" lon="-3.49224">
        <ele>60.940663555547</ele>
        <time>2022-01-09T15:19:36.868Z</time>
      </trkpt>
      <trkpt lat="48.00302" lon="-3.49251">
        <ele>61.519280426043</ele>
        <time>2022-01-09T15:19:45.547Z</time>
      </trkpt>
      <trkpt lat="48.0035" lon="-3.49281">
        <ele>62.680854102926</ele>
        <time>2022-01-09T15:19:54.232Z</time>
      </trkpt>
      <trkpt lat="48.00394" lon="-3.49302">
        <ele>64.24641606639</ele>
        <time>2022-01-09T15:20:02.923Z</time>
      </trkpt>
      <trkpt lat="48.00422" lon="-3.4931">
        <ele>65.988781453866</ele>
        <time>2022-01-09T15:20:11.618Z</time>
      </trkpt>
      <trkpt lat="48.00443" lon="-3.49314">
        <ele>68.007607082258</ele>
        <time>2022-01-09T15:20:20.315Z</time>
      </trkpt>
      <trkpt lat="48.00495" lon="-3.49315">
        <ele>70.304296072845</ele>
        <time>2022-01-09T15:20:29.019Z</time>
      </trkpt>
      <trkpt lat="48.00562" lon="-3.49313">
        <ele>72.87152029785</ele>
        <time>2022-01-09T15:20:37.731Z</time>
      </trkpt>
      <trkpt lat="48.00777" lon="-3.49296">
        <ele>76.733953904295</ele>
        <time>2022-01-09T15:20:46.470Z</time>
      </trkpt>
      <trkpt lat="48.00803" lon="-3.49293">
        <ele>79.730140423407</ele>
        <time>2022-01-09T15:20:55.213Z</time>
      </trkpt>
      <trkpt lat="48.00845" lon="-3.49282">
        <ele>82.741583276699</ele>
        <time>2022-01-09T15:21:03.961Z</time>
      </trkpt>
      <trkpt lat="48.00868" lon="-3.49269">
        <ele>85.612689196507</ele>
        <time>2022-01-09T15:21:12.712Z</time>
      </trkpt>
      <trkpt lat="48.0089" lon="-3.4925">
        <ele>88.426807019735</ele>
        <time>2022-01-09T15:21:21.466Z</time>
      </trkpt>
      <trkpt lat="48.01086" lon="-3.49062">
        <ele>91.948971099965</ele>
        <time>2022-01-09T15:21:30.249Z</time>
      </trkpt>
      <trkpt lat="48.01161" lon="-3.48992">
        <ele>94.521827365355</ele>
        <time>2022-01-09T15:21:39.043Z</time>
      </trkpt>
      <trkpt lat="48.012" lon="-3.48965">
        <ele>96.819730292169</ele>
        <time>2022-01-09T15:21:47.843Z</time>
      </trkpt>
      <trkpt lat="48.01218" lon="-3.48957">
        <ele>98.762778474908</ele>
        <time>2022-01-09T15:21:56.645Z</time>
      </trkpt>
      <trkpt lat="48.0123" lon="-3.48954">
        <ele>100.37108283622</ele>
        <time>2022-01-09T15:22:05.449Z</time>
      </trkpt>
      <trkpt lat="48.01249" lon="-3.48954">
        <ele>101.69189950397</ele>
        <time>2022-01-09T15:22:14.255Z</time>
      </trkpt>
      <trkpt lat="48.01343" lon="-3.48969">
        <ele>102.98244417398</ele>
        <time>2022-01-09T15:22:23.073Z</time>
      </trkpt>
      <trkpt lat="48.0143" lon="-3.48981">
        <ele>103.90750032706</ele>
        <time>2022-01-09T15:22:31.902Z</time>
      </trkpt>
      <trkpt lat="48.01654" lon="-3.49021">
        <ele>104.2082800331</ele>
        <time>2022-01-09T15:22:40.759Z</time>
      </trkpt>
      <trkpt lat="48.01682" lon="-3.4903">
        <ele>104.47406266218</ele>
        <time>2022-01-09T15:22:49.620Z</time>
      </trkpt>
      <trkpt lat="48.01691" lon="-3.49036">
        <ele>104.56127375307</ele>
        <time>2022-01-09T15:22:58.482Z</time>
      </trkpt>
      <trkpt lat="48.01709" lon="-3.4905">
        <ele>104.52269531035</ele>
        <time>2022-01-09T15:23:07.346Z</time>
      </trkpt>
      <trkpt lat="48.01725" lon="-3.49067">
        <ele>104.3838802294</ele>
        <time>2022-01-09T15:23:16.213Z</time>
      </trkpt>
      <trkpt lat="48.01901" lon="-3.49269">
        <ele>104.67845707796</ele>
        <time>2022-01-09T15:23:25.108Z</time>
      </trkpt>
      <trkpt lat="48.01938" lon="-3.49304">
        <ele>104.53546531151</ele>
        <time>2022-01-09T15:23:34.008Z</time>
      </trkpt>
      <trkpt lat="48.01969" lon="-3.49326">
        <ele>104.49346827307</ele>
        <time>2022-01-09T15:23:42.912Z</time>
      </trkpt>
      <trkpt lat="48.01984" lon="-3.49335">
        <ele>104.50149023104</ele>
        <time>2022-01-09T15:23:51.818Z</time>
      </trkpt>
      <trkpt lat="48.022" lon="-3.49436">
        <ele>104.7222206006</ele>
        <time>2022-01-09T15:24:00.753Z</time>
      </trkpt>
      <trkpt lat="48.02229" lon="-3.4945">
        <ele>105.02129173744</ele>
        <time>2022-01-09T15:24:09.692Z</time>
      </trkpt>
      <trkpt lat="48.02262" lon="-3.4947">
        <ele>105.32751557409</ele>
        <time>2022-01-09T15:24:18.635Z</time>
      </trkpt>
      <trkpt lat="48.02322" lon="-3.49512">
        <ele>105.81476392111</ele>
        <time>2022-01-09T15:24:27.586Z</time>
      </trkpt>
      <trkpt lat="48.02375" lon="-3.49553">
        <ele>106.4163459033</ele>
        <time>2022-01-09T15:24:36.545Z</time>
      </trkpt>
      <trkpt lat="48.02412" lon="-3.49584">
        <ele>106.95708551917</ele>
        <time>2022-01-09T15:24:45.509Z</time>
      </trkpt>
      <trkpt lat="48.02462" lon="-3.49634">
        <ele>107.79637175387</ele>
        <time>2022-01-09T15:24:54.481Z</time>
      </trkpt>
      <trkpt lat="48.02514" lon="-3.49681">
        <ele>108.78227580168</ele>
        <time>2022-01-09T15:25:03.460Z</time>
      </trkpt>
      <trkpt lat="48.02536" lon="-3.4969">
        <ele>109.92522253454</ele>
        <time>2022-01-09T15:25:12.442Z</time>
      </trkpt>
      <trkpt lat="48.02559" lon="-3.49694">
        <ele>111.20529872349</ele>
        <time>2022-01-09T15:25:21.427Z</time>
      </trkpt>
      <trkpt lat="48.02608" lon="-3.49697">
        <ele>112.58211046332</ele>
        <time>2022-01-09T15:25:30.418Z</time>
      </trkpt>
      <trkpt lat="48.02672" lon="-3.49704">
        <ele>114.14048951821</ele>
        <time>2022-01-09T15:25:39.417Z</time>
      </trkpt>
      <trkpt lat="48.02691" lon="-3.4971">
        <ele>115.63270312645</ele>
        <time>2022-01-09T15:25:48.419Z</time>
      </trkpt>
      <trkpt lat="48.02708" lon="-3.4972">
        <ele>117.2616688867</ele>
        <time>2022-01-09T15:25:57.423Z</time>
      </trkpt>
      <trkpt lat="48.02764" lon="-3.49764">
        <ele>119.34112028119</ele>
        <time>2022-01-09T15:26:06.435Z</time>
      </trkpt>
      <trkpt lat="48.02786" lon="-3.49776">
        <ele>120.94102022355</ele>
        <time>2022-01-09T15:26:15.450Z</time>
      </trkpt>
      <trkpt lat="48.02852" lon="-3.49808">
        <ele>122.78128597232</ele>
        <time>2022-01-09T15:26:24.473Z</time>
      </trkpt>
      <trkpt lat="48.02899" lon="-3.49828">
        <ele>124.2251992454</ele>
        <time>2022-01-09T15:26:33.502Z</time>
      </trkpt>
      <trkpt lat="48.02953" lon="-3.49853">
        <ele>125.58862657504</ele>
        <time>2022-01-09T15:26:42.539Z</time>
      </trkpt>
      <trkpt lat="48.02983" lon="-3.49865">
        <ele>126.74031289264</ele>
        <time>2022-01-09T15:26:51.579Z</time>
      </trkpt>
      <trkpt lat="48.02994" lon="-3.49871">
        <ele>127.58310899797</ele>
        <time>2022-01-09T15:27:00.621Z</time>
      </trkpt>
      <trkpt lat="48.02998" lon="-3.49876">
        <ele>128.24824530556</ele>
        <time>2022-01-09T15:27:09.664Z</time>
      </trkpt>
      <trkpt lat="48.02998" lon="-3.49882">
        <ele>128.73612045132</ele>
        <time>2022-01-09T15:27:18.707Z</time>
      </trkpt>
      <trkpt lat="48.02984" lon="-3.4989">
        <ele>129.0300160993</ele>
        <time>2022-01-09T15:27:27.752Z</time>
      </trkpt>
      <trkpt lat="48.02943" lon="-3.49908">
        <ele>129.26681246057</ele>
        <time>2022-01-09T15:27:36.802Z</time>
      </trkpt>
      <trkpt lat="48.02931" lon="-3.49899">
        <ele>129.04792715553</ele>
        <time>2022-01-09T15:27:45.854Z</time>
      </trkpt>
      <trkpt lat="48.02887" lon="-3.49859">
        <ele>128.55377983207</ele>
        <time>2022-01-09T15:27:54.912Z</time>
      </trkpt>
      <trkpt lat="48.0287" lon="-3.49848">
        <ele>127.94742455426</ele>
        <time>2022-01-09T15:28:03.973Z</time>
      </trkpt>
      <trkpt lat="48.02837" lon="-3.49835">
        <ele>127.04721050388</ele>
        <time>2022-01-09T15:28:13.038Z</time>
      </trkpt>
      <trkpt lat="48.028" lon="-3.49825">
        <ele>125.86124216744</ele>
        <time>2022-01-09T15:28:22.108Z</time>
      </trkpt>
      <trkpt lat="48.02792" lon="-3.49824">
        <ele>124.85788009482</ele>
        <time>2022-01-09T15:28:31.179Z</time>
      </trkpt>
      <trkpt lat="48.02768" lon="-3.49828">
        <ele>123.7654200065</ele>
        <time>2022-01-09T15:28:40.253Z</time>
      </trkpt>
      <trkpt lat="48.02744" lon="-3.49838">
        <ele>122.51786839171</ele>
        <time>2022-01-09T15:28:49.330Z</time>
      </trkpt>
      <trkpt lat="48.02729" lon="-3.49849">
        <ele>121.17921537694</ele>
        <time>2022-01-09T15:28:58.409Z</time>
      </trkpt>
      <trkpt lat="48.02714" lon="-3.49864">
        <ele>119.7750217062</ele>
        <time>2022-01-09T15:29:07.490Z</time>
      </trkpt>
      <trkpt lat="48.02703" lon="-3.49883">
        <ele>118.4480940243</ele>
        <time>2022-01-09T15:29:16.573Z</time>
      </trkpt>
      <trkpt lat="48.02668" lon="-3.49991">
        <ele>116.99725841882</ele>
        <time>2022-01-09T15:29:25.666Z</time>
      </trkpt>
      <trkpt lat="48.02642" lon="-3.5008">
        <ele>115.47475961027</ele>
        <time>2022-01-09T15:29:34.768Z</time>
      </trkpt>
      <trkpt lat="48.02638" lon="-3.50089">
        <ele>114.16807200471</ele>
        <time>2022-01-09T15:29:43.870Z</time>
      </trkpt>
      <trkpt lat="48.02623" lon="-3.50113">
        <ele>112.80661358219</ele>
        <time>2022-01-09T15:29:52.975Z</time>
      </trkpt>
      <trkpt lat="48.02565" lon="-3.50177">
        <ele>111.25804922482</ele>
        <time>2022-01-09T15:30:02.089Z</time>
      </trkpt>
      <trkpt lat="48.02543" lon="-3.50195">
        <ele>110.19525730881</ele>
        <time>2022-01-09T15:30:11.206Z</time>
      </trkpt>
      <trkpt lat="48.02527" lon="-3.50204">
        <ele>109.21851923881</ele>
        <time>2022-01-09T15:30:20.326Z</time>
      </trkpt>
      <trkpt lat="48.025" lon="-3.50216">
        <ele>108.25714105097</ele>
        <time>2022-01-09T15:30:29.449Z</time>
      </trkpt>
      <trkpt lat="48.02491" lon="-3.50222">
        <ele>107.29871909274</ele>
        <time>2022-01-09T15:30:38.573Z</time>
      </trkpt>
      <trkpt lat="48.02475" lon="-3.50238">
        <ele>106.34007610303</ele>
        <time>2022-01-09T15:30:47.700Z</time>
      </trkpt>
      <trkpt lat="48.02447" lon="-3.50275">
        <ele>105.23910930628</ele>
        <time>2022-01-09T15:30:56.831Z</time>
      </trkpt>
      <trkpt lat="48.0244" lon="-3.50282">
        <ele>104.34700026804</ele>
        <time>2022-01-09T15:31:05.963Z</time>
      </trkpt>
      <trkpt lat="48.02415" lon="-3.50301">
        <ele>103.344446673</ele>
        <time>2022-01-09T15:31:15.099Z</time>
      </trkpt>
      <trkpt lat="48.02396" lon="-3.50308">
        <ele>102.37833887596</ele>
        <time>2022-01-09T15:31:24.237Z</time>
      </trkpt>
      <trkpt lat="48.02377" lon="-3.50311">
        <ele>101.4185389612</ele>
        <time>2022-01-09T15:31:33.378Z</time>
      </trkpt>
      <trkpt lat="48.02317" lon="-3.50315">
        <ele>100.22253811146</ele>
        <time>2022-01-09T15:31:42.526Z</time>
      </trkpt>
      <trkpt lat="48.02286" lon="-3.50322">
        <ele>99.342102469837</ele>
        <time>2022-01-09T15:31:51.678Z</time>
      </trkpt>
      <trkpt lat="48.02256" lon="-3.50332">
        <ele>98.332130272906</ele>
        <time>2022-01-09T15:32:00.834Z</time>
      </trkpt>
      <trkpt lat="48.02236" lon="-3.50341">
        <ele>97.139258916943</ele>
        <time>2022-01-09T15:32:09.993Z</time>
      </trkpt>
      <trkpt lat="48.02216" lon="-3.50357">
        <ele>95.772131958913</ele>
        <time>2022-01-09T15:32:19.154Z</time>
      </trkpt>
      <trkpt lat="48.02171" lon="-3.50406">
        <ele>94.363119442067</ele>
        <time>2022-01-09T15:32:28.322Z</time>
      </trkpt>
      <trkpt lat="48.02153" lon="-3.50419">
        <ele>92.959035712152</ele>
        <time>2022-01-09T15:32:37.493Z</time>
      </trkpt>
      <trkpt lat="48.02087" lon="-3.50443">
        <ele>91.392009719082</ele>
        <time>2022-01-09T15:32:46.672Z</time>
      </trkpt>
      <trkpt lat="48.02078" lon="-3.5045">
        <ele>89.723660342985</ele>
        <time>2022-01-09T15:32:55.853Z</time>
      </trkpt>
      <trkpt lat="48.0207" lon="-3.50459">
        <ele>87.951705056763</ele>
        <time>2022-01-09T15:33:05.035Z</time>
      </trkpt>
      <trkpt lat="48.02059" lon="-3.50483">
        <ele>85.952057615587</ele>
        <time>2022-01-09T15:33:14.219Z</time>
      </trkpt>
      <trkpt lat="48.02057" lon="-3.50498">
        <ele>84.083986174334</ele>
        <time>2022-01-09T15:33:23.405Z</time>
      </trkpt>
      <trkpt lat="48.02056" lon="-3.50514">
        <ele>82.141628987549</ele>
        <time>2022-01-09T15:33:32.592Z</time>
      </trkpt>
      <trkpt lat="48.02064" lon="-3.50611">
        <ele>80.220421771589</ele>
        <time>2022-01-09T15:33:41.787Z</time>
      </trkpt>
      <trkpt lat="48.02071" lon="-3.50659">
        <ele>78.187975576349</ele>
        <time>2022-01-09T15:33:50.986Z</time>
      </trkpt>
      <trkpt lat="48.02106" lon="-3.50897">
        <ele>75.792426712983</ele>
        <time>2022-01-09T15:34:00.206Z</time>
      </trkpt>
      <trkpt lat="48.02111" lon="-3.50946">
        <ele>74.289916342938</ele>
        <time>2022-01-09T15:34:09.430Z</time>
      </trkpt>
      <trkpt lat="48.0211" lon="-3.50995">
        <ele>72.991387595492</ele>
        <time>2022-01-09T15:34:18.658Z</time>
      </trkpt>
      <trkpt lat="48.02107" lon="-3.51044">
        <ele>71.80537254741</ele>
        <time>2022-01-09T15:34:27.890Z</time>
      </trkpt>
      <trkpt lat="48.02108" lon="-3.51092">
        <ele>71.171829626047</ele>
        <time>2022-01-09T15:34:37.126Z</time>
      </trkpt>
      <trkpt lat="48.02114" lon="-3.51121">
        <ele>71.176682032675</ele>
        <time>2022-01-09T15:34:46.365Z</time>
      </trkpt>
      <trkpt lat="48.02198" lon="-3.5135">
        <ele>71.953683094714</ele>
        <time>2022-01-09T15:34:55.626Z</time>
      </trkpt>
      <trkpt lat="48.02219" lon="-3.51418">
        <ele>73.021958180371</ele>
        <time>2022-01-09T15:35:04.893Z</time>
      </trkpt>
      <trkpt lat="48.02236" lon="-3.51524">
        <ele>74.27293780748</ele>
        <time>2022-01-09T15:35:14.169Z</time>
      </trkpt>
      <trkpt lat="48.02256" lon="-3.51656">
        <ele>75.743467333276</ele>
        <time>2022-01-09T15:35:23.456Z</time>
      </trkpt>
      <trkpt lat="48.02262" lon="-3.5169">
        <ele>77.224758446577</ele>
        <time>2022-01-09T15:35:32.746Z</time>
      </trkpt>
      <trkpt lat="48.02269" lon="-3.51714">
        <ele>79.032247222468</ele>
        <time>2022-01-09T15:35:42.039Z</time>
      </trkpt>
      <trkpt lat="48.02282" lon="-3.51744">
        <ele>81.107985344489</ele>
        <time>2022-01-09T15:35:51.335Z</time>
      </trkpt>
      <trkpt lat="48.0229" lon="-3.51756">
        <ele>83.295646690982</ele>
        <time>2022-01-09T15:36:00.632Z</time>
      </trkpt>
      <trkpt lat="48.02384" lon="-3.51869">
        <ele>86.200396040366</ele>
        <time>2022-01-09T15:36:09.944Z</time>
      </trkpt>
      <trkpt lat="48.024" lon="-3.51903">
        <ele>88.770722220027</ele>
        <time>2022-01-09T15:36:19.260Z</time>
      </trkpt>
      <trkpt lat="48.02407" lon="-3.51944">
        <ele>91.334995486729</ele>
        <time>2022-01-09T15:36:28.579Z</time>
      </trkpt>
      <trkpt lat="48.02413" lon="-3.52054">
        <ele>94.05685407046</ele>
        <time>2022-01-09T15:36:37.907Z</time>
      </trkpt>
      <trkpt lat="48.02428" lon="-3.52301">
        <ele>96.989942860019</ele>
        <time>2022-01-09T15:36:47.256Z</time>
      </trkpt>
      <trkpt lat="48.02432" lon="-3.5238">
        <ele>99.669164755132</ele>
        <time>2022-01-09T15:36:56.612Z</time>
      </trkpt>
      <trkpt lat="48.02436" lon="-3.52422">
        <ele>102.17880530824</ele>
        <time>2022-01-09T15:37:05.971Z</time>
      </trkpt>
      <trkpt lat="48.02439" lon="-3.52437">
        <ele>104.48220048395</ele>
        <time>2022-01-09T15:37:15.332Z</time>
      </trkpt>
      <trkpt lat="48.02452" lon="-3.52463">
        <ele>106.79560286992</ele>
        <time>2022-01-09T15:37:24.695Z</time>
      </trkpt>
      <trkpt lat="48.02465" lon="-3.52479">
        <ele>108.99425482883</ele>
        <time>2022-01-09T15:37:34.061Z</time>
      </trkpt>
      <trkpt lat="48.02486" lon="-3.52496">
        <ele>111.1937179848</ele>
        <time>2022-01-09T15:37:43.430Z</time>
      </trkpt>
      <trkpt lat="48.02509" lon="-3.5252">
        <ele>113.24016718417</ele>
        <time>2022-01-09T15:37:52.802Z</time>
      </trkpt>
      <trkpt lat="48.02521" lon="-3.52538">
        <ele>115.33294482702</ele>
        <time>2022-01-09T15:38:02.176Z</time>
      </trkpt>
      <trkpt lat="48.02533" lon="-3.52568">
        <ele>117.58963500256</ele>
        <time>2022-01-09T15:38:11.553Z</time>
      </trkpt>
      <trkpt lat="48.02538" lon="-3.52593">
        <ele>119.6651745595</ele>
        <time>2022-01-09T15:38:20.932Z</time>
      </trkpt>
      <trkpt lat="48.0254" lon="-3.52616">
        <ele>121.58517406481</ele>
        <time>2022-01-09T15:38:30.313Z</time>
      </trkpt>
      <trkpt lat="48.02539" lon="-3.5264">
        <ele>123.26670076195</ele>
        <time>2022-01-09T15:38:39.696Z</time>
      </trkpt>
      <trkpt lat="48.0253" lon="-3.52715">
        <ele>125.05158733397</ele>
        <time>2022-01-09T15:38:49.086Z</time>
      </trkpt>
      <trkpt lat="48.02522" lon="-3.52756">
        <ele>127.0227023726</ele>
        <time>2022-01-09T15:38:58.479Z</time>
      </trkpt>
      <trkpt lat="48.02516" lon="-3.52807">
        <ele>128.85428125017</ele>
        <time>2022-01-09T15:39:07.877Z</time>
      </trkpt>
      <trkpt lat="48.02503" lon="-3.52847">
        <ele>130.42736620418</ele>
        <time>2022-01-09T15:39:17.278Z</time>
      </trkpt>
      <trkpt lat="48.02482" lon="-3.52891">
        <ele>131.91643767164</ele>
        <time>2022-01-09T15:39:26.684Z</time>
      </trkpt>
      <trkpt lat="48.02475" lon="-3.52921">
        <ele>133.31881699034</ele>
        <time>2022-01-09T15:39:36.093Z</time>
      </trkpt>
      <trkpt lat="48.02476" lon="-3.52961">
        <ele>134.72625776846</ele>
        <time>2022-01-09T15:39:45.505Z</time>
      </trkpt>
      <trkpt lat="48.0248" lon="-3.52988">
        <ele>136.10031563872</ele>
        <time>2022-01-09T15:39:54.919Z</time>
      </trkpt>
      <trkpt lat="48.02497" lon="-3.5305">
        <ele>137.60700713902</ele>
        <time>2022-01-09T15:40:04.339Z</time>
      </trkpt>
      <trkpt lat="48.02503" lon="-3.5308">
        <ele>138.97654214564</ele>
        <time>2022-01-09T15:40:13.762Z</time>
      </trkpt>
      <trkpt lat="48.02506" lon="-3.53105">
        <ele>140.32043299694</ele>
        <time>2022-01-09T15:40:23.187Z</time>
      </trkpt>
      <trkpt lat="48.02489" lon="-3.53288">
        <ele>142.07650294328</ele>
        <time>2022-01-09T15:40:32.627Z</time>
      </trkpt>
      <trkpt lat="48.02484" lon="-3.53369">
        <ele>143.32990536062</ele>
        <time>2022-01-09T15:40:42.074Z</time>
      </trkpt>
      <trkpt lat="48.02475" lon="-3.53409">
        <ele>144.65145833014</ele>
        <time>2022-01-09T15:40:51.524Z</time>
      </trkpt>
      <trkpt lat="48.02465" lon="-3.53492">
        <ele>146.01913708175</ele>
        <time>2022-01-09T15:41:00.982Z</time>
      </trkpt>
      <trkpt lat="48.02466" lon="-3.53527">
        <ele>147.34055722424</ele>
        <time>2022-01-09T15:41:10.443Z</time>
      </trkpt>
      <trkpt lat="48.02474" lon="-3.53561">
        <ele>148.69378833258</ele>
        <time>2022-01-09T15:41:19.907Z</time>
      </trkpt>
      <trkpt lat="48.02479" lon="-3.53577">
        <ele>149.8881031801</ele>
        <time>2022-01-09T15:41:29.372Z</time>
      </trkpt>
      <trkpt lat="48.02486" lon="-3.53591">
        <ele>150.99049041052</ele>
        <time>2022-01-09T15:41:38.839Z</time>
      </trkpt>
      <trkpt lat="48.02503" lon="-3.53617">
        <ele>152.08043269188</ele>
        <time>2022-01-09T15:41:48.308Z</time>
      </trkpt>
      <trkpt lat="48.02574" lon="-3.53717">
        <ele>153.25374557459</ele>
        <time>2022-01-09T15:41:57.790Z</time>
      </trkpt>
      <trkpt lat="48.02741" lon="-3.53958">
        <ele>154.3746433636</ele>
        <time>2022-01-09T15:42:07.301Z</time>
      </trkpt>
      <trkpt lat="48.02802" lon="-3.54035">
        <ele>154.61110753684</ele>
        <time>2022-01-09T15:42:16.822Z</time>
      </trkpt>
      <trkpt lat="48.02843" lon="-3.54077">
        <ele>155.01364978946</ele>
        <time>2022-01-09T15:42:26.349Z</time>
      </trkpt>
      <trkpt lat="48.02867" lon="-3.54105">
        <ele>155.06324017221</ele>
        <time>2022-01-09T15:42:35.880Z</time>
      </trkpt>
      <trkpt lat="48.02979" lon="-3.54244">
        <ele>155.17090144391</ele>
        <time>2022-01-09T15:42:45.429Z</time>
      </trkpt>
      <trkpt lat="48.02997" lon="-3.54269">
        <ele>154.79667454371</ele>
        <time>2022-01-09T15:42:54.981Z</time>
      </trkpt>
      <trkpt lat="48.03005" lon="-3.5429">
        <ele>154.25103531398</ele>
        <time>2022-01-09T15:43:04.535Z</time>
      </trkpt>
      <trkpt lat="48.0301" lon="-3.54314">
        <ele>153.47578877598</ele>
        <time>2022-01-09T15:43:14.091Z</time>
      </trkpt>
      <trkpt lat="48.03011" lon="-3.5434">
        <ele>152.43660451657</ele>
        <time>2022-01-09T15:43:23.649Z</time>
      </trkpt>
      <trkpt lat="48.03002" lon="-3.54484">
        <ele>151.09633262148</ele>
        <time>2022-01-09T15:43:33.220Z</time>
      </trkpt>
      <trkpt lat="48.03004" lon="-3.54581">
        <ele>149.70272956624</ele>
        <time>2022-01-09T15:43:42.799Z</time>
      </trkpt>
      <trkpt lat="48.03015" lon="-3.5472">
        <ele>147.94640998708</ele>
        <time>2022-01-09T15:43:52.389Z</time>
      </trkpt>
      <trkpt lat="48.03034" lon="-3.54899">
        <ele>145.8155768568</ele>
        <time>2022-01-09T15:44:01.995Z</time>
      </trkpt>
      <trkpt lat="48.03042" lon="-3.54948">
        <ele>144.17285216925</ele>
        <time>2022-01-09T15:44:11.605Z</time>
      </trkpt>
      <trkpt lat="48.03065" lon="-3.55061">
        <ele>142.97914496689</ele>
        <time>2022-01-09T15:44:21.225Z</time>
      </trkpt>
      <trkpt lat="48.03078" lon="-3.55141">
        <ele>141.95977400431</ele>
        <time>2022-01-09T15:44:30.852Z</time>
      </trkpt>
      <trkpt lat="48.03103" lon="-3.55356">
        <ele>141.16270836373</ele>
        <time>2022-01-09T15:44:40.497Z</time>
      </trkpt>
      <trkpt lat="48.03124" lon="-3.55492">
        <ele>140.6393659921</ele>
        <time>2022-01-09T15:44:50.154Z</time>
      </trkpt>
      <trkpt lat="48.03129" lon="-3.55585">
        <ele>140.40922560586</ele>
        <time>2022-01-09T15:44:59.819Z</time>
      </trkpt>
      <trkpt lat="48.03131" lon="-3.55664">
        <ele>140.5029975315</ele>
        <time>2022-01-09T15:45:09.490Z</time>
      </trkpt>
      <trkpt lat="48.03129" lon="-3.55823">
        <ele>140.56070810665</ele>
        <time>2022-01-09T15:45:19.175Z</time>
      </trkpt>
      <trkpt lat="48.03132" lon="-3.55869">
        <ele>140.93430893378</ele>
        <time>2022-01-09T15:45:28.863Z</time>
      </trkpt>
      <trkpt lat="48.03145" lon="-3.55979">
        <ele>141.55232720122</ele>
        <time>2022-01-09T15:45:38.561Z</time>
      </trkpt>
      <trkpt lat="48.03153" lon="-3.56094">
        <ele>142.46610331736</ele>
        <time>2022-01-09T15:45:48.268Z</time>
      </trkpt>
      <trkpt lat="48.03158" lon="-3.56134">
        <ele>143.67621146506</ele>
        <time>2022-01-09T15:45:57.979Z</time>
      </trkpt>
      <trkpt lat="48.03177" lon="-3.56252">
        <ele>145.10683767829</ele>
        <time>2022-01-09T15:46:07.700Z</time>
      </trkpt>
      <trkpt lat="48.03197" lon="-3.56418">
        <ele>146.45022124358</ele>
        <time>2022-01-09T15:46:17.435Z</time>
      </trkpt>
      <trkpt lat="48.03206" lon="-3.56466">
        <ele>147.66377795881</ele>
        <time>2022-01-09T15:46:27.174Z</time>
      </trkpt>
      <trkpt lat="48.03224" lon="-3.56585">
        <ele>149.09096158907</ele>
        <time>2022-01-09T15:46:36.924Z</time>
      </trkpt>
      <trkpt lat="48.03231" lon="-3.56653">
        <ele>150.56205431518</ele>
        <time>2022-01-09T15:46:46.679Z</time>
      </trkpt>
      <trkpt lat="48.03236" lon="-3.56751">
        <ele>152.07278712817</ele>
        <time>2022-01-09T15:46:56.443Z</time>
      </trkpt>
      <trkpt lat="48.03233" lon="-3.56945">
        <ele>153.57544367172</ele>
        <time>2022-01-09T15:47:06.223Z</time>
      </trkpt>
      <trkpt lat="48.03226" lon="-3.57072">
        <ele>155.44241079865</ele>
        <time>2022-01-09T15:47:16.014Z</time>
      </trkpt>
      <trkpt lat="48.03222" lon="-3.57219">
        <ele>157.37985044044</ele>
        <time>2022-01-09T15:47:25.817Z</time>
      </trkpt>
      <trkpt lat="48.03218" lon="-3.57264">
        <ele>158.91352961314</ele>
        <time>2022-01-09T15:47:35.624Z</time>
      </trkpt>
      <trkpt lat="48.03102" lon="-3.58047">
        <ele>161.02763228569</ele>
        <time>2022-01-09T15:47:45.498Z</time>
      </trkpt>
      <trkpt lat="48.03095" lon="-3.58144">
        <ele>162.6959400648</ele>
        <time>2022-01-09T15:47:55.380Z</time>
      </trkpt>
      <trkpt lat="48.03103" lon="-3.58217">
        <ele>164.18591482617</ele>
        <time>2022-01-09T15:48:05.268Z</time>
      </trkpt>
      <trkpt lat="48.0313" lon="-3.58405">
        <ele>165.64071715883</ele>
        <time>2022-01-09T15:48:15.173Z</time>
      </trkpt>
      <trkpt lat="48.03143" lon="-3.58513">
        <ele>167.24105193481</ele>
        <time>2022-01-09T15:48:25.087Z</time>
      </trkpt>
      <trkpt lat="48.03152" lon="-3.58571">
        <ele>168.35411302646</ele>
        <time>2022-01-09T15:48:35.006Z</time>
      </trkpt>
      <trkpt lat="48.0316" lon="-3.58605">
        <ele>169.08794239216</ele>
        <time>2022-01-09T15:48:44.928Z</time>
      </trkpt>
      <trkpt lat="48.03236" lon="-3.58848">
        <ele>169.63575862444</ele>
        <time>2022-01-09T15:48:54.872Z</time>
      </trkpt>
      <trkpt lat="48.03271" lon="-3.58945">
        <ele>169.76316413624</ele>
        <time>2022-01-09T15:49:04.826Z</time>
      </trkpt>
      <trkpt lat="48.03304" lon="-3.59011">
        <ele>169.87061131544</ele>
        <time>2022-01-09T15:49:14.786Z</time>
      </trkpt>
      <trkpt lat="48.03389" lon="-3.59153">
        <ele>169.6223743899</ele>
        <time>2022-01-09T15:49:24.762Z</time>
      </trkpt>
      <trkpt lat="48.03412" lon="-3.59214">
        <ele>169.13333823062</ele>
        <time>2022-01-09T15:49:34.744Z</time>
      </trkpt>
      <trkpt lat="48.03439" lon="-3.59331">
        <ele>168.53351106509</ele>
        <time>2022-01-09T15:49:44.737Z</time>
      </trkpt>
      <trkpt lat="48.03442" lon="-3.59356">
        <ele>167.95775833577</ele>
        <time>2022-01-09T15:49:54.732Z</time>
      </trkpt>
      <trkpt lat="48.0345" lon="-3.59463">
        <ele>167.23860477163</ele>
        <time>2022-01-09T15:50:04.736Z</time>
      </trkpt>
      <trkpt lat="48.03455" lon="-3.59502">
        <ele>166.34760870335</ele>
        <time>2022-01-09T15:50:14.743Z</time>
      </trkpt>
      <trkpt lat="48.03494" lon="-3.59695">
        <ele>164.8606485057</ele>
        <time>2022-01-09T15:50:24.767Z</time>
      </trkpt>
      <trkpt lat="48.03499" lon="-3.59722">
        <ele>163.93323244768</ele>
        <time>2022-01-09T15:50:34.793Z</time>
      </trkpt>
      <trkpt lat="48.035" lon="-3.59749">
        <ele>163.08687221036</ele>
        <time>2022-01-09T15:50:44.822Z</time>
      </trkpt>
      <trkpt lat="48.03497" lon="-3.59792">
        <ele>162.18714241978</ele>
        <time>2022-01-09T15:50:54.854Z</time>
      </trkpt>
      <trkpt lat="48.0349" lon="-3.59835">
        <ele>161.21919676013</ele>
        <time>2022-01-09T15:51:04.890Z</time>
      </trkpt>
      <trkpt lat="48.03481" lon="-3.59876">
        <ele>160.23951799925</ele>
        <time>2022-01-09T15:51:14.930Z</time>
      </trkpt>
      <trkpt lat="48.03464" lon="-3.59913">
        <ele>159.35177208661</ele>
        <time>2022-01-09T15:51:24.973Z</time>
      </trkpt>
      <trkpt lat="48.03422" lon="-3.59977">
        <ele>158.68955672546</ele>
        <time>2022-01-09T15:51:35.024Z</time>
      </trkpt>
      <trkpt lat="48.03409" lon="-3.60001">
        <ele>157.78527326839</ele>
        <time>2022-01-09T15:51:45.078Z</time>
      </trkpt>
      <trkpt lat="48.03404" lon="-3.60015">
        <ele>157.04086918959</ele>
        <time>2022-01-09T15:51:55.133Z</time>
      </trkpt>
      <trkpt lat="48.03401" lon="-3.60031">
        <ele>156.3358374111</ele>
        <time>2022-01-09T15:52:05.189Z</time>
      </trkpt>
      <trkpt lat="48.034" lon="-3.60047">
        <ele>155.70484421726</ele>
        <time>2022-01-09T15:52:15.247Z</time>
      </trkpt>
      <trkpt lat="48.03407" lon="-3.60124">
        <ele>154.86312855668</ele>
        <time>2022-01-09T15:52:25.311Z</time>
      </trkpt>
      <trkpt lat="48.03405" lon="-3.60155">
        <ele>154.03531290949</ele>
        <time>2022-01-09T15:52:35.378Z</time>
      </trkpt>
      <trkpt lat="48.03402" lon="-3.6017">
        <ele>153.35721845168</ele>
        <time>2022-01-09T15:52:45.446Z</time>
      </trkpt>
      <trkpt lat="48.03394" lon="-3.60197">
        <ele>152.69432267869</ele>
        <time>2022-01-09T15:52:55.516Z</time>
      </trkpt>
      <trkpt lat="48.03366" lon="-3.6026">
        <ele>152.34557897218</ele>
        <time>2022-01-09T15:53:05.593Z</time>
      </trkpt>
      <trkpt lat="48.0333" lon="-3.60336">
        <ele>151.90924786319</ele>
        <time>2022-01-09T15:53:15.678Z</time>
      </trkpt>
      <trkpt lat="48.03323" lon="-3.60346">
        <ele>151.38962009248</ele>
        <time>2022-01-09T15:53:25.764Z</time>
      </trkpt>
      <trkpt lat="48.03306" lon="-3.60361">
        <ele>150.83296061928</ele>
        <time>2022-01-09T15:53:35.852Z</time>
      </trkpt>
      <trkpt lat="48.03278" lon="-3.60374">
        <ele>150.31841655039</ele>
        <time>2022-01-09T15:53:45.944Z</time>
      </trkpt>
      <trkpt lat="48.03269" lon="-3.60381">
        <ele>149.80768226229</ele>
        <time>2022-01-09T15:53:56.037Z</time>
      </trkpt>
      <trkpt lat="48.03263" lon="-3.60392">
        <ele>149.29775421854</ele>
        <time>2022-01-09T15:54:06.131Z</time>
      </trkpt>
      <trkpt lat="48.03257" lon="-3.60418">
        <ele>148.85282673882</ele>
        <time>2022-01-09T15:54:16.228Z</time>
      </trkpt>
      <trkpt lat="48.03261" lon="-3.60444">
        <ele>148.58252521751</ele>
        <time>2022-01-09T15:54:26.327Z</time>
      </trkpt>
      <trkpt lat="48.03294" lon="-3.60539">
        <ele>148.39507470877</ele>
        <time>2022-01-09T15:54:36.435Z</time>
      </trkpt>
      <trkpt lat="48.03303" lon="-3.60577">
        <ele>148.0487477434</ele>
        <time>2022-01-09T15:54:46.546Z</time>
      </trkpt>
      <trkpt lat="48.03311" lon="-3.60629">
        <ele>148.11028476802</ele>
        <time>2022-01-09T15:54:56.662Z</time>
      </trkpt>
      <trkpt lat="48.03323" lon="-3.60738">
        <ele>147.7528422895</ele>
        <time>2022-01-09T15:55:06.787Z</time>
      </trkpt>
      <trkpt lat="48.03326" lon="-3.60805">
        <ele>148.03408219244</ele>
        <time>2022-01-09T15:55:16.918Z</time>
      </trkpt>
      <trkpt lat="48.03316" lon="-3.60988">
        <ele>148.20089271839</ele>
        <time>2022-01-09T15:55:27.064Z</time>
      </trkpt>
      <trkpt lat="48.03317" lon="-3.61062">
        <ele>148.76332592321</ele>
        <time>2022-01-09T15:55:37.216Z</time>
      </trkpt>
      <trkpt lat="48.03321" lon="-3.61087">
        <ele>149.57940928</ele>
        <time>2022-01-09T15:55:47.370Z</time>
      </trkpt>
      <trkpt lat="48.03325" lon="-3.61099">
        <ele>150.79832812708</ele>
        <time>2022-01-09T15:55:57.526Z</time>
      </trkpt>
      <trkpt lat="48.03349" lon="-3.61153">
        <ele>152.47389024662</ele>
        <time>2022-01-09T15:56:07.687Z</time>
      </trkpt>
      <trkpt lat="48.03355" lon="-3.61175">
        <ele>154.26967543222</ele>
        <time>2022-01-09T15:56:17.850Z</time>
      </trkpt>
      <trkpt lat="48.03359" lon="-3.61209">
        <ele>156.24622133717</ele>
        <time>2022-01-09T15:56:28.016Z</time>
      </trkpt>
      <trkpt lat="48.03366" lon="-3.61346">
        <ele>158.90715168763</ele>
        <time>2022-01-09T15:56:38.193Z</time>
      </trkpt>
      <trkpt lat="48.03371" lon="-3.61391">
        <ele>161.64096662731</ele>
        <time>2022-01-09T15:56:48.374Z</time>
      </trkpt>
      <trkpt lat="48.03389" lon="-3.61485">
        <ele>164.8144582047</ele>
        <time>2022-01-09T15:56:58.563Z</time>
      </trkpt>
      <trkpt lat="48.03398" lon="-3.61565">
        <ele>167.90109043402</ele>
        <time>2022-01-09T15:57:08.759Z</time>
      </trkpt>
      <trkpt lat="48.03409" lon="-3.61712">
        <ele>171.16233179953</ele>
        <time>2022-01-09T15:57:18.968Z</time>
      </trkpt>
      <trkpt lat="48.03417" lon="-3.61793">
        <ele>174.37230119432</ele>
        <time>2022-01-09T15:57:29.184Z</time>
      </trkpt>
      <trkpt lat="48.03447" lon="-3.62213">
        <ele>177.86801239481</ele>
        <time>2022-01-09T15:57:39.435Z</time>
      </trkpt>
      <trkpt lat="48.03458" lon="-3.6234">
        <ele>180.61000234484</ele>
        <time>2022-01-09T15:57:49.697Z</time>
      </trkpt>
      <trkpt lat="48.03481" lon="-3.62681">
        <ele>182.88235710365</ele>
        <time>2022-01-09T15:57:59.987Z</time>
      </trkpt>
      <trkpt lat="48.03503" lon="-3.62964">
        <ele>184.88360260686</ele>
        <time>2022-01-09T15:58:10.301Z</time>
      </trkpt>
      <trkpt lat="48.03509" lon="-3.63105">
        <ele>186.90469270535</ele>
        <time>2022-01-09T15:58:20.627Z</time>
      </trkpt>
      <trkpt lat="48.03513" lon="-3.63427">
        <ele>188.62566119595</ele>
        <time>2022-01-09T15:58:30.980Z</time>
      </trkpt>
      <trkpt lat="48.03517" lon="-3.63517">
        <ele>189.60114121513</ele>
        <time>2022-01-09T15:58:41.341Z</time>
      </trkpt>
      <trkpt lat="48.03528" lon="-3.63611">
        <ele>190.66120020958</ele>
        <time>2022-01-09T15:58:51.710Z</time>
      </trkpt>
      <trkpt lat="48.03619" lon="-3.64099">
        <ele>190.33227277196</ele>
        <time>2022-01-09T15:59:02.121Z</time>
      </trkpt>
      <trkpt lat="48.03633" lon="-3.6418">
        <ele>190.21725147604</ele>
        <time>2022-01-09T15:59:12.539Z</time>
      </trkpt>
      <trkpt lat="48.03639" lon="-3.64236">
        <ele>190.02701886949</ele>
        <time>2022-01-09T15:59:22.962Z</time>
      </trkpt>
      <trkpt lat="48.03644" lon="-3.64306">
        <ele>189.50910067242</ele>
        <time>2022-01-09T15:59:33.391Z</time>
      </trkpt>
      <trkpt lat="48.03645" lon="-3.64347">
        <ele>188.69888261995</ele>
        <time>2022-01-09T15:59:43.823Z</time>
      </trkpt>
      <trkpt lat="48.03644" lon="-3.6443">
        <ele>187.78918807033</ele>
        <time>2022-01-09T15:59:54.262Z</time>
      </trkpt>
      <trkpt lat="48.03633" lon="-3.64594">
        <ele>186.61366052928</ele>
        <time>2022-01-09T16:00:04.715Z</time>
      </trkpt>
      <trkpt lat="48.03608" lon="-3.65081">
        <ele>184.41086040749</ele>
        <time>2022-01-09T16:00:15.209Z</time>
      </trkpt>
      <trkpt lat="48.03595" lon="-3.65308">
        <ele>183.04166830326</ele>
        <time>2022-01-09T16:00:25.722Z</time>
      </trkpt>
      <trkpt lat="48.03588" lon="-3.65377">
        <ele>181.76417591801</ele>
        <time>2022-01-09T16:00:36.241Z</time>
      </trkpt>
      <trkpt lat="48.03571" lon="-3.65495">
        <ele>180.78461670734</ele>
        <time>2022-01-09T16:00:46.770Z</time>
      </trkpt>
      <trkpt lat="48.03551" lon="-3.65592">
        <ele>179.62298148256</ele>
        <time>2022-01-09T16:00:57.308Z</time>
      </trkpt>
      <trkpt lat="48.03516" lon="-3.65756">
        <ele>178.49525800815</ele>
        <time>2022-01-09T16:01:07.860Z</time>
      </trkpt>
      <trkpt lat="48.03493" lon="-3.65846">
        <ele>177.66909889396</ele>
        <time>2022-01-09T16:01:18.420Z</time>
      </trkpt>
      <trkpt lat="48.03466" lon="-3.65921">
        <ele>176.93231739737</ele>
        <time>2022-01-09T16:01:28.987Z</time>
      </trkpt>
      <trkpt lat="48.03397" lon="-3.6609">
        <ele>175.99055002393</ele>
        <time>2022-01-09T16:01:39.571Z</time>
      </trkpt>
      <trkpt lat="48.03357" lon="-3.6619">
        <ele>174.73460514813</ele>
        <time>2022-01-09T16:01:50.165Z</time>
      </trkpt>
      <trkpt lat="48.03336" lon="-3.66239">
        <ele>173.73589000445</ele>
        <time>2022-01-09T16:02:00.764Z</time>
      </trkpt>
      <trkpt lat="48.03312" lon="-3.66287">
        <ele>172.80986495203</ele>
        <time>2022-01-09T16:02:11.368Z</time>
      </trkpt>
      <trkpt lat="48.0327" lon="-3.66349">
        <ele>171.28010838071</ele>
        <time>2022-01-09T16:02:21.979Z</time>
      </trkpt>
      <trkpt lat="48.0324" lon="-3.66387">
        <ele>168.18427316303</ele>
        <time>2022-01-09T16:02:32.595Z</time>
      </trkpt>
      <trkpt lat="48.0295" lon="-3.66694">
        <ele>166.42173619831</ele>
        <time>2022-01-09T16:02:43.255Z</time>
      </trkpt>
      <trkpt lat="48.02937" lon="-3.66711">
        <ele>164.52567781862</ele>
        <time>2022-01-09T16:02:53.918Z</time>
      </trkpt>
      <trkpt lat="48.0292" lon="-3.66744">
        <ele>162.46488924143</ele>
        <time>2022-01-09T16:03:04.584Z</time>
      </trkpt>
      <trkpt lat="48.029" lon="-3.66808">
        <ele>160.12209312514</ele>
        <time>2022-01-09T16:03:15.256Z</time>
      </trkpt>
      <trkpt lat="48.02835" lon="-3.67029">
        <ele>157.25887013226</ele>
        <time>2022-01-09T16:03:25.948Z</time>
      </trkpt>
      <trkpt lat="48.02745" lon="-3.6732">
        <ele>154.57446973219</ele>
        <time>2022-01-09T16:03:36.667Z</time>
      </trkpt>
      <trkpt lat="48.02676" lon="-3.67532">
        <ele>152.10643127894</ele>
        <time>2022-01-09T16:03:47.406Z</time>
      </trkpt>
      <trkpt lat="48.02531" lon="-3.68018">
        <ele>149.57156530742</ele>
        <time>2022-01-09T16:03:58.190Z</time>
      </trkpt>
      <trkpt lat="48.02404" lon="-3.68418">
        <ele>147.18360223947</ele>
        <time>2022-01-09T16:04:09.011Z</time>
      </trkpt>
      <trkpt lat="48.02392" lon="-3.68451">
        <ele>145.40597027762</ele>
        <time>2022-01-09T16:04:19.835Z</time>
      </trkpt>
      <trkpt lat="48.02371" lon="-3.68493">
        <ele>144.16665811953</ele>
        <time>2022-01-09T16:04:30.663Z</time>
      </trkpt>
      <trkpt lat="48.02368" lon="-3.68502">
        <ele>143.26516391201</ele>
        <time>2022-01-09T16:04:41.492Z</time>
      </trkpt>
      <trkpt lat="48.02369" lon="-3.68533">
        <ele>142.78298613019</ele>
        <time>2022-01-09T16:04:52.324Z</time>
      </trkpt>
      <trkpt lat="48.02365" lon="-3.68554">
        <ele>142.67407083807</ele>
        <time>2022-01-09T16:05:03.158Z</time>
      </trkpt>
      <trkpt lat="48.02338" lon="-3.68641">
        <ele>142.98565750286</ele>
        <time>2022-01-09T16:05:14.000Z</time>
      </trkpt>
      <trkpt lat="48.02326" lon="-3.68701">
        <ele>143.80425720468</ele>
        <time>2022-01-09T16:05:24.847Z</time>
      </trkpt>
      <trkpt lat="48.02326" lon="-3.68725">
        <ele>144.99089305702</ele>
        <time>2022-01-09T16:05:35.696Z</time>
      </trkpt>
      <trkpt lat="48.0233" lon="-3.68749">
        <ele>146.61240413011</ele>
        <time>2022-01-09T16:05:46.547Z</time>
      </trkpt>
      <trkpt lat="48.02379" lon="-3.68952">
        <ele>148.78859830577</ele>
        <time>2022-01-09T16:05:57.416Z</time>
      </trkpt>
      <trkpt lat="48.02422" lon="-3.69145">
        <ele>151.89003474103</ele>
        <time>2022-01-09T16:06:08.302Z</time>
      </trkpt>
      <trkpt lat="48.0243" lon="-3.69175">
        <ele>154.29079096177</ele>
        <time>2022-01-09T16:06:19.191Z</time>
      </trkpt>
      <trkpt lat="48.02456" lon="-3.6936">
        <ele>157.27845254841</ele>
        <time>2022-01-09T16:06:30.096Z</time>
      </trkpt>
      <trkpt lat="48.02471" lon="-3.69438">
        <ele>159.72844085033</ele>
        <time>2022-01-09T16:06:41.007Z</time>
      </trkpt>
      <trkpt lat="48.02477" lon="-3.69447">
        <ele>161.93954480534</ele>
        <time>2022-01-09T16:06:51.920Z</time>
      </trkpt>
      <trkpt lat="48.02538" lon="-3.69504">
        <ele>163.90900912447</ele>
        <time>2022-01-09T16:07:02.842Z</time>
      </trkpt>
      <trkpt lat="48.02573" lon="-3.69539">
        <ele>165.8812154146</ele>
        <time>2022-01-09T16:07:13.769Z</time>
      </trkpt>
      <trkpt lat="48.02605" lon="-3.69577">
        <ele>167.8203486248</ele>
        <time>2022-01-09T16:07:24.701Z</time>
      </trkpt>
      <trkpt lat="48.02625" lon="-3.69608">
        <ele>169.68560416947</ele>
        <time>2022-01-09T16:07:35.637Z</time>
      </trkpt>
      <trkpt lat="48.02717" lon="-3.69761">
        <ele>171.96067413363</ele>
        <time>2022-01-09T16:07:46.590Z</time>
      </trkpt>
      <trkpt lat="48.02733" lon="-3.698">
        <ele>174.33968051807</ele>
        <time>2022-01-09T16:07:57.547Z</time>
      </trkpt>
      <trkpt lat="48.02753" lon="-3.69867">
        <ele>176.42629250189</ele>
        <time>2022-01-09T16:08:08.510Z</time>
      </trkpt>
      <trkpt lat="48.02758" lon="-3.69886">
        <ele>177.98618955696</ele>
        <time>2022-01-09T16:08:19.474Z</time>
      </trkpt>
      <trkpt lat="48.02765" lon="-3.69953">
        <ele>179.56401082729</ele>
        <time>2022-01-09T16:08:30.444Z</time>
      </trkpt>
      <trkpt lat="48.02772" lon="-3.70052">
        <ele>181.21672517156</ele>
        <time>2022-01-09T16:08:41.423Z</time>
      </trkpt>
      <trkpt lat="48.02772" lon="-3.70075">
        <ele>182.5432451911</ele>
        <time>2022-01-09T16:08:52.403Z</time>
      </trkpt>
      <trkpt lat="48.02768" lon="-3.70099">
        <ele>183.78792270151</ele>
        <time>2022-01-09T16:09:03.386Z</time>
      </trkpt>
      <trkpt lat="48.02732" lon="-3.70259">
        <ele>185.19483703802</ele>
        <time>2022-01-09T16:09:14.383Z</time>
      </trkpt>
      <trkpt lat="48.02723" lon="-3.70387">
        <ele>186.2776691709</ele>
        <time>2022-01-09T16:09:25.390Z</time>
      </trkpt>
      <trkpt lat="48.02715" lon="-3.70538">
        <ele>187.61129270112</ele>
        <time>2022-01-09T16:09:36.410Z</time>
      </trkpt>
      <trkpt lat="48.02718" lon="-3.70563">
        <ele>188.48659517168</ele>
        <time>2022-01-09T16:09:47.432Z</time>
      </trkpt>
      <trkpt lat="48.02732" lon="-3.70599">
        <ele>189.32535284244</ele>
        <time>2022-01-09T16:09:58.458Z</time>
      </trkpt>
      <trkpt lat="48.02738" lon="-3.7061">
        <ele>190.00207100142</ele>
        <time>2022-01-09T16:10:09.485Z</time>
      </trkpt>
      <trkpt lat="48.02758" lon="-3.70636">
        <ele>190.66596393946</ele>
        <time>2022-01-09T16:10:20.515Z</time>
      </trkpt>
      <trkpt lat="48.02786" lon="-3.70655">
        <ele>191.31591993563</ele>
        <time>2022-01-09T16:10:31.549Z</time>
      </trkpt>
      <trkpt lat="48.02852" lon="-3.70693">
        <ele>191.87211313403</ele>
        <time>2022-01-09T16:10:42.592Z</time>
      </trkpt>
      <trkpt lat="48.02861" lon="-3.707">
        <ele>192.45145819205</ele>
        <time>2022-01-09T16:10:53.636Z</time>
      </trkpt>
      <trkpt lat="48.02876" lon="-3.70721">
        <ele>193.13351490046</ele>
        <time>2022-01-09T16:11:04.683Z</time>
      </trkpt>
      <trkpt lat="48.02888" lon="-3.70747">
        <ele>193.82190256574</ele>
        <time>2022-01-09T16:11:15.733Z</time>
      </trkpt>
      <trkpt lat="48.02904" lon="-3.7079">
        <ele>194.65031633774</ele>
        <time>2022-01-09T16:11:26.787Z</time>
      </trkpt>
      <trkpt lat="48.02917" lon="-3.7084">
        <ele>195.63687011488</ele>
        <time>2022-01-09T16:11:37.845Z</time>
      </trkpt>
      <trkpt lat="48.02922" lon="-3.70866">
        <ele>196.82661974474</ele>
        <time>2022-01-09T16:11:48.905Z</time>
      </trkpt>
      <trkpt lat="48.02931" lon="-3.7094">
        <ele>197.9416049794</ele>
        <time>2022-01-09T16:11:59.972Z</time>
      </trkpt>
      <trkpt lat="48.0294" lon="-3.71073">
        <ele>199.44136646036</ele>
        <time>2022-01-09T16:12:11.050Z</time>
      </trkpt>
      <trkpt lat="48.02955" lon="-3.71148">
        <ele>201.18175735839</ele>
        <time>2022-01-09T16:12:22.134Z</time>
      </trkpt>
      <trkpt lat="48.02992" lon="-3.71259">
        <ele>203.21817901156</ele>
        <time>2022-01-09T16:12:33.229Z</time>
      </trkpt>
      <trkpt lat="48.03004" lon="-3.71313">
        <ele>205.33160514964</ele>
        <time>2022-01-09T16:12:44.329Z</time>
      </trkpt>
      <trkpt lat="48.03026" lon="-3.71421">
        <ele>207.86547947899</ele>
        <time>2022-01-09T16:12:55.438Z</time>
      </trkpt>
      <trkpt lat="48.03035" lon="-3.71462">
        <ele>209.84194927173</ele>
        <time>2022-01-09T16:13:06.551Z</time>
      </trkpt>
      <trkpt lat="48.03052" lon="-3.71513">
        <ele>211.77946390121</ele>
        <time>2022-01-09T16:13:17.669Z</time>
      </trkpt>
      <trkpt lat="48.03061" lon="-3.71538">
        <ele>213.53145846193</ele>
        <time>2022-01-09T16:13:28.789Z</time>
      </trkpt>
      <trkpt lat="48.03179" lon="-3.71836">
        <ele>216.29378069709</ele>
        <time>2022-01-09T16:13:39.938Z</time>
      </trkpt>
      <trkpt lat="48.03192" lon="-3.71872">
        <ele>217.73208514956</ele>
        <time>2022-01-09T16:13:51.090Z</time>
      </trkpt>
      <trkpt lat="48.03211" lon="-3.71938">
        <ele>218.97884879873</ele>
        <time>2022-01-09T16:14:02.248Z</time>
      </trkpt>
      <trkpt lat="48.03224" lon="-3.72003">
        <ele>219.72729862016</ele>
        <time>2022-01-09T16:14:13.412Z</time>
      </trkpt>
      <trkpt lat="48.03245" lon="-3.72172">
        <ele>219.85536821625</ele>
        <time>2022-01-09T16:14:24.591Z</time>
      </trkpt>
      <trkpt lat="48.03254" lon="-3.72261">
        <ele>220.01688927022</ele>
        <time>2022-01-09T16:14:35.777Z</time>
      </trkpt>
      <trkpt lat="48.03254" lon="-3.72346">
        <ele>219.92961321537</ele>
        <time>2022-01-09T16:14:46.970Z</time>
      </trkpt>
      <trkpt lat="48.03246" lon="-3.72474">
        <ele>219.67674797682</ele>
        <time>2022-01-09T16:14:58.174Z</time>
      </trkpt>
      <trkpt lat="48.03243" lon="-3.72568">
        <ele>219.27972597214</ele>
        <time>2022-01-09T16:15:09.386Z</time>
      </trkpt>
      <trkpt lat="48.03244" lon="-3.72599">
        <ele>218.61645569304</ele>
        <time>2022-01-09T16:15:20.600Z</time>
      </trkpt>
      <trkpt lat="48.03253" lon="-3.7267">
        <ele>217.95273412225</ele>
        <time>2022-01-09T16:15:31.821Z</time>
      </trkpt>
      <trkpt lat="48.03366" lon="-3.73265">
        <ele>216.4892583999</ele>
        <time>2022-01-09T16:15:43.093Z</time>
      </trkpt>
      <trkpt lat="48.03623" lon="-3.74645">
        <ele>215.12614725344</ele>
        <time>2022-01-09T16:15:54.486Z</time>
      </trkpt>
      <trkpt lat="48.03633" lon="-3.74697">
        <ele>214.53827972598</ele>
        <time>2022-01-09T16:16:05.883Z</time>
      </trkpt>
      <trkpt lat="48.03643" lon="-3.74735">
        <ele>214.03596845305</ele>
        <time>2022-01-09T16:16:17.284Z</time>
      </trkpt>
      <trkpt lat="48.03655" lon="-3.7477">
        <ele>213.70084077336</ele>
        <time>2022-01-09T16:16:28.688Z</time>
      </trkpt>
      <trkpt lat="48.03666" lon="-3.74794">
        <ele>213.52473034912</ele>
        <time>2022-01-09T16:16:40.094Z</time>
      </trkpt>
      <trkpt lat="48.03691" lon="-3.74841">
        <ele>213.72352199316</ele>
        <time>2022-01-09T16:16:51.505Z</time>
      </trkpt>
      <trkpt lat="48.03782" lon="-3.74984">
        <ele>213.89625634321</ele>
        <time>2022-01-09T16:17:02.933Z</time>
      </trkpt>
      <trkpt lat="48.03824" lon="-3.75044">
        <ele>214.22756645659</ele>
        <time>2022-01-09T16:17:14.368Z</time>
      </trkpt>
      <trkpt lat="48.03881" lon="-3.75102">
        <ele>215.05948235463</ele>
        <time>2022-01-09T16:17:25.812Z</time>
      </trkpt>
      <trkpt lat="48.0404" lon="-3.75248">
        <ele>216.3294117501</ele>
        <time>2022-01-09T16:17:37.279Z</time>
      </trkpt>
      <trkpt lat="48.04088" lon="-3.75302">
        <ele>217.35796118617</ele>
        <time>2022-01-09T16:17:48.754Z</time>
      </trkpt>
      <trkpt lat="48.04127" lon="-3.75353">
        <ele>218.56875244112</ele>
        <time>2022-01-09T16:18:00.235Z</time>
      </trkpt>
      <trkpt lat="48.04272" lon="-3.75573">
        <ele>219.67360665551</ele>
        <time>2022-01-09T16:18:11.742Z</time>
      </trkpt>
      <trkpt lat="48.04316" lon="-3.75643">
        <ele>221.11222332864</ele>
        <time>2022-01-09T16:18:23.257Z</time>
      </trkpt>
      <trkpt lat="48.04372" lon="-3.75753">
        <ele>222.8600974042</ele>
        <time>2022-01-09T16:18:34.784Z</time>
      </trkpt>
      <trkpt lat="48.04401" lon="-3.75814">
        <ele>224.49509082829</ele>
        <time>2022-01-09T16:18:46.317Z</time>
      </trkpt>
      <trkpt lat="48.0443" lon="-3.75891">
        <ele>226.31938233355</ele>
        <time>2022-01-09T16:18:57.857Z</time>
      </trkpt>
      <trkpt lat="48.04444" lon="-3.75959">
        <ele>228.14608754229</ele>
        <time>2022-01-09T16:19:09.403Z</time>
      </trkpt>
      <trkpt lat="48.04462" lon="-3.76064">
        <ele>230.18057808237</ele>
        <time>2022-01-09T16:19:20.958Z</time>
      </trkpt>
      <trkpt lat="48.04478" lon="-3.76141">
        <ele>231.64652365199</ele>
        <time>2022-01-09T16:19:32.520Z</time>
      </trkpt>
      <trkpt lat="48.04516" lon="-3.7626">
        <ele>233.00467181966</ele>
        <time>2022-01-09T16:19:44.093Z</time>
      </trkpt>
      <trkpt lat="48.04542" lon="-3.76354">
        <ele>234.44151303531</ele>
        <time>2022-01-09T16:19:55.675Z</time>
      </trkpt>
      <trkpt lat="48.04556" lon="-3.76416">
        <ele>235.0241996519</ele>
        <time>2022-01-09T16:20:07.262Z</time>
      </trkpt>
      <trkpt lat="48.04557" lon="-3.76446">
        <ele>235.28164616692</ele>
        <time>2022-01-09T16:20:18.852Z</time>
      </trkpt>
      <trkpt lat="48.04556" lon="-3.76487">
        <ele>235.07692970992</ele>
        <time>2022-01-09T16:20:30.445Z</time>
      </trkpt>
      <trkpt lat="48.04534" lon="-3.76652">
        <ele>234.3328817993</ele>
        <time>2022-01-09T16:20:42.052Z</time>
      </trkpt>
      <trkpt lat="48.04536" lon="-3.7672">
        <ele>233.40957999799</ele>
        <time>2022-01-09T16:20:53.665Z</time>
      </trkpt>
      <trkpt lat="48.04551" lon="-3.76782">
        <ele>232.06079630376</ele>
        <time>2022-01-09T16:21:05.284Z</time>
      </trkpt>
      <trkpt lat="48.04611" lon="-3.76936">
        <ele>229.84418063011</ele>
        <time>2022-01-09T16:21:16.918Z</time>
      </trkpt>
      <trkpt lat="48.04631" lon="-3.76972">
        <ele>227.64982428521</ele>
        <time>2022-01-09T16:21:28.555Z</time>
      </trkpt>
      <trkpt lat="48.04692" lon="-3.7706">
        <ele>225.08925730242</ele>
        <time>2022-01-09T16:21:40.203Z</time>
      </trkpt>
      <trkpt lat="48.04705" lon="-3.77085">
        <ele>222.69703579449</ele>
        <time>2022-01-09T16:21:51.854Z</time>
      </trkpt>
      <trkpt lat="48.04723" lon="-3.77125">
        <ele>220.34132861492</ele>
        <time>2022-01-09T16:22:03.509Z</time>
      </trkpt>
      <trkpt lat="48.04838" lon="-3.77408">
        <ele>217.3023492549</ele>
        <time>2022-01-09T16:22:15.191Z</time>
      </trkpt>
      <trkpt lat="48.04854" lon="-3.77455">
        <ele>215.33840747145</ele>
        <time>2022-01-09T16:22:26.878Z</time>
      </trkpt>
      <trkpt lat="48.04874" lon="-3.77521">
        <ele>213.45869676127</ele>
        <time>2022-01-09T16:22:38.571Z</time>
      </trkpt>
      <trkpt lat="48.04885" lon="-3.77572">
        <ele>211.84452944083</ele>
        <time>2022-01-09T16:22:50.269Z</time>
      </trkpt>
      <trkpt lat="48.04891" lon="-3.77625">
        <ele>210.49534788218</ele>
        <time>2022-01-09T16:23:01.971Z</time>
      </trkpt>
      <trkpt lat="48.04899" lon="-3.77747">
        <ele>209.66989088549</ele>
        <time>2022-01-09T16:23:13.683Z</time>
      </trkpt>
      <trkpt lat="48.04902" lon="-3.77827">
        <ele>209.28065003994</ele>
        <time>2022-01-09T16:23:25.402Z</time>
      </trkpt>
      <trkpt lat="48.04899" lon="-3.77887">
        <ele>209.01560698068</ele>
        <time>2022-01-09T16:23:37.126Z</time>
      </trkpt>
      <trkpt lat="48.04889" lon="-3.77972">
        <ele>208.87258521259</ele>
        <time>2022-01-09T16:23:48.857Z</time>
      </trkpt>
      <trkpt lat="48.04878" lon="-3.78026">
        <ele>209.10757176284</ele>
        <time>2022-01-09T16:24:00.593Z</time>
      </trkpt>
      <trkpt lat="48.04853" lon="-3.78139">
        <ele>209.76277415751</ele>
        <time>2022-01-09T16:24:12.339Z</time>
      </trkpt>
      <trkpt lat="48.04845" lon="-3.78197">
        <ele>209.86439493093</ele>
        <time>2022-01-09T16:24:24.090Z</time>
      </trkpt>
      <trkpt lat="48.04841" lon="-3.78231">
        <ele>209.97864647606</ele>
        <time>2022-01-09T16:24:35.844Z</time>
      </trkpt>
      <trkpt lat="48.04837" lon="-3.78294">
        <ele>210.19810621995</ele>
        <time>2022-01-09T16:24:47.603Z</time>
      </trkpt>
      <trkpt lat="48.04836" lon="-3.7835">
        <ele>209.95138837867</ele>
        <time>2022-01-09T16:24:59.367Z</time>
      </trkpt>
      <trkpt lat="48.04837" lon="-3.78387">
        <ele>209.33110826153</ele>
        <time>2022-01-09T16:25:11.134Z</time>
      </trkpt>
      <trkpt lat="48.04842" lon="-3.78445">
        <ele>208.42704681015</ele>
        <time>2022-01-09T16:25:22.906Z</time>
      </trkpt>
      <trkpt lat="48.04857" lon="-3.78523">
        <ele>206.89131211836</ele>
        <time>2022-01-09T16:25:34.685Z</time>
      </trkpt>
      <trkpt lat="48.04923" lon="-3.78763">
        <ele>205.39107245785</ele>
        <time>2022-01-09T16:25:46.485Z</time>
      </trkpt>
      <trkpt lat="48.04942" lon="-3.78839">
        <ele>203.35017106642</ele>
        <time>2022-01-09T16:25:58.292Z</time>
      </trkpt>
      <trkpt lat="48.04959" lon="-3.78919">
        <ele>200.60696301752</ele>
        <time>2022-01-09T16:26:10.106Z</time>
      </trkpt>
      <trkpt lat="48.05035" lon="-3.79368">
        <ele>195.90863631729</ele>
        <time>2022-01-09T16:26:21.959Z</time>
      </trkpt>
      <trkpt lat="48.05044" lon="-3.79406">
        <ele>193.12185844773</ele>
        <time>2022-01-09T16:26:33.815Z</time>
      </trkpt>
      <trkpt lat="48.05061" lon="-3.79462">
        <ele>190.46164243274</ele>
        <time>2022-01-09T16:26:45.677Z</time>
      </trkpt>
      <trkpt lat="48.05073" lon="-3.79498">
        <ele>187.95955829216</ele>
        <time>2022-01-09T16:26:57.542Z</time>
      </trkpt>
      <trkpt lat="48.05087" lon="-3.79532">
        <ele>185.60509578607</ele>
        <time>2022-01-09T16:27:09.410Z</time>
      </trkpt>
      <trkpt lat="48.05119" lon="-3.79598">
        <ele>183.39917984254</ele>
        <time>2022-01-09T16:27:21.285Z</time>
      </trkpt>
      <trkpt lat="48.05138" lon="-3.79628">
        <ele>181.55976928327</ele>
        <time>2022-01-09T16:27:33.164Z</time>
      </trkpt>
      <trkpt lat="48.05169" lon="-3.79673">
        <ele>180.20114042102</ele>
        <time>2022-01-09T16:27:45.048Z</time>
      </trkpt>
      <trkpt lat="48.05264" lon="-3.79804">
        <ele>179.324908724</ele>
        <time>2022-01-09T16:27:56.948Z</time>
      </trkpt>
      <trkpt lat="48.05286" lon="-3.79838">
        <ele>179.15323221858</ele>
        <time>2022-01-09T16:28:08.852Z</time>
      </trkpt>
      <trkpt lat="48.05299" lon="-3.79862">
        <ele>179.57751280209</ele>
        <time>2022-01-09T16:28:20.759Z</time>
      </trkpt>
      <trkpt lat="48.05318" lon="-3.79908">
        <ele>180.59778307459</ele>
        <time>2022-01-09T16:28:32.670Z</time>
      </trkpt>
      <trkpt lat="48.05342" lon="-3.79982">
        <ele>182.23207425647</ele>
        <time>2022-01-09T16:28:44.588Z</time>
      </trkpt>
      <trkpt lat="48.05354" lon="-3.80036">
        <ele>183.71615177065</ele>
        <time>2022-01-09T16:28:56.511Z</time>
      </trkpt>
      <trkpt lat="48.05366" lon="-3.80126">
        <ele>185.46066566668</ele>
        <time>2022-01-09T16:29:08.442Z</time>
      </trkpt>
      <trkpt lat="48.05396" lon="-3.80386">
        <ele>188.06270568631</ele>
        <time>2022-01-09T16:29:20.395Z</time>
      </trkpt>
      <trkpt lat="48.05444" lon="-3.80779">
        <ele>190.67445643452</ele>
        <time>2022-01-09T16:29:32.381Z</time>
      </trkpt>
      <trkpt lat="48.05461" lon="-3.80957">
        <ele>192.09412348102</ele>
        <time>2022-01-09T16:29:44.382Z</time>
      </trkpt>
      <trkpt lat="48.05476" lon="-3.8107">
        <ele>193.4073521792</ele>
        <time>2022-01-09T16:29:56.393Z</time>
      </trkpt>
      <trkpt lat="48.0549" lon="-3.81169">
        <ele>194.71157670023</ele>
        <time>2022-01-09T16:30:08.413Z</time>
      </trkpt>
      <trkpt lat="48.05513" lon="-3.81295">
        <ele>196.04175939292</ele>
        <time>2022-01-09T16:30:20.443Z</time>
      </trkpt>
      <trkpt lat="48.05571" lon="-3.81549">
        <ele>196.04796789339</ele>
        <time>2022-01-09T16:30:32.496Z</time>
      </trkpt>
      <trkpt lat="48.05584" lon="-3.8162">
        <ele>197.69464697844</ele>
        <time>2022-01-09T16:30:44.555Z</time>
      </trkpt>
      <trkpt lat="48.05615" lon="-3.8183">
        <ele>200.01646830371</ele>
        <time>2022-01-09T16:30:56.632Z</time>
      </trkpt>
      <trkpt lat="48.05632" lon="-3.81916">
        <ele>202.49090016219</ele>
        <time>2022-01-09T16:31:08.717Z</time>
      </trkpt>
      <trkpt lat="48.05732" lon="-3.82332">
        <ele>205.82506096529</ele>
        <time>2022-01-09T16:31:20.839Z</time>
      </trkpt>
      <trkpt lat="48.05755" lon="-3.82439">
        <ele>208.57007900012</ele>
        <time>2022-01-09T16:31:32.970Z</time>
      </trkpt>
      <trkpt lat="48.05767" lon="-3.82505">
        <ele>211.1256776305</ele>
        <time>2022-01-09T16:31:45.107Z</time>
      </trkpt>
      <trkpt lat="48.05783" lon="-3.82615">
        <ele>213.65290764383</ele>
        <time>2022-01-09T16:31:57.253Z</time>
      </trkpt>
      <trkpt lat="48.0579" lon="-3.82672">
        <ele>216.30674696671</ele>
        <time>2022-01-09T16:32:09.404Z</time>
      </trkpt>
      <trkpt lat="48.05791" lon="-3.82727">
        <ele>218.81431842506</ele>
        <time>2022-01-09T16:32:21.560Z</time>
      </trkpt>
      <trkpt lat="48.05793" lon="-3.82743">
        <ele>220.86280536007</ele>
        <time>2022-01-09T16:32:33.717Z</time>
      </trkpt>
      <trkpt lat="48.05798" lon="-3.82758">
        <ele>222.66352494575</ele>
        <time>2022-01-09T16:32:45.876Z</time>
      </trkpt>
      <trkpt lat="48.05812" lon="-3.82784">
        <ele>224.21654508021</ele>
        <time>2022-01-09T16:32:58.037Z</time>
      </trkpt>
      <trkpt lat="48.05848" lon="-3.82841">
        <ele>225.68205063259</ele>
        <time>2022-01-09T16:33:10.205Z</time>
      </trkpt>
      <trkpt lat="48.05893" lon="-3.829">
        <ele>226.72229551228</ele>
        <time>2022-01-09T16:33:22.380Z</time>
      </trkpt>
      <trkpt lat="48.05929" lon="-3.82943">
        <ele>227.3981269701</ele>
        <time>2022-01-09T16:33:34.561Z</time>
      </trkpt>
      <trkpt lat="48.05947" lon="-3.82961">
        <ele>227.88286034013</ele>
        <time>2022-01-09T16:33:46.745Z</time>
      </trkpt>
      <trkpt lat="48.0595" lon="-3.82965">
        <ele>228.02458909731</ele>
        <time>2022-01-09T16:33:58.929Z</time>
      </trkpt>
      <trkpt lat="48.05951" lon="-3.82969">
        <ele>227.8624018245</ele>
        <time>2022-01-09T16:34:11.114Z</time>
      </trkpt>
      <trkpt lat="48.05951" lon="-3.82974">
        <ele>227.40312442417</ele>
        <time>2022-01-09T16:34:23.299Z</time>
      </trkpt>
      <trkpt lat="48.05938" lon="-3.83018">
        <ele>226.54703704861</ele>
        <time>2022-01-09T16:34:35.488Z</time>
      </trkpt>
      <trkpt lat="48.05936" lon="-3.83035">
        <ele>225.50601706579</ele>
        <time>2022-01-09T16:34:47.679Z</time>
      </trkpt>
      <trkpt lat="48.0594" lon="-3.83088">
        <ele>224.14286704865</ele>
        <time>2022-01-09T16:34:59.874Z</time>
      </trkpt>
      <trkpt lat="48.05939" lon="-3.8311">
        <ele>222.52829756647</ele>
        <time>2022-01-09T16:35:12.071Z</time>
      </trkpt>
      <trkpt lat="48.05935" lon="-3.83133">
        <ele>220.66559046691</ele>
        <time>2022-01-09T16:35:24.270Z</time>
      </trkpt>
      <trkpt lat="48.05917" lon="-3.83209">
        <ele>218.33163120704</ele>
        <time>2022-01-09T16:35:36.476Z</time>
      </trkpt>
      <trkpt lat="48.05905" lon="-3.83232">
        <ele>216.08359823535</ele>
        <time>2022-01-09T16:35:48.684Z</time>
      </trkpt>
      <trkpt lat="48.0585" lon="-3.83309">
        <ele>213.60937739706</ele>
        <time>2022-01-09T16:36:00.902Z</time>
      </trkpt>
      <trkpt lat="48.0584" lon="-3.83332">
        <ele>211.26561757761</ele>
        <time>2022-01-09T16:36:13.122Z</time>
      </trkpt>
      <trkpt lat="48.05833" lon="-3.83358">
        <ele>208.84043622583</ele>
        <time>2022-01-09T16:36:25.344Z</time>
      </trkpt>
      <trkpt lat="48.05825" lon="-3.8341">
        <ele>206.33298384212</ele>
        <time>2022-01-09T16:36:37.571Z</time>
      </trkpt>
      <trkpt lat="48.05813" lon="-3.83624">
        <ele>203.49981023166</ele>
        <time>2022-01-09T16:36:49.816Z</time>
      </trkpt>
      <trkpt lat="48.05803" lon="-3.83708">
        <ele>200.95737567046</ele>
        <time>2022-01-09T16:37:02.068Z</time>
      </trkpt>
      <trkpt lat="48.05766" lon="-3.83853">
        <ele>198.54807087676</ele>
        <time>2022-01-09T16:37:14.333Z</time>
      </trkpt>
      <trkpt lat="48.05749" lon="-3.83982">
        <ele>195.86081585507</ele>
        <time>2022-01-09T16:37:26.609Z</time>
      </trkpt>
      <trkpt lat="48.05734" lon="-3.84062">
        <ele>193.75547563318</ele>
        <time>2022-01-09T16:37:38.892Z</time>
      </trkpt>
      <trkpt lat="48.0571" lon="-3.84151">
        <ele>192.1326500849</ele>
        <time>2022-01-09T16:37:51.183Z</time>
      </trkpt>
      <trkpt lat="48.05647" lon="-3.84363">
        <ele>190.8187985192</ele>
        <time>2022-01-09T16:38:03.493Z</time>
      </trkpt>
      <trkpt lat="48.05579" lon="-3.8469">
        <ele>189.00508824089</ele>
        <time>2022-01-09T16:38:15.832Z</time>
      </trkpt>
      <trkpt lat="48.05569" lon="-3.84727">
        <ele>187.67673786953</ele>
        <time>2022-01-09T16:38:28.174Z</time>
      </trkpt>
      <trkpt lat="48.05546" lon="-3.84786">
        <ele>186.24098942844</ele>
        <time>2022-01-09T16:38:40.522Z</time>
      </trkpt>
      <trkpt lat="48.05489" lon="-3.84922">
        <ele>184.94633684906</ele>
        <time>2022-01-09T16:38:52.884Z</time>
      </trkpt>
      <trkpt lat="48.05463" lon="-3.85001">
        <ele>183.72154967002</ele>
        <time>2022-01-09T16:39:05.253Z</time>
      </trkpt>
      <trkpt lat="48.05413" lon="-3.85173">
        <ele>182.45451824004</ele>
        <time>2022-01-09T16:39:17.638Z</time>
      </trkpt>
      <trkpt lat="48.05391" lon="-3.85246">
        <ele>181.13755808342</ele>
        <time>2022-01-09T16:39:30.029Z</time>
      </trkpt>
      <trkpt lat="48.05203" lon="-3.85763">
        <ele>179.94223825224</ele>
        <time>2022-01-09T16:39:42.470Z</time>
      </trkpt>
      <trkpt lat="48.05185" lon="-3.85828">
        <ele>178.95190181921</ele>
        <time>2022-01-09T16:39:54.917Z</time>
      </trkpt>
      <trkpt lat="48.05176" lon="-3.85869">
        <ele>177.99095546982</ele>
        <time>2022-01-09T16:40:07.367Z</time>
      </trkpt>
      <trkpt lat="48.05153" lon="-3.85992">
        <ele>177.07472261641</ele>
        <time>2022-01-09T16:40:19.828Z</time>
      </trkpt>
      <trkpt lat="48.05135" lon="-3.86077">
        <ele>176.07993078843</ele>
        <time>2022-01-09T16:40:32.296Z</time>
      </trkpt>
      <trkpt lat="48.05096" lon="-3.86213">
        <ele>174.71912126604</ele>
        <time>2022-01-09T16:40:44.777Z</time>
      </trkpt>
      <trkpt lat="48.05064" lon="-3.86337">
        <ele>173.40607265046</ele>
        <time>2022-01-09T16:40:57.269Z</time>
      </trkpt>
      <trkpt lat="48.05049" lon="-3.86414">
        <ele>172.27479469072</ele>
        <time>2022-01-09T16:41:09.768Z</time>
      </trkpt>
      <trkpt lat="48.05036" lon="-3.86491">
        <ele>171.12813963677</ele>
        <time>2022-01-09T16:41:22.273Z</time>
      </trkpt>
      <trkpt lat="48.04982" lon="-3.86908">
        <ele>169.66924010248</ele>
        <time>2022-01-09T16:41:34.814Z</time>
      </trkpt>
      <trkpt lat="48.04974" lon="-3.87007">
        <ele>168.73364957839</ele>
        <time>2022-01-09T16:41:47.363Z</time>
      </trkpt>
      <trkpt lat="48.04958" lon="-3.87252">
        <ele>167.46562787716</ele>
        <time>2022-01-09T16:41:59.933Z</time>
      </trkpt>
      <trkpt lat="48.04946" lon="-3.87467">
        <ele>166.40693162877</ele>
        <time>2022-01-09T16:42:12.521Z</time>
      </trkpt>
      <trkpt lat="48.04942" lon="-3.87513">
        <ele>165.53253251614</ele>
        <time>2022-01-09T16:42:25.113Z</time>
      </trkpt>
      <trkpt lat="48.04935" lon="-3.87557">
        <ele>164.53638038782</ele>
        <time>2022-01-09T16:42:37.709Z</time>
      </trkpt>
      <trkpt lat="48.04876" lon="-3.87891">
        <ele>163.36510178405</ele>
        <time>2022-01-09T16:42:50.334Z</time>
      </trkpt>
      <trkpt lat="48.04855" lon="-3.87996">
        <ele>162.72010135841</ele>
        <time>2022-01-09T16:43:02.968Z</time>
      </trkpt>
      <trkpt lat="48.04831" lon="-3.88065">
        <ele>162.21363382612</ele>
        <time>2022-01-09T16:43:15.608Z</time>
      </trkpt>
      <trkpt lat="48.04745" lon="-3.88272">
        <ele>162.25671057592</ele>
        <time>2022-01-09T16:43:28.269Z</time>
      </trkpt>
      <trkpt lat="48.04723" lon="-3.88327">
        <ele>161.96266921936</ele>
        <time>2022-01-09T16:43:40.935Z</time>
      </trkpt>
      <trkpt lat="48.04713" lon="-3.88364">
        <ele>161.82025681222</ele>
        <time>2022-01-09T16:43:53.605Z</time>
      </trkpt>
      <trkpt lat="48.04703" lon="-3.88416">
        <ele>161.64368651069</ele>
        <time>2022-01-09T16:44:06.279Z</time>
      </trkpt>
      <trkpt lat="48.0469" lon="-3.88509">
        <ele>161.72628792683</ele>
        <time>2022-01-09T16:44:18.961Z</time>
      </trkpt>
      <trkpt lat="48.0464" lon="-3.89087">
        <ele>161.42401946737</ele>
        <time>2022-01-09T16:44:31.692Z</time>
      </trkpt>
      <trkpt lat="48.04634" lon="-3.89173">
        <ele>161.37389658725</ele>
        <time>2022-01-09T16:44:44.430Z</time>
      </trkpt>
      <trkpt lat="48.04627" lon="-3.8942">
        <ele>161.24945095033</ele>
        <time>2022-01-09T16:44:57.189Z</time>
      </trkpt>
      <trkpt lat="48.04621" lon="-3.89505">
        <ele>161.24114418115</ele>
        <time>2022-01-09T16:45:09.955Z</time>
      </trkpt>
      <trkpt lat="48.04609" lon="-3.89582">
        <ele>161.41143900279</ele>
        <time>2022-01-09T16:45:22.728Z</time>
      </trkpt>
      <trkpt lat="48.04576" lon="-3.89773">
        <ele>161.29895048272</ele>
        <time>2022-01-09T16:45:35.517Z</time>
      </trkpt>
      <trkpt lat="48.04566" lon="-3.89844">
        <ele>161.36316544579</ele>
        <time>2022-01-09T16:45:48.312Z</time>
      </trkpt>
      <trkpt lat="48.04563" lon="-3.89873">
        <ele>161.42416141169</ele>
        <time>2022-01-09T16:46:01.110Z</time>
      </trkpt>
      <trkpt lat="48.04558" lon="-3.89962">
        <ele>161.40885967544</ele>
        <time>2022-01-09T16:46:13.915Z</time>
      </trkpt>
      <trkpt lat="48.04559" lon="-3.90061">
        <ele>161.45133277222</ele>
        <time>2022-01-09T16:46:26.729Z</time>
      </trkpt>
      <trkpt lat="48.04573" lon="-3.90313">
        <ele>161.26350057162</ele>
        <time>2022-01-09T16:46:39.564Z</time>
      </trkpt>
      <trkpt lat="48.04583" lon="-3.90445">
        <ele>161.46102696467</ele>
        <time>2022-01-09T16:46:52.410Z</time>
      </trkpt>
      <trkpt lat="48.0458" lon="-3.90513">
        <ele>161.26908510226</ele>
        <time>2022-01-09T16:47:05.262Z</time>
      </trkpt>
      <trkpt lat="48.04559" lon="-3.9083">
        <ele>161.03660182411</ele>
        <time>2022-01-09T16:47:18.140Z</time>
      </trkpt>
      <trkpt lat="48.04547" lon="-3.90905">
        <ele>160.82812962194</ele>
        <time>2022-01-09T16:47:31.025Z</time>
      </trkpt>
      <trkpt lat="48.04528" lon="-3.90972">
        <ele>160.50405770987</ele>
        <time>2022-01-09T16:47:43.916Z</time>
      </trkpt>
      <trkpt lat="48.04495" lon="-3.91044">
        <ele>160.32372361095</ele>
        <time>2022-01-09T16:47:56.814Z</time>
      </trkpt>
      <trkpt lat="48.04463" lon="-3.91101">
        <ele>160.12636065871</ele>
        <time>2022-01-09T16:48:09.719Z</time>
      </trkpt>
      <trkpt lat="48.04441" lon="-3.91136">
        <ele>159.78199033041</ele>
        <time>2022-01-09T16:48:22.628Z</time>
      </trkpt>
      <trkpt lat="48.04402" lon="-3.91208">
        <ele>159.31877765129</ele>
        <time>2022-01-09T16:48:35.544Z</time>
      </trkpt>
      <trkpt lat="48.04333" lon="-3.91348">
        <ele>159.01666731929</ele>
        <time>2022-01-09T16:48:48.475Z</time>
      </trkpt>
      <trkpt lat="48.04312" lon="-3.91384">
        <ele>158.6013138703</ele>
        <time>2022-01-09T16:49:01.410Z</time>
      </trkpt>
      <trkpt lat="48.04263" lon="-3.9146">
        <ele>158.09525224534</ele>
        <time>2022-01-09T16:49:14.354Z</time>
      </trkpt>
      <trkpt lat="48.04192" lon="-3.91565">
        <ele>157.73409060926</ele>
        <time>2022-01-09T16:49:27.310Z</time>
      </trkpt>
      <trkpt lat="48.04159" lon="-3.91604">
        <ele>157.37539841749</ele>
        <time>2022-01-09T16:49:40.271Z</time>
      </trkpt>
      <trkpt lat="48.04018" lon="-3.91739">
        <ele>157.08246584004</ele>
        <time>2022-01-09T16:49:53.254Z</time>
      </trkpt>
      <trkpt lat="48.0397" lon="-3.91788">
        <ele>156.76189445012</ele>
        <time>2022-01-09T16:50:06.244Z</time>
      </trkpt>
      <trkpt lat="48.03954" lon="-3.91805">
        <ele>156.51032090891</ele>
        <time>2022-01-09T16:50:19.236Z</time>
      </trkpt>
      <trkpt lat="48.03771" lon="-3.92031">
        <ele>156.69210661423</ele>
        <time>2022-01-09T16:50:32.258Z</time>
      </trkpt>
      <trkpt lat="48.03625" lon="-3.92231">
        <ele>155.98127668866</ele>
        <time>2022-01-09T16:50:45.305Z</time>
      </trkpt>
      <trkpt lat="48.03519" lon="-3.92366">
        <ele>155.67216757996</ele>
        <time>2022-01-09T16:50:58.369Z</time>
      </trkpt>
      <trkpt lat="48.03444" lon="-3.92469">
        <ele>155.3432844564</ele>
        <time>2022-01-09T16:51:11.446Z</time>
      </trkpt>
      <trkpt lat="48.03418" lon="-3.92513">
        <ele>155.14046432864</ele>
        <time>2022-01-09T16:51:24.528Z</time>
      </trkpt>
      <trkpt lat="48.03371" lon="-3.92628">
        <ele>155.10368025526</ele>
        <time>2022-01-09T16:51:37.621Z</time>
      </trkpt>
      <trkpt lat="48.03328" lon="-3.92722">
        <ele>154.86597994573</ele>
        <time>2022-01-09T16:51:50.724Z</time>
      </trkpt>
      <trkpt lat="48.03221" lon="-3.92937">
        <ele>154.70469273272</ele>
        <time>2022-01-09T16:52:03.849Z</time>
      </trkpt>
      <trkpt lat="48.03198" lon="-3.92996">
        <ele>154.17515426758</ele>
        <time>2022-01-09T16:52:16.980Z</time>
      </trkpt>
      <trkpt lat="48.03177" lon="-3.93057">
        <ele>153.80875874943</ele>
        <time>2022-01-09T16:52:30.117Z</time>
      </trkpt>
      <trkpt lat="48.03149" lon="-3.93148">
        <ele>153.27476182073</ele>
        <time>2022-01-09T16:52:43.262Z</time>
      </trkpt>
      <trkpt lat="48.03126" lon="-3.93226">
        <ele>152.58401242252</ele>
        <time>2022-01-09T16:52:56.414Z</time>
      </trkpt>
      <trkpt lat="48.03113" lon="-3.93296">
        <ele>152.11261955536</ele>
        <time>2022-01-09T16:53:09.572Z</time>
      </trkpt>
      <trkpt lat="48.0311" lon="-3.93367">
        <ele>151.57654872514</ele>
        <time>2022-01-09T16:53:22.736Z</time>
      </trkpt>
      <trkpt lat="48.0311" lon="-3.93381">
        <ele>150.88133657641</ele>
        <time>2022-01-09T16:53:35.901Z</time>
      </trkpt>
      <trkpt lat="48.03151" lon="-3.93832">
        <ele>149.71545526009</ele>
        <time>2022-01-09T16:53:49.105Z</time>
      </trkpt>
      <trkpt lat="48.0317" lon="-3.93994">
        <ele>148.71214273629</ele>
        <time>2022-01-09T16:54:02.322Z</time>
      </trkpt>
      <trkpt lat="48.0319" lon="-3.94178">
        <ele>147.63177031362</ele>
        <time>2022-01-09T16:54:15.555Z</time>
      </trkpt>
      <trkpt lat="48.0319" lon="-3.94195">
        <ele>146.8315472022</ele>
        <time>2022-01-09T16:54:28.789Z</time>
      </trkpt>
      <trkpt lat="48.03186" lon="-3.94277">
        <ele>145.84396511484</ele>
        <time>2022-01-09T16:54:42.030Z</time>
      </trkpt>
      <trkpt lat="48.03172" lon="-3.9435">
        <ele>144.90653580726</ele>
        <time>2022-01-09T16:54:55.278Z</time>
      </trkpt>
      <trkpt lat="48.03164" lon="-3.94379">
        <ele>143.90752803782</ele>
        <time>2022-01-09T16:55:08.528Z</time>
      </trkpt>
      <trkpt lat="48.03148" lon="-3.9442">
        <ele>142.9190227782</ele>
        <time>2022-01-09T16:55:21.782Z</time>
      </trkpt>
      <trkpt lat="48.02934" lon="-3.94931">
        <ele>140.64454277683</ele>
        <time>2022-01-09T16:55:35.087Z</time>
      </trkpt>
      <trkpt lat="48.02914" lon="-3.94997">
        <ele>139.30444446496</ele>
        <time>2022-01-09T16:55:48.398Z</time>
      </trkpt>
      <trkpt lat="48.02911" lon="-3.95012">
        <ele>137.96894191976</ele>
        <time>2022-01-09T16:56:01.710Z</time>
      </trkpt>
      <trkpt lat="48.02897" lon="-3.95195">
        <ele>136.48475463919</ele>
        <time>2022-01-09T16:56:15.038Z</time>
      </trkpt>
      <trkpt lat="48.0289" lon="-3.95259">
        <ele>134.86276788824</ele>
        <time>2022-01-09T16:56:28.371Z</time>
      </trkpt>
      <trkpt lat="48.02883" lon="-3.95308">
        <ele>133.13254948092</ele>
        <time>2022-01-09T16:56:41.708Z</time>
      </trkpt>
      <trkpt lat="48.02856" lon="-3.95458">
        <ele>131.16817974109</ele>
        <time>2022-01-09T16:56:55.058Z</time>
      </trkpt>
      <trkpt lat="48.0285" lon="-3.95512">
        <ele>129.26378779393</ele>
        <time>2022-01-09T16:57:08.413Z</time>
      </trkpt>
      <trkpt lat="48.02847" lon="-3.95548">
        <ele>127.40832034254</ele>
        <time>2022-01-09T16:57:21.771Z</time>
      </trkpt>
      <trkpt lat="48.02842" lon="-3.95679">
        <ele>125.34831016794</ele>
        <time>2022-01-09T16:57:35.140Z</time>
      </trkpt>
      <trkpt lat="48.02839" lon="-3.95856">
        <ele>123.18880546392</ele>
        <time>2022-01-09T16:57:48.524Z</time>
      </trkpt>
      <trkpt lat="48.0284" lon="-3.95876">
        <ele>121.55356874878</ele>
        <time>2022-01-09T16:58:01.910Z</time>
      </trkpt>
      <trkpt lat="48.02849" lon="-3.95954">
        <ele>119.77637478701</ele>
        <time>2022-01-09T16:58:15.302Z</time>
      </trkpt>
      <trkpt lat="48.0286" lon="-3.9601">
        <ele>118.33865451583</ele>
        <time>2022-01-09T16:58:28.699Z</time>
      </trkpt>
      <trkpt lat="48.02863" lon="-3.96048">
        <ele>117.03798885568</ele>
        <time>2022-01-09T16:58:42.099Z</time>
      </trkpt>
      <trkpt lat="48.0286" lon="-3.9612">
        <ele>115.72896911295</ele>
        <time>2022-01-09T16:58:55.505Z</time>
      </trkpt>
      <trkpt lat="48.02846" lon="-3.96219">
        <ele>114.85875524136</ele>
        <time>2022-01-09T16:59:08.920Z</time>
      </trkpt>
      <trkpt lat="48.02834" lon="-3.96332">
        <ele>114.11963491751</ele>
        <time>2022-01-09T16:59:22.345Z</time>
      </trkpt>
      <trkpt lat="48.02825" lon="-3.96395">
        <ele>113.25851473909</ele>
        <time>2022-01-09T16:59:35.775Z</time>
      </trkpt>
      <trkpt lat="48.02814" lon="-3.96436">
        <ele>112.23637994231</ele>
        <time>2022-01-09T16:59:49.209Z</time>
      </trkpt>
      <trkpt lat="48.02777" lon="-3.96539">
        <ele>110.96676428393</ele>
        <time>2022-01-09T17:00:02.652Z</time>
      </trkpt>
      <trkpt lat="48.0273" lon="-3.96639">
        <ele>109.47267152749</ele>
        <time>2022-01-09T17:00:16.106Z</time>
      </trkpt>
      <trkpt lat="48.02716" lon="-3.9668">
        <ele>108.05137626031</ele>
        <time>2022-01-09T17:00:29.564Z</time>
      </trkpt>
      <trkpt lat="48.02712" lon="-3.96695">
        <ele>106.72148437836</ele>
        <time>2022-01-09T17:00:43.023Z</time>
      </trkpt>
      <trkpt lat="48.02706" lon="-3.9674">
        <ele>105.28659163446</ele>
        <time>2022-01-09T17:00:56.486Z</time>
      </trkpt>
      <trkpt lat="48.02704" lon="-3.96773">
        <ele>104.02783278934</ele>
        <time>2022-01-09T17:01:09.951Z</time>
      </trkpt>
      <trkpt lat="48.02716" lon="-3.96968">
        <ele>101.90536299732</ele>
        <time>2022-01-09T17:01:23.433Z</time>
      </trkpt>
      <trkpt lat="48.02716" lon="-3.9704">
        <ele>100.80201500841</ele>
        <time>2022-01-09T17:01:36.921Z</time>
      </trkpt>
      <trkpt lat="48.0271" lon="-3.97096">
        <ele>100.05678883714</ele>
        <time>2022-01-09T17:01:50.414Z</time>
      </trkpt>
      <trkpt lat="48.02702" lon="-3.97132">
        <ele>99.450728953961</ele>
        <time>2022-01-09T17:02:03.910Z</time>
      </trkpt>
      <trkpt lat="48.02691" lon="-3.97167">
        <ele>99.001475232714</ele>
        <time>2022-01-09T17:02:17.409Z</time>
      </trkpt>
      <trkpt lat="48.02618" lon="-3.97349">
        <ele>98.971912865058</ele>
        <time>2022-01-09T17:02:30.926Z</time>
      </trkpt>
      <trkpt lat="48.02592" lon="-3.97425">
        <ele>99.163189197897</ele>
        <time>2022-01-09T17:02:44.450Z</time>
      </trkpt>
      <trkpt lat="48.02543" lon="-3.97568">
        <ele>99.733485077757</ele>
        <time>2022-01-09T17:02:57.988Z</time>
      </trkpt>
      <trkpt lat="48.02467" lon="-3.97806">
        <ele>100.50695796999</ele>
        <time>2022-01-09T17:03:11.548Z</time>
      </trkpt>
      <trkpt lat="48.02446" lon="-3.97888">
        <ele>101.24762888503</ele>
        <time>2022-01-09T17:03:25.115Z</time>
      </trkpt>
      <trkpt lat="48.02438" lon="-3.97954">
        <ele>101.83665463575</ele>
        <time>2022-01-09T17:03:38.688Z</time>
      </trkpt>
      <trkpt lat="48.02434" lon="-3.98324">
        <ele>102.5749283225</ele>
        <time>2022-01-09T17:03:52.292Z</time>
      </trkpt>
      <trkpt lat="48.02415" lon="-3.98851">
        <ele>104.30834810938</ele>
        <time>2022-01-09T17:04:05.940Z</time>
      </trkpt>
      <trkpt lat="48.02413" lon="-3.98874">
        <ele>105.28047215571</ele>
        <time>2022-01-09T17:04:19.590Z</time>
      </trkpt>
      <trkpt lat="48.02404" lon="-3.98939">
        <ele>106.37325958262</ele>
        <time>2022-01-09T17:04:33.246Z</time>
      </trkpt>
      <trkpt lat="48.02388" lon="-3.99012">
        <ele>107.31186400204</ele>
        <time>2022-01-09T17:04:46.908Z</time>
      </trkpt>
      <trkpt lat="48.02366" lon="-3.99086">
        <ele>108.00371185981</ele>
        <time>2022-01-09T17:05:00.577Z</time>
      </trkpt>
      <trkpt lat="48.02329" lon="-3.99182">
        <ele>108.30340701936</ele>
        <time>2022-01-09T17:05:14.255Z</time>
      </trkpt>
      <trkpt lat="48.02263" lon="-3.99323">
        <ele>108.64719119081</ele>
        <time>2022-01-09T17:05:27.948Z</time>
      </trkpt>
      <trkpt lat="48.02216" lon="-3.9943">
        <ele>109.0240830192</ele>
        <time>2022-01-09T17:05:41.651Z</time>
      </trkpt>
      <trkpt lat="48.02176" lon="-3.99506">
        <ele>109.25952096205</ele>
        <time>2022-01-09T17:05:55.362Z</time>
      </trkpt>
      <trkpt lat="48.02096" lon="-3.99622">
        <ele>108.92294087037</ele>
        <time>2022-01-09T17:06:09.087Z</time>
      </trkpt>
      <trkpt lat="48.02033" lon="-3.99703">
        <ele>108.80236120061</ele>
        <time>2022-01-09T17:06:22.823Z</time>
      </trkpt>
      <trkpt lat="48.01841" lon="-3.99926">
        <ele>108.58204197659</ele>
        <time>2022-01-09T17:06:36.589Z</time>
      </trkpt>
      <trkpt lat="48.01697" lon="-4.00101">
        <ele>108.87988321234</ele>
        <time>2022-01-09T17:06:50.378Z</time>
      </trkpt>
      <trkpt lat="48.01662" lon="-4.00145">
        <ele>108.90766861977</ele>
        <time>2022-01-09T17:07:04.173Z</time>
      </trkpt>
      <trkpt lat="48.01621" lon="-4.00207">
        <ele>108.83791295447</ele>
        <time>2022-01-09T17:07:17.975Z</time>
      </trkpt>
      <trkpt lat="48.01601" lon="-4.00239">
        <ele>108.7871862102</ele>
        <time>2022-01-09T17:07:31.781Z</time>
      </trkpt>
      <trkpt lat="48.01582" lon="-4.00275">
        <ele>108.43737042326</ele>
        <time>2022-01-09T17:07:45.591Z</time>
      </trkpt>
      <trkpt lat="48.01548" lon="-4.00357">
        <ele>108.03351841953</ele>
        <time>2022-01-09T17:07:59.409Z</time>
      </trkpt>
      <trkpt lat="48.01515" lon="-4.00441">
        <ele>107.58143316638</ele>
        <time>2022-01-09T17:08:13.235Z</time>
      </trkpt>
      <trkpt lat="48.01491" lon="-4.0051">
        <ele>107.11308949861</ele>
        <time>2022-01-09T17:08:27.068Z</time>
      </trkpt>
      <trkpt lat="48.01429" lon="-4.00729">
        <ele>106.95279492378</ele>
        <time>2022-01-09T17:08:40.921Z</time>
      </trkpt>
      <trkpt lat="48.01416" lon="-4.0078">
        <ele>106.37693891121</ele>
        <time>2022-01-09T17:08:54.778Z</time>
      </trkpt>
      <trkpt lat="48.01372" lon="-4.00988">
        <ele>105.5480624678</ele>
        <time>2022-01-09T17:09:08.654Z</time>
      </trkpt>
      <trkpt lat="48.01347" lon="-4.01085">
        <ele>104.4249387558</ele>
        <time>2022-01-09T17:09:22.538Z</time>
      </trkpt>
      <trkpt lat="48.01313" lon="-4.01195">
        <ele>103.13411023541</ele>
        <time>2022-01-09T17:09:36.432Z</time>
      </trkpt>
      <trkpt lat="48.0129" lon="-4.01262">
        <ele>102.06236891347</ele>
        <time>2022-01-09T17:09:50.333Z</time>
      </trkpt>
      <trkpt lat="48.01248" lon="-4.0136">
        <ele>100.85664562816</ele>
        <time>2022-01-09T17:10:04.243Z</time>
      </trkpt>
      <trkpt lat="48.0124" lon="-4.01414">
        <ele>99.68004422443</ele>
        <time>2022-01-09T17:10:18.158Z</time>
      </trkpt>
      <trkpt lat="48.01228" lon="-4.01474">
        <ele>98.208858848207</ele>
        <time>2022-01-09T17:10:32.078Z</time>
      </trkpt>
      <trkpt lat="48.01209" lon="-4.01645">
        <ele>96.764805166265</ele>
        <time>2022-01-09T17:10:46.013Z</time>
      </trkpt>
      <trkpt lat="48.01203" lon="-4.01689">
        <ele>95.177580428011</ele>
        <time>2022-01-09T17:10:59.952Z</time>
      </trkpt>
      <trkpt lat="48.01193" lon="-4.01748">
        <ele>93.266279328682</ele>
        <time>2022-01-09T17:11:13.896Z</time>
      </trkpt>
      <trkpt lat="48.01169" lon="-4.0185">
        <ele>91.322569909089</ele>
        <time>2022-01-09T17:11:27.849Z</time>
      </trkpt>
      <trkpt lat="48.0112" lon="-4.02012">
        <ele>89.191225071233</ele>
        <time>2022-01-09T17:11:41.817Z</time>
      </trkpt>
      <trkpt lat="48.01102" lon="-4.02096">
        <ele>87.482247909392</ele>
        <time>2022-01-09T17:11:55.792Z</time>
      </trkpt>
      <trkpt lat="48.01093" lon="-4.02147">
        <ele>85.491680735618</ele>
        <time>2022-01-09T17:12:09.772Z</time>
      </trkpt>
      <trkpt lat="48.01086" lon="-4.022">
        <ele>83.272767851284</ele>
        <time>2022-01-09T17:12:23.756Z</time>
      </trkpt>
      <trkpt lat="48.01076" lon="-4.02323">
        <ele>80.995538258084</ele>
        <time>2022-01-09T17:12:37.751Z</time>
      </trkpt>
      <trkpt lat="48.01065" lon="-4.02412">
        <ele>78.552517220988</ele>
        <time>2022-01-09T17:12:51.753Z</time>
      </trkpt>
      <trkpt lat="48.01055" lon="-4.02464">
        <ele>76.144276111477</ele>
        <time>2022-01-09T17:13:05.760Z</time>
      </trkpt>
      <trkpt lat="48.01041" lon="-4.02516">
        <ele>73.640824574882</ele>
        <time>2022-01-09T17:13:19.771Z</time>
      </trkpt>
      <trkpt lat="48.01029" lon="-4.02548">
        <ele>71.083797336324</ele>
        <time>2022-01-09T17:13:33.786Z</time>
      </trkpt>
      <trkpt lat="48.01007" lon="-4.02595">
        <ele>68.484567072535</ele>
        <time>2022-01-09T17:13:47.805Z</time>
      </trkpt>
      <trkpt lat="48.00977" lon="-4.02651">
        <ele>65.73832284643</ele>
        <time>2022-01-09T17:14:01.830Z</time>
      </trkpt>
      <trkpt lat="48.0096" lon="-4.02677">
        <ele>63.309675643656</ele>
        <time>2022-01-09T17:14:15.858Z</time>
      </trkpt>
      <trkpt lat="48.00767" lon="-4.0293">
        <ele>60.2543188701</ele>
        <time>2022-01-09T17:14:29.919Z</time>
      </trkpt>
      <trkpt lat="48.0054" lon="-4.03219">
        <ele>57.016574335148</ele>
        <time>2022-01-09T17:14:44.017Z</time>
      </trkpt>
      <trkpt lat="48.00502" lon="-4.03269">
        <ele>55.435278909691</ele>
        <time>2022-01-09T17:14:58.121Z</time>
      </trkpt>
      <trkpt lat="48.00485" lon="-4.03294">
        <ele>54.147522595309</ele>
        <time>2022-01-09T17:15:12.228Z</time>
      </trkpt>
      <trkpt lat="48.00448" lon="-4.03358">
        <ele>53.322233388834</ele>
        <time>2022-01-09T17:15:26.342Z</time>
      </trkpt>
      <trkpt lat="48.0043" lon="-4.03397">
        <ele>52.794518516624</ele>
        <time>2022-01-09T17:15:40.460Z</time>
      </trkpt>
      <trkpt lat="48.00414" lon="-4.03436">
        <ele>52.590344661857</ele>
        <time>2022-01-09T17:15:54.582Z</time>
      </trkpt>
      <trkpt lat="48.00394" lon="-4.03497">
        <ele>52.986061462187</ele>
        <time>2022-01-09T17:16:08.710Z</time>
      </trkpt>
      <trkpt lat="48.0038" lon="-4.03516">
        <ele>53.596664440685</ele>
        <time>2022-01-09T17:16:22.840Z</time>
      </trkpt>
      <trkpt lat="48.00363" lon="-4.03543">
        <ele>54.48612956255</ele>
        <time>2022-01-09T17:16:36.973Z</time>
      </trkpt>
      <trkpt lat="48.00361" lon="-4.03556">
        <ele>55.185440375629</ele>
        <time>2022-01-09T17:16:51.107Z</time>
      </trkpt>
      <trkpt lat="48.0035" lon="-4.03686">
        <ele>56.26888408504</ele>
        <time>2022-01-09T17:17:05.252Z</time>
      </trkpt>
      <trkpt lat="48.00345" lon="-4.03736">
        <ele>56.817389313581</ele>
        <time>2022-01-09T17:17:19.402Z</time>
      </trkpt>
      <trkpt lat="48.00299" lon="-4.04084">
        <ele>57.862364937807</ele>
        <time>2022-01-09T17:17:33.581Z</time>
      </trkpt>
      <trkpt lat="48.00281" lon="-4.04192">
        <ele>58.222311862636</ele>
        <time>2022-01-09T17:17:47.770Z</time>
      </trkpt>
      <trkpt lat="48.00247" lon="-4.04349">
        <ele>58.328197193382</ele>
        <time>2022-01-09T17:18:01.973Z</time>
      </trkpt>
      <trkpt lat="48.00225" lon="-4.0442">
        <ele>58.720647360909</ele>
        <time>2022-01-09T17:18:16.182Z</time>
      </trkpt>
      <trkpt lat="48.00199" lon="-4.04472">
        <ele>59.013496486005</ele>
        <time>2022-01-09T17:18:30.397Z</time>
      </trkpt>
      <trkpt lat="48.00155" lon="-4.04549">
        <ele>59.14311649172</ele>
        <time>2022-01-09T17:18:44.620Z</time>
      </trkpt>
      <trkpt lat="48.00152" lon="-4.04569">
        <ele>59.119581683983</ele>
        <time>2022-01-09T17:18:58.845Z</time>
      </trkpt>
      <trkpt lat="48.00161" lon="-4.04597">
        <ele>59.024095151311</ele>
        <time>2022-01-09T17:19:13.072Z</time>
      </trkpt>
      <trkpt lat="48.00162" lon="-4.04619">
        <ele>58.644121520051</ele>
        <time>2022-01-09T17:19:27.301Z</time>
      </trkpt>
      <trkpt lat="48.00152" lon="-4.04638">
        <ele>58.155730645329</ele>
        <time>2022-01-09T17:19:41.532Z</time>
      </trkpt>
      <trkpt lat="48.00139" lon="-4.04656">
        <ele>57.504802744222</ele>
        <time>2022-01-09T17:19:55.766Z</time>
      </trkpt>
      <trkpt lat="48.00129" lon="-4.04678">
        <ele>56.770174548953</ele>
        <time>2022-01-09T17:20:10.002Z</time>
      </trkpt>
      <trkpt lat="48.00083" lon="-4.04822">
        <ele>55.339864028342</ele>
        <time>2022-01-09T17:20:24.251Z</time>
      </trkpt>
      <trkpt lat="48.00008" lon="-4.05092">
        <ele>54.362568477058</ele>
        <time>2022-01-09T17:20:38.525Z</time>
      </trkpt>
      <trkpt lat="48.00003" lon="-4.05115">
        <ele>53.331844508283</ele>
        <time>2022-01-09T17:20:52.801Z</time>
      </trkpt>
      <trkpt lat="48.00002" lon="-4.05153">
        <ele>52.077781157723</ele>
        <time>2022-01-09T17:21:07.080Z</time>
      </trkpt>
      <trkpt lat="47.99999" lon="-4.05164">
        <ele>50.906905796294</ele>
        <time>2022-01-09T17:21:21.360Z</time>
      </trkpt>
      <trkpt lat="47.99983" lon="-4.05195">
        <ele>49.746714177161</ele>
        <time>2022-01-09T17:21:35.643Z</time>
      </trkpt>
      <trkpt lat="47.9994" lon="-4.05394">
        <ele>48.09096221134</ele>
        <time>2022-01-09T17:21:49.944Z</time>
      </trkpt>
      <trkpt lat="47.99922" lon="-4.05462">
        <ele>46.795435168629</ele>
        <time>2022-01-09T17:22:04.251Z</time>
      </trkpt>
      <trkpt lat="47.99897" lon="-4.05548">
        <ele>44.959876308532</ele>
        <time>2022-01-09T17:22:18.566Z</time>
      </trkpt>
      <trkpt lat="47.99856" lon="-4.05671">
        <ele>43.084369128267</ele>
        <time>2022-01-09T17:22:32.892Z</time>
      </trkpt>
      <trkpt lat="47.99739" lon="-4.05947">
        <ele>41.381403556918</ele>
        <time>2022-01-09T17:22:47.246Z</time>
      </trkpt>
      <trkpt lat="47.99712" lon="-4.0602">
        <ele>39.737766651938</ele>
        <time>2022-01-09T17:23:01.607Z</time>
      </trkpt>
      <trkpt lat="47.99645" lon="-4.06234">
        <ele>37.72206424279</ele>
        <time>2022-01-09T17:23:15.987Z</time>
      </trkpt>
      <trkpt lat="47.99627" lon="-4.0629">
        <ele>35.592106876591</ele>
        <time>2022-01-09T17:23:30.373Z</time>
      </trkpt>
      <trkpt lat="47.99617" lon="-4.06314">
        <ele>33.621413484029</ele>
        <time>2022-01-09T17:23:44.761Z</time>
      </trkpt>
      <trkpt lat="47.99599" lon="-4.06349">
        <ele>31.561786163374</ele>
        <time>2022-01-09T17:23:59.153Z</time>
      </trkpt>
      <trkpt lat="47.99577" lon="-4.06382">
        <ele>29.441615448613</ele>
        <time>2022-01-09T17:24:13.549Z</time>
      </trkpt>
      <trkpt lat="47.9951" lon="-4.06447">
        <ele>27.056551422405</ele>
        <time>2022-01-09T17:24:27.955Z</time>
      </trkpt>
      <trkpt lat="47.99483" lon="-4.06485">
        <ele>24.712531977851</ele>
        <time>2022-01-09T17:24:42.365Z</time>
      </trkpt>
      <trkpt lat="47.99454" lon="-4.06543">
        <ele>22.302919899927</ele>
        <time>2022-01-09T17:24:56.781Z</time>
      </trkpt>
      <trkpt lat="47.99436" lon="-4.06588">
        <ele>20.227250073633</ele>
        <time>2022-01-09T17:25:11.202Z</time>
      </trkpt>
      <trkpt lat="47.99409" lon="-4.06666">
        <ele>17.651764108834</ele>
        <time>2022-01-09T17:25:25.630Z</time>
      </trkpt>
      <trkpt lat="47.99406" lon="-4.06684">
        <ele>15.788538031017</ele>
        <time>2022-01-09T17:25:40.060Z</time>
      </trkpt>
      <trkpt lat="47.99403" lon="-4.0672">
        <ele>14.101787983132</ele>
        <time>2022-01-09T17:25:54.493Z</time>
      </trkpt>
      <trkpt lat="47.99404" lon="-4.06738">
        <ele>12.72477707475</ele>
        <time>2022-01-09T17:26:08.927Z</time>
      </trkpt>
      <trkpt lat="47.99413" lon="-4.06868">
        <ele>11.094083988913</ele>
        <time>2022-01-09T17:26:23.372Z</time>
      </trkpt>
      <trkpt lat="47.99432" lon="-4.07082">
        <ele>9.8806084812871</ele>
        <time>2022-01-09T17:26:37.835Z</time>
      </trkpt>
      <trkpt lat="47.99445" lon="-4.07146">
        <ele>9.100666946425</ele>
        <time>2022-01-09T17:26:52.304Z</time>
      </trkpt>
      <trkpt lat="47.99468" lon="-4.0721">
        <ele>8.4951247248645</ele>
        <time>2022-01-09T17:27:06.779Z</time>
      </trkpt>
      <trkpt lat="47.99481" lon="-4.07234">
        <ele>8.0986262985157</ele>
        <time>2022-01-09T17:27:21.257Z</time>
      </trkpt>
      <trkpt lat="47.99501" lon="-4.07246">
        <ele>7.8298235997312</ele>
        <time>2022-01-09T17:27:35.737Z</time>
      </trkpt>
      <trkpt lat="47.99505" lon="-4.0725">
        <ele>7.5953074465456</ele>
        <time>2022-01-09T17:27:50.218Z</time>
      </trkpt>
      <trkpt lat="47.99511" lon="-4.07262">
        <ele>7.4452669622794</ele>
        <time>2022-01-09T17:28:04.700Z</time>
      </trkpt>
      <trkpt lat="47.99516" lon="-4.07278">
        <ele>7.3413445767516</ele>
        <time>2022-01-09T17:28:19.184Z</time>
      </trkpt>
      <trkpt lat="47.99517" lon="-4.07297">
        <ele>7.2351108792561</ele>
        <time>2022-01-09T17:28:33.669Z</time>
      </trkpt>
      <trkpt lat="47.99511" lon="-4.07335">
        <ele>7.0442448947988</ele>
        <time>2022-01-09T17:28:48.158Z</time>
      </trkpt>
      <trkpt lat="47.9951" lon="-4.07367">
        <ele>6.8761614424923</ele>
        <time>2022-01-09T17:29:02.649Z</time>
      </trkpt>
      <trkpt lat="47.99513" lon="-4.0745">
        <ele>6.5852714746727</ele>
        <time>2022-01-09T17:29:17.147Z</time>
      </trkpt>
      <trkpt lat="47.99521" lon="-4.0753">
        <ele>6.7003661984115</ele>
        <time>2022-01-09T17:29:31.652Z</time>
      </trkpt>
      <trkpt lat="47.99529" lon="-4.07546">
        <ele>6.7263514580043</ele>
        <time>2022-01-09T17:29:46.159Z</time>
      </trkpt>
      <trkpt lat="47.99535" lon="-4.07549">
        <ele>6.7418217916534</ele>
        <time>2022-01-09T17:30:00.667Z</time>
      </trkpt>
      <trkpt lat="47.99542" lon="-4.07549">
        <ele>6.7627024375321</ele>
        <time>2022-01-09T17:30:15.175Z</time>
      </trkpt>
      <trkpt lat="47.99555" lon="-4.07545">
        <ele>6.784570070764</ele>
        <time>2022-01-09T17:30:29.685Z</time>
      </trkpt>
      <trkpt lat="47.99589" lon="-4.07538">
        <ele>6.8222728855716</ele>
        <time>2022-01-09T17:30:44.199Z</time>
      </trkpt>
      <trkpt lat="47.99595" lon="-4.07541">
        <ele>6.8227297121045</ele>
        <time>2022-01-09T17:30:58.714Z</time>
      </trkpt>
      <trkpt lat="47.99599" lon="-4.07548">
        <ele>6.8216976546573</ele>
        <time>2022-01-09T17:31:13.230Z</time>
      </trkpt>
      <trkpt lat="47.99603" lon="-4.07566">
        <ele>6.827696425055</ele>
        <time>2022-01-09T17:31:27.747Z</time>
      </trkpt>
      <trkpt lat="47.99604" lon="-4.07599">
        <ele>6.8962684797539</ele>
        <time>2022-01-09T17:31:42.267Z</time>
      </trkpt>
      <trkpt lat="47.99602" lon="-4.07914">
        <ele>6.671321250707</ele>
        <time>2022-01-09T17:31:56.814Z</time>
      </trkpt>
      <trkpt lat="47.99603" lon="-4.08153">
        <ele>6.6909477911797</ele>
        <time>2022-01-09T17:32:11.381Z</time>
      </trkpt>
      <trkpt lat="47.99604" lon="-4.08218">
        <ele>6.6658488450307</ele>
        <time>2022-01-09T17:32:25.953Z</time>
      </trkpt>
      <trkpt lat="47.99606" lon="-4.08237">
        <ele>6.612888180121</ele>
        <time>2022-01-09T17:32:40.527Z</time>
      </trkpt>
      <trkpt lat="47.99604" lon="-4.08246">
        <ele>6.5433835601425</ele>
        <time>2022-01-09T17:32:55.102Z</time>
      </trkpt>
      <trkpt lat="47.9959" lon="-4.08268">
        <ele>6.4390870457731</ele>
        <time>2022-01-09T17:33:09.679Z</time>
      </trkpt>
      <trkpt lat="47.99579" lon="-4.08296">
        <ele>6.3239215682501</ele>
        <time>2022-01-09T17:33:24.259Z</time>
      </trkpt>
      <trkpt lat="47.9957" lon="-4.08327">
        <ele>6.3120707619081</ele>
        <time>2022-01-09T17:33:38.842Z</time>
      </trkpt>
      <trkpt lat="47.9956" lon="-4.0837">
        <ele>6.3809927802923</ele>
        <time>2022-01-09T17:33:53.429Z</time>
      </trkpt>
      <trkpt lat="47.99555" lon="-4.08424">
        <ele>6.5079846756788</ele>
        <time>2022-01-09T17:34:08.020Z</time>
      </trkpt>
      <trkpt lat="47.99552" lon="-4.08493">
        <ele>6.5308671643108</ele>
        <time>2022-01-09T17:34:22.617Z</time>
      </trkpt>
      <trkpt lat="47.99545" lon="-4.08596">
        <ele>6.464448302953</ele>
        <time>2022-01-09T17:34:37.223Z</time>
      </trkpt>
      <trkpt lat="47.99545" lon="-4.08618">
        <ele>6.587409748793</ele>
        <time>2022-01-09T17:34:51.831Z</time>
      </trkpt>
      <trkpt lat="47.99552" lon="-4.08708">
        <ele>6.8034620902274</ele>
        <time>2022-01-09T17:35:06.446Z</time>
      </trkpt>
      <trkpt lat="47.99551" lon="-4.08785">
        <ele>7.0562873875816</ele>
        <time>2022-01-09T17:35:21.068Z</time>
      </trkpt>
      <trkpt lat="47.99552" lon="-4.08796">
        <ele>7.3362432462771</ele>
        <time>2022-01-09T17:35:35.690Z</time>
      </trkpt>
      <trkpt lat="47.99554" lon="-4.08806">
        <ele>7.7026189569944</ele>
        <time>2022-01-09T17:35:50.313Z</time>
      </trkpt>
      <trkpt lat="47.99577" lon="-4.08851">
        <ele>8.0740680617467</ele>
        <time>2022-01-09T17:36:04.941Z</time>
      </trkpt>
      <trkpt lat="47.99585" lon="-4.08871">
        <ele>8.5219030195708</ele>
        <time>2022-01-09T17:36:19.571Z</time>
      </trkpt>
      <trkpt lat="47.9959" lon="-4.08893">
        <ele>9.0257781002151</ele>
        <time>2022-01-09T17:36:34.203Z</time>
      </trkpt>
      <trkpt lat="47.99596" lon="-4.09026">
        <ele>10.233604891301</ele>
        <time>2022-01-09T17:36:48.846Z</time>
      </trkpt>
      <trkpt lat="47.99595" lon="-4.091">
        <ele>10.593580350746</ele>
        <time>2022-01-09T17:37:03.495Z</time>
      </trkpt>
      <trkpt lat="47.99596" lon="-4.09165">
        <ele>10.934113710166</ele>
        <time>2022-01-09T17:37:18.150Z</time>
      </trkpt>
      <trkpt lat="47.99609" lon="-4.09372">
        <ele>11.400322953491</ele>
        <time>2022-01-09T17:37:32.822Z</time>
      </trkpt>
      <trkpt lat="47.99621" lon="-4.09519">
        <ele>11.428052908614</ele>
        <time>2022-01-09T17:37:47.507Z</time>
      </trkpt>
      <trkpt lat="47.99623" lon="-4.09552">
        <ele>11.438337414315</ele>
        <time>2022-01-09T17:38:02.194Z</time>
      </trkpt>
      <trkpt lat="47.9962" lon="-4.09575">
        <ele>11.39999712869</ele>
        <time>2022-01-09T17:38:16.883Z</time>
      </trkpt>
      <trkpt lat="47.99623" lon="-4.09593">
        <ele>11.260838875802</ele>
        <time>2022-01-09T17:38:31.574Z</time>
      </trkpt>
      <trkpt lat="47.9962" lon="-4.09652">
        <ele>10.971170712117</ele>
        <time>2022-01-09T17:38:46.270Z</time>
      </trkpt>
      <trkpt lat="47.99614" lon="-4.09693">
        <ele>10.721109653293</ele>
        <time>2022-01-09T17:39:00.970Z</time>
      </trkpt>
      <trkpt lat="47.99606" lon="-4.09705">
        <ele>10.413966925633</ele>
        <time>2022-01-09T17:39:15.671Z</time>
      </trkpt>
      <trkpt lat="47.99599" lon="-4.09707">
        <ele>10.051807658371</ele>
        <time>2022-01-09T17:39:30.373Z</time>
      </trkpt>
      <trkpt lat="47.99586" lon="-4.09703">
        <ele>9.6051874500307</ele>
        <time>2022-01-09T17:39:45.077Z</time>
      </trkpt>
      <trkpt lat="47.99567" lon="-4.09693">
        <ele>9.1459650699805</ele>
        <time>2022-01-09T17:39:59.783Z</time>
      </trkpt>
      <trkpt lat="47.99554" lon="-4.09692">
        <ele>8.6420599624786</ele>
        <time>2022-01-09T17:40:14.491Z</time>
      </trkpt>
      <trkpt lat="47.99547" lon="-4.09705">
        <ele>8.1881442071811</ele>
        <time>2022-01-09T17:40:29.200Z</time>
      </trkpt>
      <trkpt lat="47.99543" lon="-4.09783">
        <ele>8.0230870859671</ele>
        <time>2022-01-09T17:40:43.916Z</time>
      </trkpt>
      <trkpt lat="47.99531" lon="-4.09927">
        <ele>7.3103614663735</ele>
        <time>2022-01-09T17:40:58.644Z</time>
      </trkpt>
      <trkpt lat="47.995" lon="-4.10237">
        <ele>7.0772833531567</ele>
        <time>2022-01-09T17:41:13.398Z</time>
      </trkpt>
      <trkpt lat="47.99496" lon="-4.10267">
        <ele>6.9101120500055</ele>
        <time>2022-01-09T17:41:28.155Z</time>
      </trkpt>
      <trkpt lat="47.99476" lon="-4.10362">
        <ele>6.5841952179206</ele>
        <time>2022-01-09T17:41:42.920Z</time>
      </trkpt>
      <trkpt lat="47.99466" lon="-4.10417">
        <ele>6.3708795055291</ele>
        <time>2022-01-09T17:41:57.690Z</time>
      </trkpt>
      <trkpt lat="47.99444" lon="-4.10506">
        <ele>6.2948015328368</ele>
        <time>2022-01-09T17:42:12.468Z</time>
      </trkpt>
      <trkpt lat="47.99431" lon="-4.10581">
        <ele>6.1305073548559</ele>
        <time>2022-01-09T17:42:27.252Z</time>
      </trkpt>
      <trkpt lat="47.99421" lon="-4.10714">
        <ele>6.3819643545553</ele>
        <time>2022-01-09T17:42:42.048Z</time>
      </trkpt>
      <trkpt lat="47.99424" lon="-4.10734">
        <ele>6.5519732345857</ele>
        <time>2022-01-09T17:42:56.845Z</time>
      </trkpt>
      <trkpt lat="47.99428" lon="-4.10742">
        <ele>6.79895223453</ele>
        <time>2022-01-09T17:43:11.643Z</time>
      </trkpt>
      <trkpt lat="47.99446" lon="-4.10768">
        <ele>7.2371244855148</ele>
        <time>2022-01-09T17:43:26.444Z</time>
      </trkpt>
      <trkpt lat="47.99467" lon="-4.10791">
        <ele>7.7802713640034</ele>
        <time>2022-01-09T17:43:41.248Z</time>
      </trkpt>
      <trkpt lat="47.99516" lon="-4.10818">
        <ele>8.2760731689964</ele>
        <time>2022-01-09T17:43:56.059Z</time>
      </trkpt>
      <trkpt lat="47.99567" lon="-4.10835">
        <ele>8.9579425489215</ele>
        <time>2022-01-09T17:44:10.876Z</time>
      </trkpt>
      <trkpt lat="47.99592" lon="-4.10841">
        <ele>9.923789845628</ele>
        <time>2022-01-09T17:44:25.697Z</time>
      </trkpt>
      <trkpt lat="47.99633" lon="-4.10854">
        <ele>10.91850834518</ele>
        <time>2022-01-09T17:44:40.523Z</time>
      </trkpt>
      <trkpt lat="47.99644" lon="-4.10859">
        <ele>11.88517985395</ele>
        <time>2022-01-09T17:44:55.350Z</time>
      </trkpt>
      <trkpt lat="47.99665" lon="-4.10876">
        <ele>13.020656286237</ele>
        <time>2022-01-09T17:45:10.180Z</time>
      </trkpt>
      <trkpt lat="47.99813" lon="-4.11009">
        <ele>14.545626690849</ele>
        <time>2022-01-09T17:45:25.032Z</time>
      </trkpt>
      <trkpt lat="47.99898" lon="-4.11079">
        <ele>16.249761718602</ele>
        <time>2022-01-09T17:45:39.896Z</time>
      </trkpt>
      <trkpt lat="47.99969" lon="-4.1114">
        <ele>17.966964599715</ele>
        <time>2022-01-09T17:45:54.770Z</time>
      </trkpt>
      <trkpt lat="47.99985" lon="-4.11157">
        <ele>19.48520078156</ele>
        <time>2022-01-09T17:46:09.647Z</time>
      </trkpt>
      <trkpt lat="48.00003" lon="-4.11185">
        <ele>20.875023316009</ele>
        <time>2022-01-09T17:46:24.527Z</time>
      </trkpt>
      <trkpt lat="48.00014" lon="-4.1122">
        <ele>22.276937768927</ele>
        <time>2022-01-09T17:46:39.410Z</time>
      </trkpt>
      <trkpt lat="48.00019" lon="-4.11256">
        <ele>23.328005812131</ele>
        <time>2022-01-09T17:46:54.296Z</time>
      </trkpt>
      <trkpt lat="48.00016" lon="-4.11276">
        <ele>24.757263633236</ele>
        <time>2022-01-09T17:47:09.184Z</time>
      </trkpt>
      <trkpt lat="48.00001" lon="-4.11321">
        <ele>26.383521559982</ele>
        <time>2022-01-09T17:47:24.076Z</time>
      </trkpt>
      <trkpt lat="47.99959" lon="-4.1142">
        <ele>27.924768172675</ele>
        <time>2022-01-09T17:47:38.978Z</time>
      </trkpt>
      <trkpt lat="47.99942" lon="-4.11468">
        <ele>29.269406167709</ele>
        <time>2022-01-09T17:47:53.885Z</time>
      </trkpt>
      <trkpt lat="47.99898" lon="-4.11578">
        <ele>30.817780593071</ele>
        <time>2022-01-09T17:48:08.803Z</time>
      </trkpt>
      <trkpt lat="47.99887" lon="-4.11599">
        <ele>32.100032139759</ele>
        <time>2022-01-09T17:48:23.723Z</time>
      </trkpt>
      <trkpt lat="47.99878" lon="-4.11613">
        <ele>33.481417399534</ele>
        <time>2022-01-09T17:48:38.644Z</time>
      </trkpt>
      <trkpt lat="47.99809" lon="-4.11693">
        <ele>35.426479288793</ele>
        <time>2022-01-09T17:48:53.576Z</time>
      </trkpt>
      <trkpt lat="47.99797" lon="-4.11711">
        <ele>36.90145586152</ele>
        <time>2022-01-09T17:49:08.510Z</time>
      </trkpt>
      <trkpt lat="47.99767" lon="-4.11774">
        <ele>38.268323202382</ele>
        <time>2022-01-09T17:49:23.451Z</time>
      </trkpt>
      <trkpt lat="47.99763" lon="-4.11788">
        <ele>39.735068607173</ele>
        <time>2022-01-09T17:49:38.393Z</time>
      </trkpt>
      <trkpt lat="47.99753" lon="-4.11844">
        <ele>41.353193364497</ele>
        <time>2022-01-09T17:49:53.340Z</time>
      </trkpt>
      <trkpt lat="47.99751" lon="-4.11902">
        <ele>42.922275635603</ele>
        <time>2022-01-09T17:50:08.292Z</time>
      </trkpt>
      <trkpt lat="47.99751" lon="-4.12041">
        <ele>45.107609033965</ele>
        <time>2022-01-09T17:50:23.256Z</time>
      </trkpt>
      <trkpt lat="47.99756" lon="-4.12108">
        <ele>47.110171509884</ele>
        <time>2022-01-09T17:50:38.225Z</time>
      </trkpt>
      <trkpt lat="47.99766" lon="-4.12149">
        <ele>48.807860843557</ele>
        <time>2022-01-09T17:50:53.198Z</time>
      </trkpt>
      <trkpt lat="47.99779" lon="-4.12176">
        <ele>50.288400177383</ele>
        <time>2022-01-09T17:51:08.174Z</time>
      </trkpt>
      <trkpt lat="47.99786" lon="-4.12189">
        <ele>51.661236578851</ele>
        <time>2022-01-09T17:51:23.151Z</time>
      </trkpt>
      <trkpt lat="47.99824" lon="-4.1224">
        <ele>53.077647015766</ele>
        <time>2022-01-09T17:51:38.134Z</time>
      </trkpt>
      <trkpt lat="47.99842" lon="-4.1227">
        <ele>54.538666409307</ele>
        <time>2022-01-09T17:51:53.121Z</time>
      </trkpt>
      <trkpt lat="47.99854" lon="-4.12296">
        <ele>55.938821530778</ele>
        <time>2022-01-09T17:52:08.110Z</time>
      </trkpt>
      <trkpt lat="47.99867" lon="-4.1235">
        <ele>57.173320429419</ele>
        <time>2022-01-09T17:52:23.104Z</time>
      </trkpt>
      <trkpt lat="47.99881" lon="-4.12437">
        <ele>58.354060290979</ele>
        <time>2022-01-09T17:52:38.106Z</time>
      </trkpt>
      <trkpt lat="47.99902" lon="-4.12544">
        <ele>59.651485275469</ele>
        <time>2022-01-09T17:52:53.117Z</time>
      </trkpt>
      <trkpt lat="47.99899" lon="-4.12594">
        <ele>60.807929513497</ele>
        <time>2022-01-09T17:53:08.132Z</time>
      </trkpt>
      <trkpt lat="47.99893" lon="-4.12619">
        <ele>61.784435038297</ele>
        <time>2022-01-09T17:53:23.150Z</time>
      </trkpt>
      <trkpt lat="47.99888" lon="-4.12634">
        <ele>62.831319742672</ele>
        <time>2022-01-09T17:53:38.169Z</time>
      </trkpt>
      <trkpt lat="47.99857" lon="-4.1269">
        <ele>64.322465178424</ele>
        <time>2022-01-09T17:53:53.194Z</time>
      </trkpt>
      <trkpt lat="47.99844" lon="-4.12727">
        <ele>65.755312166744</ele>
        <time>2022-01-09T17:54:08.223Z</time>
      </trkpt>
      <trkpt lat="47.99842" lon="-4.12759">
        <ele>67.016309713122</ele>
        <time>2022-01-09T17:54:23.254Z</time>
      </trkpt>
      <trkpt lat="47.99844" lon="-4.12774">
        <ele>68.076988571123</ele>
        <time>2022-01-09T17:54:38.287Z</time>
      </trkpt>
      <trkpt lat="47.99853" lon="-4.12793">
        <ele>68.957615160191</ele>
        <time>2022-01-09T17:54:53.322Z</time>
      </trkpt>
      <trkpt lat="47.99889" lon="-4.12835">
        <ele>69.80055768449</ele>
        <time>2022-01-09T17:55:08.362Z</time>
      </trkpt>
      <trkpt lat="47.99911" lon="-4.12873">
        <ele>70.392539826729</ele>
        <time>2022-01-09T17:55:23.406Z</time>
      </trkpt>
      <trkpt lat="47.99927" lon="-4.12925">
        <ele>71.215412060478</ele>
        <time>2022-01-09T17:55:38.455Z</time>
      </trkpt>
      <trkpt lat="47.99932" lon="-4.12948">
        <ele>72.036343700652</ele>
        <time>2022-01-09T17:55:53.506Z</time>
      </trkpt>
      <trkpt lat="47.99936" lon="-4.1298">
        <ele>73.000756314063</ele>
        <time>2022-01-09T17:56:08.560Z</time>
      </trkpt>
      <trkpt lat="47.99936" lon="-4.13005">
        <ele>73.8045333253</ele>
        <time>2022-01-09T17:56:23.616Z</time>
      </trkpt>
      <trkpt lat="47.99934" lon="-4.13031">
        <ele>74.636217258568</ele>
        <time>2022-01-09T17:56:38.674Z</time>
      </trkpt>
      <trkpt lat="47.9993" lon="-4.13055">
        <ele>75.456767355693</ele>
        <time>2022-01-09T17:56:53.734Z</time>
      </trkpt>
      <trkpt lat="47.99916" lon="-4.13099">
        <ele>76.29212690073</ele>
        <time>2022-01-09T17:57:08.799Z</time>
      </trkpt>
      <trkpt lat="47.99891" lon="-4.13155">
        <ele>77.37762149087</ele>
        <time>2022-01-09T17:57:23.869Z</time>
      </trkpt>
      <trkpt lat="47.99885" lon="-4.13178">
        <ele>78.352404938278</ele>
        <time>2022-01-09T17:57:38.941Z</time>
      </trkpt>
      <trkpt lat="47.99883" lon="-4.13202">
        <ele>79.184320927471</ele>
        <time>2022-01-09T17:57:54.015Z</time>
      </trkpt>
      <trkpt lat="47.99888" lon="-4.13232">
        <ele>79.806571607448</ele>
        <time>2022-01-09T17:58:09.092Z</time>
      </trkpt>
      <trkpt lat="47.9992" lon="-4.13308">
        <ele>80.505559207853</ele>
        <time>2022-01-09T17:58:24.176Z</time>
      </trkpt>
      <trkpt lat="47.99923" lon="-4.13324">
        <ele>81.136253241936</ele>
        <time>2022-01-09T17:58:39.262Z</time>
      </trkpt>
      <trkpt lat="47.99926" lon="-4.13349">
        <ele>81.705910043105</ele>
        <time>2022-01-09T17:58:54.350Z</time>
      </trkpt>
      <trkpt lat="47.99922" lon="-4.13383">
        <ele>82.148647173284</ele>
        <time>2022-01-09T17:59:09.441Z</time>
      </trkpt>
      <trkpt lat="47.99903" lon="-4.13451">
        <ele>82.612761336844</ele>
        <time>2022-01-09T17:59:24.538Z</time>
      </trkpt>
      <trkpt lat="47.99897" lon="-4.13487">
        <ele>83.127789552685</ele>
        <time>2022-01-09T17:59:39.638Z</time>
      </trkpt>
      <trkpt lat="47.99897" lon="-4.13515">
        <ele>83.651752414213</ele>
        <time>2022-01-09T17:59:54.741Z</time>
      </trkpt>
      <trkpt lat="47.999" lon="-4.13553">
        <ele>84.277623511062</ele>
        <time>2022-01-09T18:00:09.847Z</time>
      </trkpt>
      <trkpt lat="47.99914" lon="-4.13689">
        <ele>85.057319212255</ele>
        <time>2022-01-09T18:00:24.964Z</time>
      </trkpt>
      <trkpt lat="47.99917" lon="-4.13763">
        <ele>86.235760914055</ele>
        <time>2022-01-09T18:00:40.087Z</time>
      </trkpt>
      <trkpt lat="47.99915" lon="-4.13879">
        <ele>87.476340134033</ele>
        <time>2022-01-09T18:00:55.220Z</time>
      </trkpt>
      <trkpt lat="47.99909" lon="-4.13972">
        <ele>88.575867899678</ele>
        <time>2022-01-09T18:01:10.361Z</time>
      </trkpt>
      <trkpt lat="47.99906" lon="-4.14067">
        <ele>89.707672522875</ele>
        <time>2022-01-09T18:01:25.510Z</time>
      </trkpt>
      <trkpt lat="47.99913" lon="-4.14205">
        <ele>90.865394495384</ele>
        <time>2022-01-09T18:01:40.671Z</time>
      </trkpt>
      <trkpt lat="47.99916" lon="-4.14239">
        <ele>92.221961477074</ele>
        <time>2022-01-09T18:01:55.835Z</time>
      </trkpt>
      <trkpt lat="47.99923" lon="-4.14284">
        <ele>93.821535652501</ele>
        <time>2022-01-09T18:02:11.002Z</time>
      </trkpt>
      <trkpt lat="47.99953" lon="-4.1443">
        <ele>95.58041983689</ele>
        <time>2022-01-09T18:02:26.182Z</time>
      </trkpt>
      <trkpt lat="47.99972" lon="-4.14559">
        <ele>96.897871747756</ele>
        <time>2022-01-09T18:02:41.373Z</time>
      </trkpt>
      <trkpt lat="47.99974" lon="-4.14631">
        <ele>97.875440474498</ele>
        <time>2022-01-09T18:02:56.570Z</time>
      </trkpt>
      <trkpt lat="47.99965" lon="-4.14692">
        <ele>98.638083664827</ele>
        <time>2022-01-09T18:03:11.773Z</time>
      </trkpt>
      <trkpt lat="47.99956" lon="-4.14744">
        <ele>99.388284816894</ele>
        <time>2022-01-09T18:03:26.980Z</time>
      </trkpt>
      <trkpt lat="47.99956" lon="-4.14757">
        <ele>100.08568005682</ele>
        <time>2022-01-09T18:03:42.188Z</time>
      </trkpt>
      <trkpt lat="47.99964" lon="-4.14792">
        <ele>100.7292311161</ele>
        <time>2022-01-09T18:03:57.399Z</time>
      </trkpt>
      <trkpt lat="47.99968" lon="-4.14818">
        <ele>101.17647760917</ele>
        <time>2022-01-09T18:04:12.613Z</time>
      </trkpt>
      <trkpt lat="47.99973" lon="-4.14835">
        <ele>101.62066122993</ele>
        <time>2022-01-09T18:04:27.828Z</time>
      </trkpt>
      <trkpt lat="48.00036" lon="-4.14933">
        <ele>102.08314602757</ele>
        <time>2022-01-09T18:04:43.055Z</time>
      </trkpt>
      <trkpt lat="48.00043" lon="-4.14949">
        <ele>102.24471604226</ele>
        <time>2022-01-09T18:04:58.283Z</time>
      </trkpt>
      <trkpt lat="48.0005" lon="-4.14974">
        <ele>102.22232812876</ele>
        <time>2022-01-09T18:05:13.513Z</time>
      </trkpt>
      <trkpt lat="48.00065" lon="-4.15071">
        <ele>102.01125550823</ele>
        <time>2022-01-09T18:05:28.752Z</time>
      </trkpt>
      <trkpt lat="48.00073" lon="-4.15142">
        <ele>101.5163548884</ele>
        <time>2022-01-09T18:05:43.997Z</time>
      </trkpt>
      <trkpt lat="48.00084" lon="-4.15185">
        <ele>100.89625097157</ele>
        <time>2022-01-09T18:05:59.246Z</time>
      </trkpt>
      <trkpt lat="48.00085" lon="-4.15197">
        <ele>100.38428805773</ele>
        <time>2022-01-09T18:06:14.496Z</time>
      </trkpt>
      <trkpt lat="48.00093" lon="-4.153">
        <ele>99.891308475161</ele>
        <time>2022-01-09T18:06:29.754Z</time>
      </trkpt>
      <trkpt lat="48.00094" lon="-4.15398">
        <ele>99.095362959877</ele>
        <time>2022-01-09T18:06:45.021Z</time>
      </trkpt>
      <trkpt lat="48.00096" lon="-4.15439">
        <ele>98.262796139292</ele>
        <time>2022-01-09T18:07:00.291Z</time>
      </trkpt>
      <trkpt lat="48.00102" lon="-4.15466">
        <ele>97.428246446082</ele>
        <time>2022-01-09T18:07:15.563Z</time>
      </trkpt>
      <trkpt lat="48.00111" lon="-4.15491">
        <ele>96.649355734532</ele>
        <time>2022-01-09T18:07:30.838Z</time>
      </trkpt>
      <trkpt lat="48.0013" lon="-4.15524">
        <ele>95.88909613479</ele>
        <time>2022-01-09T18:07:46.117Z</time>
      </trkpt>
      <trkpt lat="48.00177" lon="-4.1559">
        <ele>95.093420984847</ele>
        <time>2022-01-09T18:08:01.404Z</time>
      </trkpt>
      <trkpt lat="48.00183" lon="-4.156">
        <ele>94.207274047652</ele>
        <time>2022-01-09T18:08:16.692Z</time>
      </trkpt>
      <trkpt lat="48.0019" lon="-4.15623">
        <ele>93.257047576571</ele>
        <time>2022-01-09T18:08:31.982Z</time>
      </trkpt>
      <trkpt lat="48.00195" lon="-4.1567">
        <ele>92.163934867794</ele>
        <time>2022-01-09T18:08:47.276Z</time>
      </trkpt>
      <trkpt lat="48.00206" lon="-4.15705">
        <ele>90.976146408058</ele>
        <time>2022-01-09T18:09:02.573Z</time>
      </trkpt>
      <trkpt lat="48.00211" lon="-4.15744">
        <ele>89.77410735369</ele>
        <time>2022-01-09T18:09:17.873Z</time>
      </trkpt>
      <trkpt lat="48.00216" lon="-4.15756">
        <ele>88.804424931334</ele>
        <time>2022-01-09T18:09:33.175Z</time>
      </trkpt>
      <trkpt lat="48.00229" lon="-4.15777">
        <ele>87.891727032423</ele>
        <time>2022-01-09T18:09:48.479Z</time>
      </trkpt>
      <trkpt lat="48.00252" lon="-4.15807">
        <ele>87.052339569084</ele>
        <time>2022-01-09T18:10:03.787Z</time>
      </trkpt>
      <trkpt lat="48.00278" lon="-4.1583">
        <ele>86.525733617247</ele>
        <time>2022-01-09T18:10:19.099Z</time>
      </trkpt>
      <trkpt lat="48.00307" lon="-4.15852">
        <ele>86.192405928245</ele>
        <time>2022-01-09T18:10:34.415Z</time>
      </trkpt>
      <trkpt lat="48.00332" lon="-4.15878">
        <ele>86.003708211661</ele>
        <time>2022-01-09T18:10:49.734Z</time>
      </trkpt>
      <trkpt lat="48.00358" lon="-4.15921">
        <ele>85.659795743637</ele>
        <time>2022-01-09T18:11:05.058Z</time>
      </trkpt>
      <trkpt lat="48.00367" lon="-4.15945">
        <ele>85.702377882311</ele>
        <time>2022-01-09T18:11:20.385Z</time>
      </trkpt>
      <trkpt lat="48.00376" lon="-4.15981">
        <ele>86.226861842692</ele>
        <time>2022-01-09T18:11:35.715Z</time>
      </trkpt>
      <trkpt lat="48.0038" lon="-4.16013">
        <ele>87.177022166796</ele>
        <time>2022-01-09T18:11:51.048Z</time>
      </trkpt>
      <trkpt lat="48.00387" lon="-4.16089">
        <ele>88.405824807143</ele>
        <time>2022-01-09T18:12:06.387Z</time>
      </trkpt>
      <trkpt lat="48.00411" lon="-4.16326">
        <ele>90.013913007334</ele>
        <time>2022-01-09T18:12:21.746Z</time>
      </trkpt>
      <trkpt lat="48.00445" lon="-4.1653">
        <ele>91.759991096294</ele>
        <time>2022-01-09T18:12:37.123Z</time>
      </trkpt>
      <trkpt lat="48.00459" lon="-4.16592">
        <ele>93.200142281387</ele>
        <time>2022-01-09T18:12:52.505Z</time>
      </trkpt>
      <trkpt lat="48.00477" lon="-4.16653">
        <ele>94.630582086275</ele>
        <time>2022-01-09T18:13:07.893Z</time>
      </trkpt>
      <trkpt lat="48.00497" lon="-4.16698">
        <ele>96.204714999947</ele>
        <time>2022-01-09T18:13:23.285Z</time>
      </trkpt>
      <trkpt lat="48.00509" lon="-4.16718">
        <ele>97.711635416054</ele>
        <time>2022-01-09T18:13:38.680Z</time>
      </trkpt>
      <trkpt lat="48.00567" lon="-4.16797">
        <ele>99.389922305974</ele>
        <time>2022-01-09T18:13:54.084Z</time>
      </trkpt>
      <trkpt lat="48.00575" lon="-4.1681">
        <ele>100.93325104701</ele>
        <time>2022-01-09T18:14:09.490Z</time>
      </trkpt>
      <trkpt lat="48.00593" lon="-4.16844">
        <ele>102.45609064088</ele>
        <time>2022-01-09T18:14:24.900Z</time>
      </trkpt>
      <trkpt lat="48.00609" lon="-4.1689">
        <ele>104.12315333864</ele>
        <time>2022-01-09T18:14:40.314Z</time>
      </trkpt>
      <trkpt lat="48.0062" lon="-4.16939">
        <ele>105.64773531424</ele>
        <time>2022-01-09T18:14:55.732Z</time>
      </trkpt>
      <trkpt lat="48.00632" lon="-4.17035">
        <ele>107.78973405033</ele>
        <time>2022-01-09T18:15:11.159Z</time>
      </trkpt>
      <trkpt lat="48.00644" lon="-4.1711">
        <ele>109.56580664788</ele>
        <time>2022-01-09T18:15:26.592Z</time>
      </trkpt>
      <trkpt lat="48.00647" lon="-4.17167">
        <ele>111.12913547323</ele>
        <time>2022-01-09T18:15:42.030Z</time>
      </trkpt>
      <trkpt lat="48.00642" lon="-4.17279">
        <ele>112.63428829567</ele>
        <time>2022-01-09T18:15:57.477Z</time>
      </trkpt>
      <trkpt lat="48.00641" lon="-4.17334">
        <ele>114.43479346341</ele>
        <time>2022-01-09T18:16:12.929Z</time>
      </trkpt>
      <trkpt lat="48.00642" lon="-4.17366">
        <ele>116.25441309941</ele>
        <time>2022-01-09T18:16:28.383Z</time>
      </trkpt>
      <trkpt lat="48.00645" lon="-4.17406">
        <ele>118.21208776824</ele>
        <time>2022-01-09T18:16:43.841Z</time>
      </trkpt>
      <trkpt lat="48.00655" lon="-4.17461">
        <ele>120.39069221718</ele>
        <time>2022-01-09T18:16:59.304Z</time>
      </trkpt>
      <trkpt lat="48.00662" lon="-4.1749">
        <ele>122.57724188171</ele>
        <time>2022-01-09T18:17:14.769Z</time>
      </trkpt>
      <trkpt lat="48.00686" lon="-4.17559">
        <ele>125.0043208832</ele>
        <time>2022-01-09T18:17:30.241Z</time>
      </trkpt>
      <trkpt lat="48.00701" lon="-4.17591">
        <ele>127.4306850448</ele>
        <time>2022-01-09T18:17:45.716Z</time>
      </trkpt>
      <trkpt lat="48.00744" lon="-4.17671">
        <ele>130.24170434745</ele>
        <time>2022-01-09T18:18:01.200Z</time>
      </trkpt>
      <trkpt lat="48.00771" lon="-4.17732">
        <ele>132.63424767057</ele>
        <time>2022-01-09T18:18:16.690Z</time>
      </trkpt>
      <trkpt lat="48.00909" lon="-4.18091">
        <ele>135.77716662674</ele>
        <time>2022-01-09T18:18:32.214Z</time>
      </trkpt>
      <trkpt lat="48.00921" lon="-4.18127">
        <ele>138.17852762691</ele>
        <time>2022-01-09T18:18:47.742Z</time>
      </trkpt>
      <trkpt lat="48.00973" lon="-4.18314">
        <ele>140.79160216858</ele>
        <time>2022-01-09T18:19:03.287Z</time>
      </trkpt>
      <trkpt lat="48.00982" lon="-4.18358">
        <ele>142.91328257133</ele>
        <time>2022-01-09T18:19:18.836Z</time>
      </trkpt>
      <trkpt lat="48.01" lon="-4.18485">
        <ele>144.78458906642</ele>
        <time>2022-01-09T18:19:34.396Z</time>
      </trkpt>
      <trkpt lat="48.01013" lon="-4.18625">
        <ele>146.16687632242</ele>
        <time>2022-01-09T18:19:49.967Z</time>
      </trkpt>
      <trkpt lat="48.0103" lon="-4.1884">
        <ele>147.57310470933</ele>
        <time>2022-01-09T18:20:05.557Z</time>
      </trkpt>
      <trkpt lat="48.01038" lon="-4.18882">
        <ele>148.51910531996</ele>
        <time>2022-01-09T18:20:21.150Z</time>
      </trkpt>
      <trkpt lat="48.01042" lon="-4.18939">
        <ele>149.40681723973</ele>
        <time>2022-01-09T18:20:36.748Z</time>
      </trkpt>
      <trkpt lat="48.01089" lon="-4.19236">
        <ele>150.00997245929</ele>
        <time>2022-01-09T18:20:52.372Z</time>
      </trkpt>
      <trkpt lat="48.01134" lon="-4.1953">
        <ele>149.90770194179</ele>
        <time>2022-01-09T18:21:08.021Z</time>
      </trkpt>
      <trkpt lat="48.01156" lon="-4.19617">
        <ele>149.99492839173</ele>
        <time>2022-01-09T18:21:23.678Z</time>
      </trkpt>
      <trkpt lat="48.01168" lon="-4.19649">
        <ele>150.00106391911</ele>
        <time>2022-01-09T18:21:39.338Z</time>
      </trkpt>
      <trkpt lat="48.01179" lon="-4.19666">
        <ele>149.95901205669</ele>
        <time>2022-01-09T18:21:55.000Z</time>
      </trkpt>
      <trkpt lat="48.012" lon="-4.19679">
        <ele>149.8921498521</ele>
        <time>2022-01-09T18:22:10.665Z</time>
      </trkpt>
      <trkpt lat="48.01211" lon="-4.19693">
        <ele>149.79154612306</ele>
        <time>2022-01-09T18:22:26.332Z</time>
      </trkpt>
      <trkpt lat="48.01215" lon="-4.19703">
        <ele>149.73583786509</ele>
        <time>2022-01-09T18:22:42.000Z</time>
      </trkpt>
      <trkpt lat="48.01221" lon="-4.19736">
        <ele>149.69439535497</ele>
        <time>2022-01-09T18:22:57.670Z</time>
      </trkpt>
      <trkpt lat="48.01233" lon="-4.19782">
        <ele>149.80580205343</ele>
        <time>2022-01-09T18:23:13.345Z</time>
      </trkpt>
      <trkpt lat="48.01244" lon="-4.19865">
        <ele>149.79191053074</ele>
        <time>2022-01-09T18:23:29.027Z</time>
      </trkpt>
      <trkpt lat="48.01289" lon="-4.20151">
        <ele>149.56786544991</ele>
        <time>2022-01-09T18:23:44.733Z</time>
      </trkpt>
      <trkpt lat="48.01304" lon="-4.202">
        <ele>149.5385048672</ele>
        <time>2022-01-09T18:24:00.444Z</time>
      </trkpt>
      <trkpt lat="48.01313" lon="-4.20218">
        <ele>149.81407697038</ele>
        <time>2022-01-09T18:24:16.157Z</time>
      </trkpt>
      <trkpt lat="48.01355" lon="-4.20283">
        <ele>150.52464868791</ele>
        <time>2022-01-09T18:24:31.877Z</time>
      </trkpt>
      <trkpt lat="48.01392" lon="-4.20345">
        <ele>151.31188696811</ele>
        <time>2022-01-09T18:24:47.604Z</time>
      </trkpt>
      <trkpt lat="48.01423" lon="-4.204">
        <ele>151.96765379094</ele>
        <time>2022-01-09T18:25:03.337Z</time>
      </trkpt>
      <trkpt lat="48.01435" lon="-4.20418">
        <ele>152.68142885829</ele>
        <time>2022-01-09T18:25:19.072Z</time>
      </trkpt>
      <trkpt lat="48.01472" lon="-4.20506">
        <ele>153.48022545326</ele>
        <time>2022-01-09T18:25:34.816Z</time>
      </trkpt>
      <trkpt lat="48.01555" lon="-4.20682">
        <ele>154.18547075441</ele>
        <time>2022-01-09T18:25:50.578Z</time>
      </trkpt>
      <trkpt lat="48.01638" lon="-4.20862">
        <ele>154.37004916815</ele>
        <time>2022-01-09T18:26:06.359Z</time>
      </trkpt>
      <trkpt lat="48.01699" lon="-4.20981">
        <ele>154.73479441499</ele>
        <time>2022-01-09T18:26:22.152Z</time>
      </trkpt>
      <trkpt lat="48.01715" lon="-4.21017">
        <ele>155.07756228601</ele>
        <time>2022-01-09T18:26:37.949Z</time>
      </trkpt>
      <trkpt lat="48.01738" lon="-4.2108">
        <ele>155.0654580601</ele>
        <time>2022-01-09T18:26:53.752Z</time>
      </trkpt>
      <trkpt lat="48.01771" lon="-4.21155">
        <ele>154.79966892675</ele>
        <time>2022-01-09T18:27:09.562Z</time>
      </trkpt>
      <trkpt lat="48.01807" lon="-4.21226">
        <ele>153.97649872563</ele>
        <time>2022-01-09T18:27:25.380Z</time>
      </trkpt>
      <trkpt lat="48.01833" lon="-4.21282">
        <ele>153.31474048437</ele>
        <time>2022-01-09T18:27:41.203Z</time>
      </trkpt>
      <trkpt lat="48.01901" lon="-4.21411">
        <ele>152.63183435449</ele>
        <time>2022-01-09T18:27:57.040Z</time>
      </trkpt>
      <trkpt lat="48.01924" lon="-4.2146">
        <ele>151.80273891304</ele>
        <time>2022-01-09T18:28:12.882Z</time>
      </trkpt>
      <trkpt lat="48.01944" lon="-4.21511">
        <ele>150.39034448176</ele>
        <time>2022-01-09T18:28:28.729Z</time>
      </trkpt>
      <trkpt lat="48.01999" lon="-4.21621">
        <ele>148.71552324946</ele>
        <time>2022-01-09T18:28:44.588Z</time>
      </trkpt>
      <trkpt lat="48.02035" lon="-4.21703">
        <ele>147.0575697666</ele>
        <time>2022-01-09T18:29:00.455Z</time>
      </trkpt>
    </trkseg>
  </trk>
</gpx>